<?xml version="1.0" encoding="utf-8"?>
<gpx xmlns:xsi="http://www.w3.org/2001/XMLSchema-instance" xmlns:xsd="http://www.w3.org/2001/XMLSchema" version="1.1" creator="Shapelink.com" xmlns="http://www.topografix.com/GPX/1/1" xmlns:gpxtpx="http://www.garmin.com/xmlschemas/TrackPointExtension/v1">
  <metadata>
    <name>Längdskidåkning - Klassisk 29.68 km, 2013-03-10</name>
    <desc></desc>
    <author><name>Alexander Engvall</name></author> 
    <time>2013-03-10T09:55:38Z</time>
  </metadata>
  <trk>
    <name>Längdskidåkning - Klassisk 29.68 km, 2013-03-10</name>
    <trkseg>
      <trkpt lat="59.1929015" lon="17.9017137">
        <ele>73.2</ele>
        <time>2013-03-10T09:55:38Z</time>
      </trkpt>
      <trkpt lat="59.1928562" lon="17.9016453">
        <ele>71.8</ele>
        <time>2013-03-10T09:55:40Z</time>
      </trkpt>
      <trkpt lat="59.1926538" lon="17.9015458">
        <ele>69.2</ele>
        <time>2013-03-10T09:55:47Z</time>
      </trkpt>
      <trkpt lat="59.1924747" lon="17.9014258">
        <ele>69.6</ele>
        <time>2013-03-10T09:55:52Z</time>
      </trkpt>
      <trkpt lat="59.1922813" lon="17.9015344">
        <ele>65.8</ele>
        <time>2013-03-10T09:55:58Z</time>
      </trkpt>
      <trkpt lat="59.1920787" lon="17.9016844">
        <ele>65.2</ele>
        <time>2013-03-10T09:56:03Z</time>
      </trkpt>
      <trkpt lat="59.1919127" lon="17.9018452">
        <ele>64.2</ele>
        <time>2013-03-10T09:56:07Z</time>
      </trkpt>
      <trkpt lat="59.1918733" lon="17.9018854">
        <ele>63.8</ele>
        <time>2013-03-10T09:56:08Z</time>
      </trkpt>
      <trkpt lat="59.191797" lon="17.9019653">
        <ele>62</ele>
        <time>2013-03-10T09:56:10Z</time>
      </trkpt>
      <trkpt lat="59.1917177" lon="17.9020487">
        <ele>61</ele>
        <time>2013-03-10T09:56:12Z</time>
      </trkpt>
      <trkpt lat="59.1916778" lon="17.9020877">
        <ele>60.2</ele>
        <time>2013-03-10T09:56:13Z</time>
      </trkpt>
      <trkpt lat="59.1915224" lon="17.9022413">
        <ele>59.2</ele>
        <time>2013-03-10T09:56:17Z</time>
      </trkpt>
      <trkpt lat="59.1914693" lon="17.9025855">
        <ele>59.6</ele>
        <time>2013-03-10T09:56:22Z</time>
      </trkpt>
      <trkpt lat="59.1915021" lon="17.9028005">
        <ele>59.4</ele>
        <time>2013-03-10T09:56:25Z</time>
      </trkpt>
      <trkpt lat="59.1915252" lon="17.9029599">
        <ele>59</ele>
        <time>2013-03-10T09:56:27Z</time>
      </trkpt>
      <trkpt lat="59.1914814" lon="17.9033071">
        <ele>59.2</ele>
        <time>2013-03-10T09:56:32Z</time>
      </trkpt>
      <trkpt lat="59.1912858" lon="17.9034099">
        <ele>60.4</ele>
        <time>2013-03-10T09:56:38Z</time>
      </trkpt>
      <trkpt lat="59.1910727" lon="17.9034156">
        <ele>60</ele>
        <time>2013-03-10T09:56:43Z</time>
      </trkpt>
      <trkpt lat="59.190891" lon="17.9034424">
        <ele>61</ele>
        <time>2013-03-10T09:56:47Z</time>
      </trkpt>
      <trkpt lat="59.1908564" lon="17.9034396">
        <ele>60.8</ele>
        <time>2013-03-10T09:56:48Z</time>
      </trkpt>
      <trkpt lat="59.1906687" lon="17.9034101">
        <ele>61.2</ele>
        <time>2013-03-10T09:56:54Z</time>
      </trkpt>
      <trkpt lat="59.1906347" lon="17.9034004">
        <ele>60.6</ele>
        <time>2013-03-10T09:56:55Z</time>
      </trkpt>
      <trkpt lat="59.1904694" lon="17.9033654">
        <ele>59.8</ele>
        <time>2013-03-10T09:56:59Z</time>
      </trkpt>
      <trkpt lat="59.1903078" lon="17.9032142">
        <ele>59.8</ele>
        <time>2013-03-10T09:57:03Z</time>
      </trkpt>
      <trkpt lat="59.1902859" lon="17.9031568">
        <ele>59.6</ele>
        <time>2013-03-10T09:57:04Z</time>
      </trkpt>
      <trkpt lat="59.1902423" lon="17.9030175">
        <ele>60.4</ele>
        <time>2013-03-10T09:57:06Z</time>
      </trkpt>
      <trkpt lat="59.1902097" lon="17.9027982">
        <ele>61.2</ele>
        <time>2013-03-10T09:57:09Z</time>
      </trkpt>
      <trkpt lat="59.1902053" lon="17.9027217">
        <ele>61.6</ele>
        <time>2013-03-10T09:57:10Z</time>
      </trkpt>
      <trkpt lat="59.1901888" lon="17.9025772">
        <ele>62.2</ele>
        <time>2013-03-10T09:57:12Z</time>
      </trkpt>
      <trkpt lat="59.1901514" lon="17.9024622">
        <ele>61.8</ele>
        <time>2013-03-10T09:57:14Z</time>
      </trkpt>
      <trkpt lat="59.1900374" lon="17.9021963">
        <ele>61.8</ele>
        <time>2013-03-10T09:57:18Z</time>
      </trkpt>
      <trkpt lat="59.1899536" lon="17.9019633">
        <ele>62.4</ele>
        <time>2013-03-10T09:57:21Z</time>
      </trkpt>
      <trkpt lat="59.1899293" lon="17.9018934">
        <ele>62.4</ele>
        <time>2013-03-10T09:57:22Z</time>
      </trkpt>
      <trkpt lat="59.1898484" lon="17.9016765">
        <ele>62.8</ele>
        <time>2013-03-10T09:57:25Z</time>
      </trkpt>
      <trkpt lat="59.1897871" lon="17.9015552">
        <ele>63.2</ele>
        <time>2013-03-10T09:57:27Z</time>
      </trkpt>
      <trkpt lat="59.1897562" lon="17.9014774">
        <ele>63.2</ele>
        <time>2013-03-10T09:57:28Z</time>
      </trkpt>
      <trkpt lat="59.1896694" lon="17.9012603">
        <ele>62.2</ele>
        <time>2013-03-10T09:57:31Z</time>
      </trkpt>
      <trkpt lat="59.1896422" lon="17.9011935">
        <ele>62.6</ele>
        <time>2013-03-10T09:57:32Z</time>
      </trkpt>
      <trkpt lat="59.1895484" lon="17.9010175">
        <ele>62.2</ele>
        <time>2013-03-10T09:57:35Z</time>
      </trkpt>
      <trkpt lat="59.1895148" lon="17.9009641">
        <ele>61.6</ele>
        <time>2013-03-10T09:57:36Z</time>
      </trkpt>
      <trkpt lat="59.1894495" lon="17.9008532">
        <ele>61.4</ele>
        <time>2013-03-10T09:57:38Z</time>
      </trkpt>
      <trkpt lat="59.1893576" lon="17.9006714">
        <ele>61.8</ele>
        <time>2013-03-10T09:57:41Z</time>
      </trkpt>
      <trkpt lat="59.1892291" lon="17.9003861">
        <ele>62.2</ele>
        <time>2013-03-10T09:57:45Z</time>
      </trkpt>
      <trkpt lat="59.1891733" lon="17.9002425">
        <ele>62</ele>
        <time>2013-03-10T09:57:47Z</time>
      </trkpt>
      <trkpt lat="59.1891116" lon="17.900098">
        <ele>62.4</ele>
        <time>2013-03-10T09:57:49Z</time>
      </trkpt>
      <trkpt lat="59.1889714" lon="17.8997701">
        <ele>62.8</ele>
        <time>2013-03-10T09:57:54Z</time>
      </trkpt>
      <trkpt lat="59.1889106" lon="17.899609">
        <ele>62.6</ele>
        <time>2013-03-10T09:57:56Z</time>
      </trkpt>
      <trkpt lat="59.1888813" lon="17.8995288">
        <ele>62.4</ele>
        <time>2013-03-10T09:57:57Z</time>
      </trkpt>
      <trkpt lat="59.1888516" lon="17.8994421">
        <ele>63</ele>
        <time>2013-03-10T09:57:58Z</time>
      </trkpt>
      <trkpt lat="59.1888297" lon="17.899349">
        <ele>63.2</ele>
        <time>2013-03-10T09:57:59Z</time>
      </trkpt>
      <trkpt lat="59.1887952" lon="17.8990703">
        <ele>62.8</ele>
        <time>2013-03-10T09:58:02Z</time>
      </trkpt>
      <trkpt lat="59.1887671" lon="17.8987884">
        <ele>66.4</ele>
        <time>2013-03-10T09:58:05Z</time>
      </trkpt>
      <trkpt lat="59.1887735" lon="17.8987003">
        <ele>67.6</ele>
        <time>2013-03-10T09:58:06Z</time>
      </trkpt>
      <trkpt lat="59.1887807" lon="17.8986174">
        <ele>67.8</ele>
        <time>2013-03-10T09:58:07Z</time>
      </trkpt>
      <trkpt lat="59.1887987" lon="17.8982969">
        <ele>68.2</ele>
        <time>2013-03-10T09:58:11Z</time>
      </trkpt>
      <trkpt lat="59.1887454" lon="17.8979297">
        <ele>65.6</ele>
        <time>2013-03-10T09:58:16Z</time>
      </trkpt>
      <trkpt lat="59.1887252" lon="17.8977776">
        <ele>64.8</ele>
        <time>2013-03-10T09:58:18Z</time>
      </trkpt>
      <trkpt lat="59.1887272" lon="17.897549">
        <ele>64.4</ele>
        <time>2013-03-10T09:58:21Z</time>
      </trkpt>
      <trkpt lat="59.1887498" lon="17.8971692">
        <ele>64.2</ele>
        <time>2013-03-10T09:58:26Z</time>
      </trkpt>
      <trkpt lat="59.1886641" lon="17.8967775">
        <ele>65.6</ele>
        <time>2013-03-10T09:58:32Z</time>
      </trkpt>
      <trkpt lat="59.1885436" lon="17.8964228">
        <ele>66.2</ele>
        <time>2013-03-10T09:58:37Z</time>
      </trkpt>
      <trkpt lat="59.1884662" lon="17.8962441">
        <ele>68.2</ele>
        <time>2013-03-10T09:58:40Z</time>
      </trkpt>
      <trkpt lat="59.1884062" lon="17.8961512">
        <ele>69</ele>
        <time>2013-03-10T09:58:42Z</time>
      </trkpt>
      <trkpt lat="59.188284" lon="17.8959092">
        <ele>70.2</ele>
        <time>2013-03-10T09:58:46Z</time>
      </trkpt>
      <trkpt lat="59.1882517" lon="17.8958546">
        <ele>70.6</ele>
        <time>2013-03-10T09:58:47Z</time>
      </trkpt>
      <trkpt lat="59.1881622" lon="17.8957829">
        <ele>71.2</ele>
        <time>2013-03-10T09:58:50Z</time>
      </trkpt>
      <trkpt lat="59.1880452" lon="17.8958035">
        <ele>71.4</ele>
        <time>2013-03-10T09:58:54Z</time>
      </trkpt>
      <trkpt lat="59.1879544" lon="17.8958033">
        <ele>69.8</ele>
        <time>2013-03-10T09:58:56Z</time>
      </trkpt>
      <trkpt lat="59.1878619" lon="17.8958054">
        <ele>69.8</ele>
        <time>2013-03-10T09:58:58Z</time>
      </trkpt>
      <trkpt lat="59.1876613" lon="17.895856">
        <ele>65.8</ele>
        <time>2013-03-10T09:59:03Z</time>
      </trkpt>
      <trkpt lat="59.1875831" lon="17.8958851">
        <ele>64</ele>
        <time>2013-03-10T09:59:05Z</time>
      </trkpt>
      <trkpt lat="59.1874935" lon="17.8959037">
        <ele>62.6</ele>
        <time>2013-03-10T09:59:07Z</time>
      </trkpt>
      <trkpt lat="59.1874532" lon="17.8959094">
        <ele>61.6</ele>
        <time>2013-03-10T09:59:08Z</time>
      </trkpt>
      <trkpt lat="59.1873266" lon="17.8959231">
        <ele>59.4</ele>
        <time>2013-03-10T09:59:11Z</time>
      </trkpt>
      <trkpt lat="59.1872853" lon="17.8959259">
        <ele>58.6</ele>
        <time>2013-03-10T09:59:12Z</time>
      </trkpt>
      <trkpt lat="59.18716" lon="17.8959635">
        <ele>57.6</ele>
        <time>2013-03-10T09:59:15Z</time>
      </trkpt>
      <trkpt lat="59.1870884" lon="17.8959731">
        <ele>56.2</ele>
        <time>2013-03-10T09:59:17Z</time>
      </trkpt>
      <trkpt lat="59.1869882" lon="17.8959338">
        <ele>55.8</ele>
        <time>2013-03-10T09:59:19Z</time>
      </trkpt>
      <trkpt lat="59.1869292" lon="17.895872">
        <ele>56</ele>
        <time>2013-03-10T09:59:20Z</time>
      </trkpt>
      <trkpt lat="59.1868127" lon="17.8957092">
        <ele>58.8</ele>
        <time>2013-03-10T09:59:22Z</time>
      </trkpt>
      <trkpt lat="59.1867624" lon="17.8956239">
        <ele>60.4</ele>
        <time>2013-03-10T09:59:23Z</time>
      </trkpt>
      <trkpt lat="59.1866128" lon="17.8953691">
        <ele>63.8</ele>
        <time>2013-03-10T09:59:26Z</time>
      </trkpt>
      <trkpt lat="59.1864604" lon="17.8951097">
        <ele>66</ele>
        <time>2013-03-10T09:59:29Z</time>
      </trkpt>
      <trkpt lat="59.1863715" lon="17.8949662">
        <ele>67.4</ele>
        <time>2013-03-10T09:59:31Z</time>
      </trkpt>
      <trkpt lat="59.1862952" lon="17.8948371">
        <ele>67.8</ele>
        <time>2013-03-10T09:59:33Z</time>
      </trkpt>
      <trkpt lat="59.1861316" lon="17.8945709">
        <ele>66.8</ele>
        <time>2013-03-10T09:59:37Z</time>
      </trkpt>
      <trkpt lat="59.1860491" lon="17.8944347">
        <ele>67.4</ele>
        <time>2013-03-10T09:59:39Z</time>
      </trkpt>
      <trkpt lat="59.1859642" lon="17.8943263">
        <ele>67.2</ele>
        <time>2013-03-10T09:59:41Z</time>
      </trkpt>
      <trkpt lat="59.1858353" lon="17.8943925">
        <ele>65.8</ele>
        <time>2013-03-10T09:59:45Z</time>
      </trkpt>
      <trkpt lat="59.1858022" lon="17.8944342">
        <ele>65.2</ele>
        <time>2013-03-10T09:59:46Z</time>
      </trkpt>
      <trkpt lat="59.1857648" lon="17.8944854">
        <ele>64.2</ele>
        <time>2013-03-10T09:59:47Z</time>
      </trkpt>
      <trkpt lat="59.1856337" lon="17.8946014">
        <ele>63.6</ele>
        <time>2013-03-10T09:59:50Z</time>
      </trkpt>
      <trkpt lat="59.1855824" lon="17.8946117">
        <ele>63</ele>
        <time>2013-03-10T09:59:51Z</time>
      </trkpt>
      <trkpt lat="59.1854451" lon="17.8945357">
        <ele>62.4</ele>
        <time>2013-03-10T09:59:54Z</time>
      </trkpt>
      <trkpt lat="59.1853316" lon="17.894192">
        <ele>63.2</ele>
        <time>2013-03-10T09:59:59Z</time>
      </trkpt>
      <trkpt lat="59.1852396" lon="17.8939286">
        <ele>63.2</ele>
        <time>2013-03-10T10:00:02Z</time>
      </trkpt>
      <trkpt lat="59.1851983" lon="17.8938592">
        <ele>63.6</ele>
        <time>2013-03-10T10:00:03Z</time>
      </trkpt>
      <trkpt lat="59.1850169" lon="17.8937348">
        <ele>63.8</ele>
        <time>2013-03-10T10:00:07Z</time>
      </trkpt>
      <trkpt lat="59.1849682" lon="17.8937384">
        <ele>63</ele>
        <time>2013-03-10T10:00:08Z</time>
      </trkpt>
      <trkpt lat="59.1848387" lon="17.8937019">
        <ele>62.8</ele>
        <time>2013-03-10T10:00:11Z</time>
      </trkpt>
      <trkpt lat="59.1847978" lon="17.8936757">
        <ele>62.8</ele>
        <time>2013-03-10T10:00:12Z</time>
      </trkpt>
      <trkpt lat="59.1846921" lon="17.8936002">
        <ele>61.4</ele>
        <time>2013-03-10T10:00:14Z</time>
      </trkpt>
      <trkpt lat="59.1846359" lon="17.8935462">
        <ele>61</ele>
        <time>2013-03-10T10:00:15Z</time>
      </trkpt>
      <trkpt lat="59.1845791" lon="17.8935048">
        <ele>60</ele>
        <time>2013-03-10T10:00:16Z</time>
      </trkpt>
      <trkpt lat="59.1844787" lon="17.8934281">
        <ele>59.2</ele>
        <time>2013-03-10T10:00:18Z</time>
      </trkpt>
      <trkpt lat="59.1844346" lon="17.8933586">
        <ele>58.6</ele>
        <time>2013-03-10T10:00:19Z</time>
      </trkpt>
      <trkpt lat="59.1843032" lon="17.8931539">
        <ele>56.8</ele>
        <time>2013-03-10T10:00:22Z</time>
      </trkpt>
      <trkpt lat="59.1842645" lon="17.8931019">
        <ele>56.8</ele>
        <time>2013-03-10T10:00:23Z</time>
      </trkpt>
      <trkpt lat="59.1840983" lon="17.8929054">
        <ele>55.4</ele>
        <time>2013-03-10T10:00:27Z</time>
      </trkpt>
      <trkpt lat="59.1839446" lon="17.8928078">
        <ele>56</ele>
        <time>2013-03-10T10:00:30Z</time>
      </trkpt>
      <trkpt lat="59.1838984" lon="17.8927506">
        <ele>56.2</ele>
        <time>2013-03-10T10:00:31Z</time>
      </trkpt>
      <trkpt lat="59.1838209" lon="17.8923541">
        <ele>58</ele>
        <time>2013-03-10T10:00:36Z</time>
      </trkpt>
      <trkpt lat="59.1838051" lon="17.8920614">
        <ele>60.2</ele>
        <time>2013-03-10T10:00:39Z</time>
      </trkpt>
      <trkpt lat="59.1838025" lon="17.8919555">
        <ele>61.4</ele>
        <time>2013-03-10T10:00:40Z</time>
      </trkpt>
      <trkpt lat="59.1837752" lon="17.8915804">
        <ele>66</ele>
        <time>2013-03-10T10:00:44Z</time>
      </trkpt>
      <trkpt lat="59.1837914" lon="17.891368">
        <ele>66</ele>
        <time>2013-03-10T10:00:46Z</time>
      </trkpt>
      <trkpt lat="59.1838014" lon="17.8911824">
        <ele>66.2</ele>
        <time>2013-03-10T10:00:48Z</time>
      </trkpt>
      <trkpt lat="59.1837988" lon="17.8910856">
        <ele>67</ele>
        <time>2013-03-10T10:00:49Z</time>
      </trkpt>
      <trkpt lat="59.183765" lon="17.8907572">
        <ele>68.2</ele>
        <time>2013-03-10T10:00:53Z</time>
      </trkpt>
      <trkpt lat="59.1837731" lon="17.8904916">
        <ele>70.8</ele>
        <time>2013-03-10T10:00:57Z</time>
      </trkpt>
      <trkpt lat="59.1837789" lon="17.890379">
        <ele>71.6</ele>
        <time>2013-03-10T10:00:59Z</time>
      </trkpt>
      <trkpt lat="59.1837942" lon="17.8900085">
        <ele>74.8</ele>
        <time>2013-03-10T10:01:06Z</time>
      </trkpt>
      <trkpt lat="59.18376" lon="17.8896327">
        <ele>76.4</ele>
        <time>2013-03-10T10:01:12Z</time>
      </trkpt>
      <trkpt lat="59.1836966" lon="17.8892914">
        <ele>77.4</ele>
        <time>2013-03-10T10:01:18Z</time>
      </trkpt>
      <trkpt lat="59.1836234" lon="17.888924">
        <ele>76.8</ele>
        <time>2013-03-10T10:01:24Z</time>
      </trkpt>
      <trkpt lat="59.1835495" lon="17.8885561">
        <ele>75</ele>
        <time>2013-03-10T10:01:30Z</time>
      </trkpt>
      <trkpt lat="59.1835378" lon="17.8881526">
        <ele>75.2</ele>
        <time>2013-03-10T10:01:35Z</time>
      </trkpt>
      <trkpt lat="59.1835364" lon="17.8877253">
        <ele>74.2</ele>
        <time>2013-03-10T10:01:39Z</time>
      </trkpt>
      <trkpt lat="59.1834623" lon="17.8873879">
        <ele>71.8</ele>
        <time>2013-03-10T10:01:42Z</time>
      </trkpt>
      <trkpt lat="59.1834043" lon="17.8871512">
        <ele>70.6</ele>
        <time>2013-03-10T10:01:44Z</time>
      </trkpt>
      <trkpt lat="59.1833675" lon="17.8869895">
        <ele>69.8</ele>
        <time>2013-03-10T10:01:45Z</time>
      </trkpt>
      <trkpt lat="59.1832966" lon="17.8866147">
        <ele>68.8</ele>
        <time>2013-03-10T10:01:47Z</time>
      </trkpt>
      <trkpt lat="59.1832228" lon="17.8862505">
        <ele>69</ele>
        <time>2013-03-10T10:01:49Z</time>
      </trkpt>
      <trkpt lat="59.1831549" lon="17.8859076">
        <ele>69.6</ele>
        <time>2013-03-10T10:01:51Z</time>
      </trkpt>
      <trkpt lat="59.1830555" lon="17.8854208">
        <ele>69.4</ele>
        <time>2013-03-10T10:01:54Z</time>
      </trkpt>
      <trkpt lat="59.1830332" lon="17.8852581">
        <ele>69.4</ele>
        <time>2013-03-10T10:01:55Z</time>
      </trkpt>
      <trkpt lat="59.1830285" lon="17.884953">
        <ele>70.6</ele>
        <time>2013-03-10T10:01:57Z</time>
      </trkpt>
      <trkpt lat="59.1830739" lon="17.8845586">
        <ele>71.8</ele>
        <time>2013-03-10T10:02:00Z</time>
      </trkpt>
      <trkpt lat="59.1831163" lon="17.8842312">
        <ele>70.6</ele>
        <time>2013-03-10T10:02:03Z</time>
      </trkpt>
      <trkpt lat="59.1831399" lon="17.884132">
        <ele>70.2</ele>
        <time>2013-03-10T10:02:04Z</time>
      </trkpt>
      <trkpt lat="59.1832635" lon="17.8837895">
        <ele>71.6</ele>
        <time>2013-03-10T10:02:08Z</time>
      </trkpt>
      <trkpt lat="59.1832976" lon="17.8837044">
        <ele>71.6</ele>
        <time>2013-03-10T10:02:09Z</time>
      </trkpt>
      <trkpt lat="59.1834038" lon="17.8834869">
        <ele>71</ele>
        <time>2013-03-10T10:02:12Z</time>
      </trkpt>
      <trkpt lat="59.1834398" lon="17.8834247">
        <ele>70.2</ele>
        <time>2013-03-10T10:02:13Z</time>
      </trkpt>
      <trkpt lat="59.183583" lon="17.8832226">
        <ele>67.8</ele>
        <time>2013-03-10T10:02:17Z</time>
      </trkpt>
      <trkpt lat="59.1837058" lon="17.8829534">
        <ele>68.4</ele>
        <time>2013-03-10T10:02:21Z</time>
      </trkpt>
      <trkpt lat="59.1838336" lon="17.8827291">
        <ele>66.6</ele>
        <time>2013-03-10T10:02:25Z</time>
      </trkpt>
      <trkpt lat="59.1838691" lon="17.8826737">
        <ele>66.4</ele>
        <time>2013-03-10T10:02:26Z</time>
      </trkpt>
      <trkpt lat="59.1840232" lon="17.8823793">
        <ele>67</ele>
        <time>2013-03-10T10:02:31Z</time>
      </trkpt>
      <trkpt lat="59.1840617" lon="17.8820201">
        <ele>64</ele>
        <time>2013-03-10T10:02:35Z</time>
      </trkpt>
      <trkpt lat="59.1840335" lon="17.8818459">
        <ele>63.2</ele>
        <time>2013-03-10T10:02:37Z</time>
      </trkpt>
      <trkpt lat="59.1840138" lon="17.8817646">
        <ele>62.8</ele>
        <time>2013-03-10T10:02:38Z</time>
      </trkpt>
      <trkpt lat="59.1839872" lon="17.8816875">
        <ele>61.8</ele>
        <time>2013-03-10T10:02:39Z</time>
      </trkpt>
      <trkpt lat="59.1838348" lon="17.881351">
        <ele>58</ele>
        <time>2013-03-10T10:02:43Z</time>
      </trkpt>
      <trkpt lat="59.1837007" lon="17.8810117">
        <ele>58.2</ele>
        <time>2013-03-10T10:02:46Z</time>
      </trkpt>
      <trkpt lat="59.1835861" lon="17.8806734">
        <ele>58</ele>
        <time>2013-03-10T10:02:49Z</time>
      </trkpt>
      <trkpt lat="59.183488" lon="17.8803328">
        <ele>58.8</ele>
        <time>2013-03-10T10:02:52Z</time>
      </trkpt>
      <trkpt lat="59.1833503" lon="17.8799687">
        <ele>58.6</ele>
        <time>2013-03-10T10:02:56Z</time>
      </trkpt>
      <trkpt lat="59.1831808" lon="17.8798372">
        <ele>57</ele>
        <time>2013-03-10T10:02:59Z</time>
      </trkpt>
      <trkpt lat="59.1829919" lon="17.8797351">
        <ele>56</ele>
        <time>2013-03-10T10:03:02Z</time>
      </trkpt>
      <trkpt lat="59.1828141" lon="17.8795716">
        <ele>55.2</ele>
        <time>2013-03-10T10:03:05Z</time>
      </trkpt>
      <trkpt lat="59.1826566" lon="17.8793598">
        <ele>54.6</ele>
        <time>2013-03-10T10:03:08Z</time>
      </trkpt>
      <trkpt lat="59.1825455" lon="17.8790624">
        <ele>54</ele>
        <time>2013-03-10T10:03:11Z</time>
      </trkpt>
      <trkpt lat="59.1825164" lon="17.8789663">
        <ele>53.8</ele>
        <time>2013-03-10T10:03:12Z</time>
      </trkpt>
      <trkpt lat="59.1824697" lon="17.8787471">
        <ele>53.8</ele>
        <time>2013-03-10T10:03:14Z</time>
      </trkpt>
      <trkpt lat="59.1824021" lon="17.8783172">
        <ele>53.6</ele>
        <time>2013-03-10T10:03:18Z</time>
      </trkpt>
      <trkpt lat="59.1823667" lon="17.877991">
        <ele>52.6</ele>
        <time>2013-03-10T10:03:21Z</time>
      </trkpt>
      <trkpt lat="59.1823579" lon="17.8778886">
        <ele>53.2</ele>
        <time>2013-03-10T10:03:22Z</time>
      </trkpt>
      <trkpt lat="59.1823367" lon="17.8777013">
        <ele>53.8</ele>
        <time>2013-03-10T10:03:24Z</time>
      </trkpt>
      <trkpt lat="59.1823179" lon="17.8775203">
        <ele>54</ele>
        <time>2013-03-10T10:03:26Z</time>
      </trkpt>
      <trkpt lat="59.1822994" lon="17.8773474">
        <ele>54.8</ele>
        <time>2013-03-10T10:03:28Z</time>
      </trkpt>
      <trkpt lat="59.1822761" lon="17.8771699">
        <ele>55.2</ele>
        <time>2013-03-10T10:03:30Z</time>
      </trkpt>
      <trkpt lat="59.1822305" lon="17.8768922">
        <ele>56.8</ele>
        <time>2013-03-10T10:03:33Z</time>
      </trkpt>
      <trkpt lat="59.1822071" lon="17.8767899">
        <ele>57</ele>
        <time>2013-03-10T10:03:34Z</time>
      </trkpt>
      <trkpt lat="59.1821538" lon="17.8764901">
        <ele>57</ele>
        <time>2013-03-10T10:03:37Z</time>
      </trkpt>
      <trkpt lat="59.1821431" lon="17.8763835">
        <ele>57.2</ele>
        <time>2013-03-10T10:03:38Z</time>
      </trkpt>
      <trkpt lat="59.1820887" lon="17.8760577">
        <ele>57.8</ele>
        <time>2013-03-10T10:03:41Z</time>
      </trkpt>
      <trkpt lat="59.182036" lon="17.8755915">
        <ele>60.4</ele>
        <time>2013-03-10T10:03:45Z</time>
      </trkpt>
      <trkpt lat="59.1820347" lon="17.8754708">
        <ele>61.2</ele>
        <time>2013-03-10T10:03:46Z</time>
      </trkpt>
      <trkpt lat="59.1820492" lon="17.8752293">
        <ele>63.4</ele>
        <time>2013-03-10T10:03:48Z</time>
      </trkpt>
      <trkpt lat="59.1821" lon="17.8748112">
        <ele>66.8</ele>
        <time>2013-03-10T10:03:52Z</time>
      </trkpt>
      <trkpt lat="59.1821222" lon="17.8747051">
        <ele>67.4</ele>
        <time>2013-03-10T10:03:53Z</time>
      </trkpt>
      <trkpt lat="59.1821573" lon="17.874488">
        <ele>68.6</ele>
        <time>2013-03-10T10:03:55Z</time>
      </trkpt>
      <trkpt lat="59.1821952" lon="17.8741346">
        <ele>70.2</ele>
        <time>2013-03-10T10:03:58Z</time>
      </trkpt>
      <trkpt lat="59.1821746" lon="17.8737143">
        <ele>68.4</ele>
        <time>2013-03-10T10:04:01Z</time>
      </trkpt>
      <trkpt lat="59.1821387" lon="17.8732318">
        <ele>65.4</ele>
        <time>2013-03-10T10:04:04Z</time>
      </trkpt>
      <trkpt lat="59.1821008" lon="17.8727217">
        <ele>64.6</ele>
        <time>2013-03-10T10:04:07Z</time>
      </trkpt>
      <trkpt lat="59.1820185" lon="17.8722586">
        <ele>67.2</ele>
        <time>2013-03-10T10:04:10Z</time>
      </trkpt>
      <trkpt lat="59.1819238" lon="17.87194">
        <ele>63.4</ele>
        <time>2013-03-10T10:04:13Z</time>
      </trkpt>
      <trkpt lat="59.1817911" lon="17.8715499">
        <ele>62.4</ele>
        <time>2013-03-10T10:04:17Z</time>
      </trkpt>
      <trkpt lat="59.1817089" lon="17.8712763">
        <ele>59.4</ele>
        <time>2013-03-10T10:04:20Z</time>
      </trkpt>
      <trkpt lat="59.1816881" lon="17.8711769">
        <ele>58.6</ele>
        <time>2013-03-10T10:04:21Z</time>
      </trkpt>
      <trkpt lat="59.1815939" lon="17.8707719">
        <ele>54.8</ele>
        <time>2013-03-10T10:04:25Z</time>
      </trkpt>
      <trkpt lat="59.1815395" lon="17.8705776">
        <ele>52.2</ele>
        <time>2013-03-10T10:04:27Z</time>
      </trkpt>
      <trkpt lat="59.1814799" lon="17.8703638">
        <ele>50.4</ele>
        <time>2013-03-10T10:04:29Z</time>
      </trkpt>
      <trkpt lat="59.1814201" lon="17.8701678">
        <ele>48.2</ele>
        <time>2013-03-10T10:04:31Z</time>
      </trkpt>
      <trkpt lat="59.1813923" lon="17.8700549">
        <ele>47.6</ele>
        <time>2013-03-10T10:04:32Z</time>
      </trkpt>
      <trkpt lat="59.1813389" lon="17.8698509">
        <ele>45.2</ele>
        <time>2013-03-10T10:04:34Z</time>
      </trkpt>
      <trkpt lat="59.181311" lon="17.8697369">
        <ele>44.8</ele>
        <time>2013-03-10T10:04:35Z</time>
      </trkpt>
      <trkpt lat="59.1812214" lon="17.8694177">
        <ele>42</ele>
        <time>2013-03-10T10:04:38Z</time>
      </trkpt>
      <trkpt lat="59.181137" lon="17.8691345">
        <ele>40.4</ele>
        <time>2013-03-10T10:04:41Z</time>
      </trkpt>
      <trkpt lat="59.1811065" lon="17.86907">
        <ele>39.8</ele>
        <time>2013-03-10T10:04:42Z</time>
      </trkpt>
      <trkpt lat="59.1809724" lon="17.8691132">
        <ele>39.6</ele>
        <time>2013-03-10T10:04:46Z</time>
      </trkpt>
      <trkpt lat="59.180938" lon="17.86915">
        <ele>38.8</ele>
        <time>2013-03-10T10:04:47Z</time>
      </trkpt>
      <trkpt lat="59.1808037" lon="17.8692672">
        <ele>39.4</ele>
        <time>2013-03-10T10:04:51Z</time>
      </trkpt>
      <trkpt lat="59.1807676" lon="17.8692847">
        <ele>39.6</ele>
        <time>2013-03-10T10:04:52Z</time>
      </trkpt>
      <trkpt lat="59.1805765" lon="17.8694272">
        <ele>39.6</ele>
        <time>2013-03-10T10:04:57Z</time>
      </trkpt>
      <trkpt lat="59.1803924" lon="17.8695277">
        <ele>40.4</ele>
        <time>2013-03-10T10:05:02Z</time>
      </trkpt>
      <trkpt lat="59.1801932" lon="17.8696856">
        <ele>40.2</ele>
        <time>2013-03-10T10:05:08Z</time>
      </trkpt>
      <trkpt lat="59.1799896" lon="17.869756">
        <ele>37.2</ele>
        <time>2013-03-10T10:05:14Z</time>
      </trkpt>
      <trkpt lat="59.1798278" lon="17.8695887">
        <ele>37.2</ele>
        <time>2013-03-10T10:05:19Z</time>
      </trkpt>
      <trkpt lat="59.1796689" lon="17.8693883">
        <ele>37.4</ele>
        <time>2013-03-10T10:05:25Z</time>
      </trkpt>
      <trkpt lat="59.1794799" lon="17.8692786">
        <ele>37.6</ele>
        <time>2013-03-10T10:05:30Z</time>
      </trkpt>
      <trkpt lat="59.179297" lon="17.8691542">
        <ele>38</ele>
        <time>2013-03-10T10:05:35Z</time>
      </trkpt>
      <trkpt lat="59.1791178" lon="17.8689867">
        <ele>38.4</ele>
        <time>2013-03-10T10:05:40Z</time>
      </trkpt>
      <trkpt lat="59.178952" lon="17.8688174">
        <ele>39.6</ele>
        <time>2013-03-10T10:05:44Z</time>
      </trkpt>
      <trkpt lat="59.1787689" lon="17.8686837">
        <ele>42.8</ele>
        <time>2013-03-10T10:05:48Z</time>
      </trkpt>
      <trkpt lat="59.1787307" lon="17.8686558">
        <ele>43.6</ele>
        <time>2013-03-10T10:05:49Z</time>
      </trkpt>
      <trkpt lat="59.1786113" lon="17.8685955">
        <ele>47.2</ele>
        <time>2013-03-10T10:05:52Z</time>
      </trkpt>
      <trkpt lat="59.1785707" lon="17.8685656">
        <ele>47.8</ele>
        <time>2013-03-10T10:05:53Z</time>
      </trkpt>
      <trkpt lat="59.1784087" lon="17.8684397">
        <ele>50.4</ele>
        <time>2013-03-10T10:05:57Z</time>
      </trkpt>
      <trkpt lat="59.178377" lon="17.8684128">
        <ele>51</ele>
        <time>2013-03-10T10:05:58Z</time>
      </trkpt>
      <trkpt lat="59.178239" lon="17.8682806">
        <ele>52.8</ele>
        <time>2013-03-10T10:06:02Z</time>
      </trkpt>
      <trkpt lat="59.1782033" lon="17.8682493">
        <ele>53.4</ele>
        <time>2013-03-10T10:06:03Z</time>
      </trkpt>
      <trkpt lat="59.1780911" lon="17.8680902">
        <ele>55</ele>
        <time>2013-03-10T10:06:07Z</time>
      </trkpt>
      <trkpt lat="59.1780591" lon="17.868049">
        <ele>55.2</ele>
        <time>2013-03-10T10:06:08Z</time>
      </trkpt>
      <trkpt lat="59.1779352" lon="17.867931">
        <ele>55</ele>
        <time>2013-03-10T10:06:12Z</time>
      </trkpt>
      <trkpt lat="59.1778787" lon="17.8679457">
        <ele>55.2</ele>
        <time>2013-03-10T10:06:14Z</time>
      </trkpt>
      <trkpt lat="59.1777175" lon="17.8681005">
        <ele>55.6</ele>
        <time>2013-03-10T10:06:19Z</time>
      </trkpt>
      <trkpt lat="59.1775278" lon="17.8682662">
        <ele>57.6</ele>
        <time>2013-03-10T10:06:25Z</time>
      </trkpt>
      <trkpt lat="59.1773519" lon="17.8684134">
        <ele>56.2</ele>
        <time>2013-03-10T10:06:30Z</time>
      </trkpt>
      <trkpt lat="59.1771807" lon="17.8685775">
        <ele>56.8</ele>
        <time>2013-03-10T10:06:35Z</time>
      </trkpt>
      <trkpt lat="59.1770292" lon="17.8687552">
        <ele>53.2</ele>
        <time>2013-03-10T10:06:39Z</time>
      </trkpt>
      <trkpt lat="59.1769986" lon="17.8688041">
        <ele>52.8</ele>
        <time>2013-03-10T10:06:40Z</time>
      </trkpt>
      <trkpt lat="59.1768748" lon="17.8689987">
        <ele>51.8</ele>
        <time>2013-03-10T10:06:44Z</time>
      </trkpt>
      <trkpt lat="59.1767037" lon="17.8691768">
        <ele>51.4</ele>
        <time>2013-03-10T10:06:52Z</time>
      </trkpt>
      <trkpt lat="59.1765214" lon="17.8692188">
        <ele>50.2</ele>
        <time>2013-03-10T10:06:57Z</time>
      </trkpt>
      <trkpt lat="59.1763144" lon="17.8691881">
        <ele>48.8</ele>
        <time>2013-03-10T10:07:02Z</time>
      </trkpt>
      <trkpt lat="59.1761008" lon="17.86918">
        <ele>48</ele>
        <time>2013-03-10T10:07:07Z</time>
      </trkpt>
      <trkpt lat="59.1760247" lon="17.869124">
        <ele>47.4</ele>
        <time>2013-03-10T10:07:09Z</time>
      </trkpt>
      <trkpt lat="59.1759046" lon="17.8690591">
        <ele>47</ele>
        <time>2013-03-10T10:07:12Z</time>
      </trkpt>
      <trkpt lat="59.1757557" lon="17.8690051">
        <ele>49.2</ele>
        <time>2013-03-10T10:07:15Z</time>
      </trkpt>
      <trkpt lat="59.1757098" lon="17.8689806">
        <ele>49.4</ele>
        <time>2013-03-10T10:07:16Z</time>
      </trkpt>
      <trkpt lat="59.1755377" lon="17.8688221">
        <ele>51</ele>
        <time>2013-03-10T10:07:20Z</time>
      </trkpt>
      <trkpt lat="59.1753551" lon="17.8686553">
        <ele>51.8</ele>
        <time>2013-03-10T10:07:24Z</time>
      </trkpt>
      <trkpt lat="59.175274" lon="17.8686112">
        <ele>51.4</ele>
        <time>2013-03-10T10:07:26Z</time>
      </trkpt>
      <trkpt lat="59.1751628" lon="17.8685967">
        <ele>51.6</ele>
        <time>2013-03-10T10:07:29Z</time>
      </trkpt>
      <trkpt lat="59.1751216" lon="17.868601">
        <ele>50.8</ele>
        <time>2013-03-10T10:07:30Z</time>
      </trkpt>
      <trkpt lat="59.1749623" lon="17.8686292">
        <ele>51.6</ele>
        <time>2013-03-10T10:07:34Z</time>
      </trkpt>
      <trkpt lat="59.174772" lon="17.8685987">
        <ele>51.8</ele>
        <time>2013-03-10T10:07:39Z</time>
      </trkpt>
      <trkpt lat="59.1745762" lon="17.8685895">
        <ele>52</ele>
        <time>2013-03-10T10:07:44Z</time>
      </trkpt>
      <trkpt lat="59.1743866" lon="17.8686912">
        <ele>52.4</ele>
        <time>2013-03-10T10:07:49Z</time>
      </trkpt>
      <trkpt lat="59.1742191" lon="17.868779">
        <ele>51.8</ele>
        <time>2013-03-10T10:07:53Z</time>
      </trkpt>
      <trkpt lat="59.1740115" lon="17.868863">
        <ele>51.4</ele>
        <time>2013-03-10T10:07:58Z</time>
      </trkpt>
      <trkpt lat="59.1739315" lon="17.8689154">
        <ele>51</ele>
        <time>2013-03-10T10:08:00Z</time>
      </trkpt>
      <trkpt lat="59.1738533" lon="17.8689743">
        <ele>51.2</ele>
        <time>2013-03-10T10:08:02Z</time>
      </trkpt>
      <trkpt lat="59.1738123" lon="17.8690025">
        <ele>51.4</ele>
        <time>2013-03-10T10:08:03Z</time>
      </trkpt>
      <trkpt lat="59.1736632" lon="17.8691023">
        <ele>52.4</ele>
        <time>2013-03-10T10:08:07Z</time>
      </trkpt>
      <trkpt lat="59.1736283" lon="17.8691268">
        <ele>52.6</ele>
        <time>2013-03-10T10:08:08Z</time>
      </trkpt>
      <trkpt lat="59.1734213" lon="17.8692588">
        <ele>53.8</ele>
        <time>2013-03-10T10:08:13Z</time>
      </trkpt>
      <trkpt lat="59.1732289" lon="17.86928">
        <ele>53.6</ele>
        <time>2013-03-10T10:08:17Z</time>
      </trkpt>
      <trkpt lat="59.1731862" lon="17.8693026">
        <ele>54</ele>
        <time>2013-03-10T10:08:18Z</time>
      </trkpt>
      <trkpt lat="59.1730856" lon="17.8695487">
        <ele>55</ele>
        <time>2013-03-10T10:08:23Z</time>
      </trkpt>
      <trkpt lat="59.1729751" lon="17.869855">
        <ele>58</ele>
        <time>2013-03-10T10:08:29Z</time>
      </trkpt>
      <trkpt lat="59.172842" lon="17.8701363">
        <ele>59.8</ele>
        <time>2013-03-10T10:08:34Z</time>
      </trkpt>
      <trkpt lat="59.172696" lon="17.8703642">
        <ele>63.8</ele>
        <time>2013-03-10T10:08:41Z</time>
      </trkpt>
      <trkpt lat="59.172686" lon="17.870384">
        <ele>64</ele>
        <time>2013-03-10T10:08:42Z</time>
      </trkpt>
      <trkpt lat="59.1726375" lon="17.8704585">
        <ele>64.6</ele>
        <time>2013-03-10T10:08:45Z</time>
      </trkpt>
      <trkpt lat="59.1725199" lon="17.8705973">
        <ele>64.4</ele>
        <time>2013-03-10T10:08:50Z</time>
      </trkpt>
      <trkpt lat="59.172372" lon="17.8707422">
        <ele>61</ele>
        <time>2013-03-10T10:08:53Z</time>
      </trkpt>
      <trkpt lat="59.1722262" lon="17.87099">
        <ele>60</ele>
        <time>2013-03-10T10:08:56Z</time>
      </trkpt>
      <trkpt lat="59.1720771" lon="17.8713431">
        <ele>56.2</ele>
        <time>2013-03-10T10:09:00Z</time>
      </trkpt>
      <trkpt lat="59.1719771" lon="17.8715656">
        <ele>55.4</ele>
        <time>2013-03-10T10:09:03Z</time>
      </trkpt>
      <trkpt lat="59.1719401" lon="17.8716224">
        <ele>55.4</ele>
        <time>2013-03-10T10:09:04Z</time>
      </trkpt>
      <trkpt lat="59.1719056" lon="17.8716651">
        <ele>55.4</ele>
        <time>2013-03-10T10:09:05Z</time>
      </trkpt>
      <trkpt lat="59.1718268" lon="17.87176">
        <ele>53.2</ele>
        <time>2013-03-10T10:09:07Z</time>
      </trkpt>
      <trkpt lat="59.1717863" lon="17.871821">
        <ele>52.6</ele>
        <time>2013-03-10T10:09:08Z</time>
      </trkpt>
      <trkpt lat="59.1716588" lon="17.8720621">
        <ele>51.6</ele>
        <time>2013-03-10T10:09:11Z</time>
      </trkpt>
      <trkpt lat="59.1714793" lon="17.8723416">
        <ele>49</ele>
        <time>2013-03-10T10:09:15Z</time>
      </trkpt>
      <trkpt lat="59.1713975" lon="17.8724791">
        <ele>49</ele>
        <time>2013-03-10T10:09:17Z</time>
      </trkpt>
      <trkpt lat="59.1713166" lon="17.8726088">
        <ele>50.6</ele>
        <time>2013-03-10T10:09:19Z</time>
      </trkpt>
      <trkpt lat="59.1712781" lon="17.8726699">
        <ele>51</ele>
        <time>2013-03-10T10:09:20Z</time>
      </trkpt>
      <trkpt lat="59.171162" lon="17.8728705">
        <ele>51.6</ele>
        <time>2013-03-10T10:09:23Z</time>
      </trkpt>
      <trkpt lat="59.1711223" lon="17.8729243">
        <ele>52</ele>
        <time>2013-03-10T10:09:24Z</time>
      </trkpt>
      <trkpt lat="59.1709818" lon="17.8730751">
        <ele>51.4</ele>
        <time>2013-03-10T10:09:28Z</time>
      </trkpt>
      <trkpt lat="59.1708628" lon="17.873325">
        <ele>52.8</ele>
        <time>2013-03-10T10:09:33Z</time>
      </trkpt>
      <trkpt lat="59.1708137" lon="17.8734904">
        <ele>53</ele>
        <time>2013-03-10T10:09:35Z</time>
      </trkpt>
      <trkpt lat="59.1707158" lon="17.8735728">
        <ele>52.6</ele>
        <time>2013-03-10T10:09:38Z</time>
      </trkpt>
      <trkpt lat="59.1705825" lon="17.8734475">
        <ele>52.4</ele>
        <time>2013-03-10T10:09:42Z</time>
      </trkpt>
      <trkpt lat="59.1705487" lon="17.8734272">
        <ele>52.6</ele>
        <time>2013-03-10T10:09:43Z</time>
      </trkpt>
      <trkpt lat="59.1704163" lon="17.8733267">
        <ele>53.6</ele>
        <time>2013-03-10T10:09:47Z</time>
      </trkpt>
      <trkpt lat="59.1703846" lon="17.8732972">
        <ele>53.2</ele>
        <time>2013-03-10T10:09:48Z</time>
      </trkpt>
      <trkpt lat="59.1701986" lon="17.8731615">
        <ele>53.4</ele>
        <time>2013-03-10T10:09:53Z</time>
      </trkpt>
      <trkpt lat="59.170028" lon="17.8730278">
        <ele>55.2</ele>
        <time>2013-03-10T10:09:58Z</time>
      </trkpt>
      <trkpt lat="59.1698516" lon="17.872904">
        <ele>57.2</ele>
        <time>2013-03-10T10:10:03Z</time>
      </trkpt>
      <trkpt lat="59.1696848" lon="17.8727197">
        <ele>58.6</ele>
        <time>2013-03-10T10:10:08Z</time>
      </trkpt>
      <trkpt lat="59.1695107" lon="17.8724944">
        <ele>59</ele>
        <time>2013-03-10T10:10:13Z</time>
      </trkpt>
      <trkpt lat="59.1694689" lon="17.8724628">
        <ele>59.4</ele>
        <time>2013-03-10T10:10:14Z</time>
      </trkpt>
      <trkpt lat="59.1693035" lon="17.8724061">
        <ele>62.2</ele>
        <time>2013-03-10T10:10:19Z</time>
      </trkpt>
      <trkpt lat="59.1691305" lon="17.8725321">
        <ele>64.6</ele>
        <time>2013-03-10T10:10:26Z</time>
      </trkpt>
      <trkpt lat="59.1689366" lon="17.8724904">
        <ele>67</ele>
        <time>2013-03-10T10:10:33Z</time>
      </trkpt>
      <trkpt lat="59.1687669" lon="17.8722537">
        <ele>67.8</ele>
        <time>2013-03-10T10:10:39Z</time>
      </trkpt>
      <trkpt lat="59.1685595" lon="17.8721185">
        <ele>66.6</ele>
        <time>2013-03-10T10:10:44Z</time>
      </trkpt>
      <trkpt lat="59.1684747" lon="17.8720788">
        <ele>65.6</ele>
        <time>2013-03-10T10:10:46Z</time>
      </trkpt>
      <trkpt lat="59.1683878" lon="17.8719947">
        <ele>65</ele>
        <time>2013-03-10T10:10:48Z</time>
      </trkpt>
      <trkpt lat="59.1682665" lon="17.8717695">
        <ele>65</ele>
        <time>2013-03-10T10:10:52Z</time>
      </trkpt>
      <trkpt lat="59.1682435" lon="17.8717082">
        <ele>65.4</ele>
        <time>2013-03-10T10:10:53Z</time>
      </trkpt>
      <trkpt lat="59.1682016" lon="17.871594">
        <ele>65.2</ele>
        <time>2013-03-10T10:10:55Z</time>
      </trkpt>
      <trkpt lat="59.1680775" lon="17.8714692">
        <ele>65.4</ele>
        <time>2013-03-10T10:10:59Z</time>
      </trkpt>
      <trkpt lat="59.1680002" lon="17.8714469">
        <ele>65.4</ele>
        <time>2013-03-10T10:11:01Z</time>
      </trkpt>
      <trkpt lat="59.1678923" lon="17.8714178">
        <ele>65.8</ele>
        <time>2013-03-10T10:11:04Z</time>
      </trkpt>
      <trkpt lat="59.1677045" lon="17.8714924">
        <ele>68.6</ele>
        <time>2013-03-10T10:11:10Z</time>
      </trkpt>
      <trkpt lat="59.1675407" lon="17.871672">
        <ele>70.2</ele>
        <time>2013-03-10T10:11:16Z</time>
      </trkpt>
      <trkpt lat="59.1673569" lon="17.8717681">
        <ele>74.2</ele>
        <time>2013-03-10T10:11:22Z</time>
      </trkpt>
      <trkpt lat="59.1671651" lon="17.8716804">
        <ele>78.8</ele>
        <time>2013-03-10T10:11:28Z</time>
      </trkpt>
      <trkpt lat="59.166963" lon="17.8715919">
        <ele>80.4</ele>
        <time>2013-03-10T10:11:33Z</time>
      </trkpt>
      <trkpt lat="59.1667579" lon="17.8716277">
        <ele>78.8</ele>
        <time>2013-03-10T10:11:38Z</time>
      </trkpt>
      <trkpt lat="59.1667249" lon="17.8716585">
        <ele>78.4</ele>
        <time>2013-03-10T10:11:39Z</time>
      </trkpt>
      <trkpt lat="59.1665913" lon="17.8718404">
        <ele>78</ele>
        <time>2013-03-10T10:11:44Z</time>
      </trkpt>
      <trkpt lat="59.1665422" lon="17.8719194">
        <ele>78.6</ele>
        <time>2013-03-10T10:11:46Z</time>
      </trkpt>
      <trkpt lat="59.1664353" lon="17.8720068">
        <ele>80</ele>
        <time>2013-03-10T10:11:49Z</time>
      </trkpt>
      <trkpt lat="59.1662321" lon="17.8720729">
        <ele>80.6</ele>
        <time>2013-03-10T10:11:54Z</time>
      </trkpt>
      <trkpt lat="59.1660375" lon="17.8721508">
        <ele>83.2</ele>
        <time>2013-03-10T10:11:59Z</time>
      </trkpt>
      <trkpt lat="59.1658684" lon="17.8722249">
        <ele>83.6</ele>
        <time>2013-03-10T10:12:04Z</time>
      </trkpt>
      <trkpt lat="59.165694" lon="17.8723487">
        <ele>84.4</ele>
        <time>2013-03-10T10:12:09Z</time>
      </trkpt>
      <trkpt lat="59.1654965" lon="17.8724135">
        <ele>84.6</ele>
        <time>2013-03-10T10:12:14Z</time>
      </trkpt>
      <trkpt lat="59.1652846" lon="17.8724319">
        <ele>84.4</ele>
        <time>2013-03-10T10:12:19Z</time>
      </trkpt>
      <trkpt lat="59.1651282" lon="17.8724311">
        <ele>84.6</ele>
        <time>2013-03-10T10:12:23Z</time>
      </trkpt>
      <trkpt lat="59.1650854" lon="17.8724151">
        <ele>84.6</ele>
        <time>2013-03-10T10:12:24Z</time>
      </trkpt>
      <trkpt lat="59.1649176" lon="17.8723483">
        <ele>84.2</ele>
        <time>2013-03-10T10:12:27Z</time>
      </trkpt>
      <trkpt lat="59.1646932" lon="17.8723739">
        <ele>83.8</ele>
        <time>2013-03-10T10:12:31Z</time>
      </trkpt>
      <trkpt lat="59.1646011" lon="17.8724285">
        <ele>83.6</ele>
        <time>2013-03-10T10:12:33Z</time>
      </trkpt>
      <trkpt lat="59.1644933" lon="17.8725718">
        <ele>84.6</ele>
        <time>2013-03-10T10:12:36Z</time>
      </trkpt>
      <trkpt lat="59.1644621" lon="17.8726241">
        <ele>85</ele>
        <time>2013-03-10T10:12:37Z</time>
      </trkpt>
      <trkpt lat="59.1644125" lon="17.8727238">
        <ele>85.6</ele>
        <time>2013-03-10T10:12:39Z</time>
      </trkpt>
      <trkpt lat="59.1643648" lon="17.8728346">
        <ele>85.2</ele>
        <time>2013-03-10T10:12:41Z</time>
      </trkpt>
      <trkpt lat="59.1642188" lon="17.8731299">
        <ele>86.8</ele>
        <time>2013-03-10T10:13:07Z</time>
      </trkpt>
      <trkpt lat="59.1641723" lon="17.8732657">
        <ele>86.2</ele>
        <time>2013-03-10T10:13:10Z</time>
      </trkpt>
      <trkpt lat="59.1640746" lon="17.8735743">
        <ele>84.6</ele>
        <time>2013-03-10T10:13:14Z</time>
      </trkpt>
      <trkpt lat="59.1640007" lon="17.873888">
        <ele>82.2</ele>
        <time>2013-03-10T10:13:17Z</time>
      </trkpt>
      <trkpt lat="59.1639156" lon="17.8742791">
        <ele>76.4</ele>
        <time>2013-03-10T10:13:20Z</time>
      </trkpt>
      <trkpt lat="59.163801" lon="17.8745921">
        <ele>73</ele>
        <time>2013-03-10T10:13:22Z</time>
      </trkpt>
      <trkpt lat="59.1636931" lon="17.8749175">
        <ele>71.2</ele>
        <time>2013-03-10T10:13:24Z</time>
      </trkpt>
      <trkpt lat="59.1636391" lon="17.8753901">
        <ele>68.2</ele>
        <time>2013-03-10T10:13:27Z</time>
      </trkpt>
      <trkpt lat="59.1636327" lon="17.8755354">
        <ele>67.6</ele>
        <time>2013-03-10T10:13:28Z</time>
      </trkpt>
      <trkpt lat="59.1636193" lon="17.8757873">
        <ele>67.8</ele>
        <time>2013-03-10T10:13:30Z</time>
      </trkpt>
      <trkpt lat="59.1636138" lon="17.8759036">
        <ele>68.8</ele>
        <time>2013-03-10T10:13:31Z</time>
      </trkpt>
      <trkpt lat="59.1636076" lon="17.8762447">
        <ele>68.6</ele>
        <time>2013-03-10T10:13:34Z</time>
      </trkpt>
      <trkpt lat="59.163592" lon="17.8765068">
        <ele>66.8</ele>
        <time>2013-03-10T10:13:37Z</time>
      </trkpt>
      <trkpt lat="59.1635773" lon="17.8766745">
        <ele>66</ele>
        <time>2013-03-10T10:13:39Z</time>
      </trkpt>
      <trkpt lat="59.1635652" lon="17.8767393">
        <ele>65.6</ele>
        <time>2013-03-10T10:13:40Z</time>
      </trkpt>
      <trkpt lat="59.1634152" lon="17.8767814">
        <ele>65.8</ele>
        <time>2013-03-10T10:13:44Z</time>
      </trkpt>
      <trkpt lat="59.1632808" lon="17.8766666">
        <ele>67.4</ele>
        <time>2013-03-10T10:13:48Z</time>
      </trkpt>
      <trkpt lat="59.1632346" lon="17.8765991">
        <ele>69</ele>
        <time>2013-03-10T10:13:50Z</time>
      </trkpt>
      <trkpt lat="59.1632241" lon="17.8765512">
        <ele>69.8</ele>
        <time>2013-03-10T10:13:51Z</time>
      </trkpt>
      <trkpt lat="59.1631909" lon="17.8762395">
        <ele>69.6</ele>
        <time>2013-03-10T10:13:57Z</time>
      </trkpt>
      <trkpt lat="59.1632242" lon="17.8758555">
        <ele>70.4</ele>
        <time>2013-03-10T10:14:02Z</time>
      </trkpt>
      <trkpt lat="59.1632096" lon="17.8754485">
        <ele>72.8</ele>
        <time>2013-03-10T10:14:07Z</time>
      </trkpt>
      <trkpt lat="59.1631822" lon="17.8751908">
        <ele>74</ele>
        <time>2013-03-10T10:14:10Z</time>
      </trkpt>
      <trkpt lat="59.1631641" lon="17.8750475">
        <ele>75.4</ele>
        <time>2013-03-10T10:14:12Z</time>
      </trkpt>
      <trkpt lat="59.1631556" lon="17.8749072">
        <ele>76</ele>
        <time>2013-03-10T10:14:14Z</time>
      </trkpt>
      <trkpt lat="59.1631686" lon="17.874701">
        <ele>76.8</ele>
        <time>2013-03-10T10:14:17Z</time>
      </trkpt>
      <trkpt lat="59.163182" lon="17.8742824">
        <ele>76</ele>
        <time>2013-03-10T10:14:22Z</time>
      </trkpt>
      <trkpt lat="59.1631927" lon="17.8741089">
        <ele>74.6</ele>
        <time>2013-03-10T10:14:24Z</time>
      </trkpt>
      <trkpt lat="59.1631999" lon="17.8738634">
        <ele>74.2</ele>
        <time>2013-03-10T10:14:27Z</time>
      </trkpt>
      <trkpt lat="59.1631874" lon="17.8736852">
        <ele>74</ele>
        <time>2013-03-10T10:14:30Z</time>
      </trkpt>
      <trkpt lat="59.1631578" lon="17.8734835">
        <ele>75</ele>
        <time>2013-03-10T10:14:33Z</time>
      </trkpt>
      <trkpt lat="59.1630874" lon="17.8731713">
        <ele>75.2</ele>
        <time>2013-03-10T10:14:37Z</time>
      </trkpt>
      <trkpt lat="59.1630906" lon="17.8728268">
        <ele>75.4</ele>
        <time>2013-03-10T10:14:41Z</time>
      </trkpt>
      <trkpt lat="59.1630942" lon="17.8727336">
        <ele>75.2</ele>
        <time>2013-03-10T10:14:42Z</time>
      </trkpt>
      <trkpt lat="59.1630978" lon="17.872287">
        <ele>76.6</ele>
        <time>2013-03-10T10:14:47Z</time>
      </trkpt>
      <trkpt lat="59.1631398" lon="17.8718587">
        <ele>77</ele>
        <time>2013-03-10T10:14:52Z</time>
      </trkpt>
      <trkpt lat="59.1632257" lon="17.8715334">
        <ele>76.8</ele>
        <time>2013-03-10T10:14:56Z</time>
      </trkpt>
      <trkpt lat="59.1632906" lon="17.8712006">
        <ele>78.4</ele>
        <time>2013-03-10T10:15:00Z</time>
      </trkpt>
      <trkpt lat="59.1633128" lon="17.8710528">
        <ele>77.6</ele>
        <time>2013-03-10T10:15:02Z</time>
      </trkpt>
      <trkpt lat="59.1633159" lon="17.8708004">
        <ele>78.6</ele>
        <time>2013-03-10T10:15:05Z</time>
      </trkpt>
      <trkpt lat="59.1633949" lon="17.8705451">
        <ele>77.8</ele>
        <time>2013-03-10T10:15:09Z</time>
      </trkpt>
      <trkpt lat="59.1634299" lon="17.8705006">
        <ele>78</ele>
        <time>2013-03-10T10:15:10Z</time>
      </trkpt>
      <trkpt lat="59.1635099" lon="17.8704485">
        <ele>75.4</ele>
        <time>2013-03-10T10:15:12Z</time>
      </trkpt>
      <trkpt lat="59.1635812" lon="17.8702939">
        <ele>75.6</ele>
        <time>2013-03-10T10:15:15Z</time>
      </trkpt>
      <trkpt lat="59.1635977" lon="17.870074">
        <ele>76</ele>
        <time>2013-03-10T10:15:18Z</time>
      </trkpt>
      <trkpt lat="59.163593" lon="17.8699243">
        <ele>76</ele>
        <time>2013-03-10T10:15:20Z</time>
      </trkpt>
      <trkpt lat="59.1635626" lon="17.869502">
        <ele>73.6</ele>
        <time>2013-03-10T10:15:25Z</time>
      </trkpt>
      <trkpt lat="59.1635645" lon="17.8694121">
        <ele>74.4</ele>
        <time>2013-03-10T10:15:26Z</time>
      </trkpt>
      <trkpt lat="59.1635758" lon="17.8690972">
        <ele>75.2</ele>
        <time>2013-03-10T10:15:30Z</time>
      </trkpt>
      <trkpt lat="59.1636085" lon="17.8687276">
        <ele>78</ele>
        <time>2013-03-10T10:15:35Z</time>
      </trkpt>
      <trkpt lat="59.1636136" lon="17.8686543">
        <ele>78.8</ele>
        <time>2013-03-10T10:15:36Z</time>
      </trkpt>
      <trkpt lat="59.1636369" lon="17.8683391">
        <ele>79.6</ele>
        <time>2013-03-10T10:15:40Z</time>
      </trkpt>
      <trkpt lat="59.163663" lon="17.8679504">
        <ele>79.6</ele>
        <time>2013-03-10T10:15:44Z</time>
      </trkpt>
      <trkpt lat="59.1636665" lon="17.8677835">
        <ele>81</ele>
        <time>2013-03-10T10:15:46Z</time>
      </trkpt>
      <trkpt lat="59.163661" lon="17.8675431">
        <ele>79.6</ele>
        <time>2013-03-10T10:15:49Z</time>
      </trkpt>
      <trkpt lat="59.1636273" lon="17.8672036">
        <ele>80.8</ele>
        <time>2013-03-10T10:15:53Z</time>
      </trkpt>
      <trkpt lat="59.1636281" lon="17.8671271">
        <ele>81.6</ele>
        <time>2013-03-10T10:15:54Z</time>
      </trkpt>
      <trkpt lat="59.1636955" lon="17.8668519">
        <ele>84.2</ele>
        <time>2013-03-10T10:15:59Z</time>
      </trkpt>
      <trkpt lat="59.1638152" lon="17.8665723">
        <ele>86</ele>
        <time>2013-03-10T10:16:06Z</time>
      </trkpt>
      <trkpt lat="59.1639809" lon="17.8663679">
        <ele>87.2</ele>
        <time>2013-03-10T10:16:12Z</time>
      </trkpt>
      <trkpt lat="59.164126" lon="17.8661826">
        <ele>87.2</ele>
        <time>2013-03-10T10:16:17Z</time>
      </trkpt>
      <trkpt lat="59.1642712" lon="17.8659521">
        <ele>87.6</ele>
        <time>2013-03-10T10:16:22Z</time>
      </trkpt>
      <trkpt lat="59.1644255" lon="17.8656954">
        <ele>86.6</ele>
        <time>2013-03-10T10:16:28Z</time>
      </trkpt>
      <trkpt lat="59.1645917" lon="17.8654359">
        <ele>86</ele>
        <time>2013-03-10T10:16:33Z</time>
      </trkpt>
      <trkpt lat="59.1647327" lon="17.8652018">
        <ele>85.6</ele>
        <time>2013-03-10T10:16:37Z</time>
      </trkpt>
      <trkpt lat="59.164887" lon="17.8649521">
        <ele>84.4</ele>
        <time>2013-03-10T10:16:41Z</time>
      </trkpt>
      <trkpt lat="59.1650036" lon="17.8647784">
        <ele>83.8</ele>
        <time>2013-03-10T10:16:44Z</time>
      </trkpt>
      <trkpt lat="59.165041" lon="17.8647187">
        <ele>83.6</ele>
        <time>2013-03-10T10:16:45Z</time>
      </trkpt>
      <trkpt lat="59.1650785" lon="17.8646552">
        <ele>83</ele>
        <time>2013-03-10T10:16:46Z</time>
      </trkpt>
      <trkpt lat="59.1652168" lon="17.8644647">
        <ele>81.8</ele>
        <time>2013-03-10T10:16:49Z</time>
      </trkpt>
      <trkpt lat="59.1653782" lon="17.8642347">
        <ele>77.6</ele>
        <time>2013-03-10T10:16:53Z</time>
      </trkpt>
      <trkpt lat="59.1655128" lon="17.8640492">
        <ele>76.8</ele>
        <time>2013-03-10T10:16:56Z</time>
      </trkpt>
      <trkpt lat="59.1655525" lon="17.8639733">
        <ele>77.6</ele>
        <time>2013-03-10T10:16:57Z</time>
      </trkpt>
      <trkpt lat="59.1656949" lon="17.8636736">
        <ele>77.8</ele>
        <time>2013-03-10T10:17:01Z</time>
      </trkpt>
      <trkpt lat="59.1658208" lon="17.8633891">
        <ele>78.2</ele>
        <time>2013-03-10T10:17:05Z</time>
      </trkpt>
      <trkpt lat="59.1659572" lon="17.8631297">
        <ele>79.2</ele>
        <time>2013-03-10T10:17:09Z</time>
      </trkpt>
      <trkpt lat="59.1659882" lon="17.8630541">
        <ele>79.6</ele>
        <time>2013-03-10T10:17:10Z</time>
      </trkpt>
      <trkpt lat="59.1660827" lon="17.8627981">
        <ele>79.4</ele>
        <time>2013-03-10T10:17:13Z</time>
      </trkpt>
      <trkpt lat="59.1662084" lon="17.8626177">
        <ele>78.6</ele>
        <time>2013-03-10T10:17:16Z</time>
      </trkpt>
      <trkpt lat="59.16625" lon="17.8625744">
        <ele>79.2</ele>
        <time>2013-03-10T10:17:17Z</time>
      </trkpt>
      <trkpt lat="59.1663235" lon="17.8624801">
        <ele>79.8</ele>
        <time>2013-03-10T10:17:19Z</time>
      </trkpt>
      <trkpt lat="59.1664284" lon="17.8623102">
        <ele>79</ele>
        <time>2013-03-10T10:17:22Z</time>
      </trkpt>
      <trkpt lat="59.1664611" lon="17.8622422">
        <ele>78.2</ele>
        <time>2013-03-10T10:17:23Z</time>
      </trkpt>
      <trkpt lat="59.1665551" lon="17.8620103">
        <ele>76</ele>
        <time>2013-03-10T10:17:26Z</time>
      </trkpt>
      <trkpt lat="59.1665932" lon="17.8619409">
        <ele>75.8</ele>
        <time>2013-03-10T10:17:27Z</time>
      </trkpt>
      <trkpt lat="59.1667358" lon="17.861844">
        <ele>74.2</ele>
        <time>2013-03-10T10:17:30Z</time>
      </trkpt>
      <trkpt lat="59.1669009" lon="17.8616441">
        <ele>74.6</ele>
        <time>2013-03-10T10:17:34Z</time>
      </trkpt>
      <trkpt lat="59.1669172" lon="17.8612113">
        <ele>74.4</ele>
        <time>2013-03-10T10:17:39Z</time>
      </trkpt>
      <trkpt lat="59.166901" lon="17.8608765">
        <ele>74.4</ele>
        <time>2013-03-10T10:17:42Z</time>
      </trkpt>
      <trkpt lat="59.1668934" lon="17.8607523">
        <ele>74.2</ele>
        <time>2013-03-10T10:17:43Z</time>
      </trkpt>
      <trkpt lat="59.1668776" lon="17.8605184">
        <ele>73</ele>
        <time>2013-03-10T10:17:45Z</time>
      </trkpt>
      <trkpt lat="59.1668537" lon="17.8602839">
        <ele>72.2</ele>
        <time>2013-03-10T10:17:47Z</time>
      </trkpt>
      <trkpt lat="59.1668372" lon="17.860166">
        <ele>72.2</ele>
        <time>2013-03-10T10:17:48Z</time>
      </trkpt>
      <trkpt lat="59.1668197" lon="17.8597847">
        <ele>71.6</ele>
        <time>2013-03-10T10:17:51Z</time>
      </trkpt>
      <trkpt lat="59.1668233" lon="17.8594123">
        <ele>70</ele>
        <time>2013-03-10T10:17:54Z</time>
      </trkpt>
      <trkpt lat="59.1668259" lon="17.8592912">
        <ele>70.2</ele>
        <time>2013-03-10T10:17:55Z</time>
      </trkpt>
      <trkpt lat="59.1668249" lon="17.8590561">
        <ele>69.8</ele>
        <time>2013-03-10T10:17:57Z</time>
      </trkpt>
      <trkpt lat="59.1668192" lon="17.858685">
        <ele>69.2</ele>
        <time>2013-03-10T10:18:00Z</time>
      </trkpt>
      <trkpt lat="59.1668196" lon="17.858422">
        <ele>69.4</ele>
        <time>2013-03-10T10:18:02Z</time>
      </trkpt>
      <trkpt lat="59.16683" lon="17.8582857">
        <ele>69.6</ele>
        <time>2013-03-10T10:18:03Z</time>
      </trkpt>
      <trkpt lat="59.1669164" lon="17.8578745">
        <ele>69.8</ele>
        <time>2013-03-10T10:18:06Z</time>
      </trkpt>
      <trkpt lat="59.1670106" lon="17.8576376">
        <ele>69.8</ele>
        <time>2013-03-10T10:18:08Z</time>
      </trkpt>
      <trkpt lat="59.1670538" lon="17.8575258">
        <ele>69.6</ele>
        <time>2013-03-10T10:18:09Z</time>
      </trkpt>
      <trkpt lat="59.1670895" lon="17.8574103">
        <ele>69.6</ele>
        <time>2013-03-10T10:18:10Z</time>
      </trkpt>
      <trkpt lat="59.167123" lon="17.8571633">
        <ele>69.4</ele>
        <time>2013-03-10T10:18:12Z</time>
      </trkpt>
      <trkpt lat="59.1671285" lon="17.8567918">
        <ele>69.8</ele>
        <time>2013-03-10T10:18:15Z</time>
      </trkpt>
      <trkpt lat="59.1671352" lon="17.8566634">
        <ele>69.6</ele>
        <time>2013-03-10T10:18:16Z</time>
      </trkpt>
      <trkpt lat="59.1671757" lon="17.8564142">
        <ele>69.2</ele>
        <time>2013-03-10T10:18:18Z</time>
      </trkpt>
      <trkpt lat="59.1672196" lon="17.8562064">
        <ele>68.2</ele>
        <time>2013-03-10T10:18:20Z</time>
      </trkpt>
      <trkpt lat="59.1672565" lon="17.8560255">
        <ele>68</ele>
        <time>2013-03-10T10:18:22Z</time>
      </trkpt>
      <trkpt lat="59.167332" lon="17.8557007">
        <ele>67.8</ele>
        <time>2013-03-10T10:18:26Z</time>
      </trkpt>
      <trkpt lat="59.1673898" lon="17.855549">
        <ele>67.6</ele>
        <time>2013-03-10T10:18:28Z</time>
      </trkpt>
      <trkpt lat="59.1674133" lon="17.8554688">
        <ele>67.2</ele>
        <time>2013-03-10T10:18:29Z</time>
      </trkpt>
      <trkpt lat="59.1674463" lon="17.8554019">
        <ele>68.4</ele>
        <time>2013-03-10T10:18:30Z</time>
      </trkpt>
      <trkpt lat="59.1676059" lon="17.8551984">
        <ele>67</ele>
        <time>2013-03-10T10:18:35Z</time>
      </trkpt>
      <trkpt lat="59.1676366" lon="17.8550607">
        <ele>67</ele>
        <time>2013-03-10T10:18:37Z</time>
      </trkpt>
      <trkpt lat="59.1676398" lon="17.8549753">
        <ele>67</ele>
        <time>2013-03-10T10:18:38Z</time>
      </trkpt>
      <trkpt lat="59.1676242" lon="17.854884">
        <ele>66.4</ele>
        <time>2013-03-10T10:18:39Z</time>
      </trkpt>
      <trkpt lat="59.1675199" lon="17.8545032">
        <ele>65.8</ele>
        <time>2013-03-10T10:18:43Z</time>
      </trkpt>
      <trkpt lat="59.167472" lon="17.8543199">
        <ele>66.2</ele>
        <time>2013-03-10T10:18:45Z</time>
      </trkpt>
      <trkpt lat="59.1674221" lon="17.8541401">
        <ele>65.8</ele>
        <time>2013-03-10T10:18:47Z</time>
      </trkpt>
      <trkpt lat="59.1673841" lon="17.8539541">
        <ele>65.8</ele>
        <time>2013-03-10T10:18:49Z</time>
      </trkpt>
      <trkpt lat="59.1673518" lon="17.853793">
        <ele>65.2</ele>
        <time>2013-03-10T10:18:51Z</time>
      </trkpt>
      <trkpt lat="59.1673444" lon="17.8537211">
        <ele>65.4</ele>
        <time>2013-03-10T10:18:52Z</time>
      </trkpt>
      <trkpt lat="59.1673266" lon="17.8534511">
        <ele>64.4</ele>
        <time>2013-03-10T10:18:55Z</time>
      </trkpt>
      <trkpt lat="59.1673113" lon="17.8531742">
        <ele>64.2</ele>
        <time>2013-03-10T10:18:58Z</time>
      </trkpt>
      <trkpt lat="59.1673098" lon="17.8530242">
        <ele>64.4</ele>
        <time>2013-03-10T10:19:00Z</time>
      </trkpt>
      <trkpt lat="59.1672699" lon="17.8528594">
        <ele>64.8</ele>
        <time>2013-03-10T10:19:03Z</time>
      </trkpt>
      <trkpt lat="59.1672192" lon="17.8526819">
        <ele>64.6</ele>
        <time>2013-03-10T10:19:06Z</time>
      </trkpt>
      <trkpt lat="59.1671963" lon="17.8525555">
        <ele>65.2</ele>
        <time>2013-03-10T10:19:08Z</time>
      </trkpt>
      <trkpt lat="59.1672129" lon="17.8523174">
        <ele>66</ele>
        <time>2013-03-10T10:19:12Z</time>
      </trkpt>
      <trkpt lat="59.1672559" lon="17.8519801">
        <ele>68.4</ele>
        <time>2013-03-10T10:19:17Z</time>
      </trkpt>
      <trkpt lat="59.1672699" lon="17.8516115">
        <ele>70.2</ele>
        <time>2013-03-10T10:19:23Z</time>
      </trkpt>
      <trkpt lat="59.1673187" lon="17.8512776">
        <ele>71.2</ele>
        <time>2013-03-10T10:19:28Z</time>
      </trkpt>
      <trkpt lat="59.1673671" lon="17.8509067">
        <ele>69.4</ele>
        <time>2013-03-10T10:19:32Z</time>
      </trkpt>
      <trkpt lat="59.1674065" lon="17.8508325">
        <ele>68.6</ele>
        <time>2013-03-10T10:19:33Z</time>
      </trkpt>
      <trkpt lat="59.1675279" lon="17.8507861">
        <ele>67.6</ele>
        <time>2013-03-10T10:19:35Z</time>
      </trkpt>
      <trkpt lat="59.167722" lon="17.8507118">
        <ele>68</ele>
        <time>2013-03-10T10:19:38Z</time>
      </trkpt>
      <trkpt lat="59.1679416" lon="17.8508259">
        <ele>66.6</ele>
        <time>2013-03-10T10:19:41Z</time>
      </trkpt>
      <trkpt lat="59.16805" lon="17.8510005">
        <ele>66</ele>
        <time>2013-03-10T10:19:43Z</time>
      </trkpt>
      <trkpt lat="59.1681007" lon="17.8510683">
        <ele>66.6</ele>
        <time>2013-03-10T10:19:44Z</time>
      </trkpt>
      <trkpt lat="59.1681685" lon="17.8511745">
        <ele>67.8</ele>
        <time>2013-03-10T10:19:46Z</time>
      </trkpt>
      <trkpt lat="59.1682143" lon="17.8512604">
        <ele>69</ele>
        <time>2013-03-10T10:19:48Z</time>
      </trkpt>
      <trkpt lat="59.1682825" lon="17.851345">
        <ele>68.6</ele>
        <time>2013-03-10T10:19:50Z</time>
      </trkpt>
      <trkpt lat="59.1684212" lon="17.8515815">
        <ele>70</ele>
        <time>2013-03-10T10:19:54Z</time>
      </trkpt>
      <trkpt lat="59.1684601" lon="17.851635">
        <ele>71</ele>
        <time>2013-03-10T10:19:55Z</time>
      </trkpt>
      <trkpt lat="59.1685533" lon="17.8518847">
        <ele>69.2</ele>
        <time>2013-03-10T10:19:59Z</time>
      </trkpt>
      <trkpt lat="59.1685919" lon="17.8520226">
        <ele>67.8</ele>
        <time>2013-03-10T10:20:01Z</time>
      </trkpt>
      <trkpt lat="59.1686472" lon="17.8521391">
        <ele>69.4</ele>
        <time>2013-03-10T10:20:03Z</time>
      </trkpt>
      <trkpt lat="59.1686805" lon="17.8521981">
        <ele>69</ele>
        <time>2013-03-10T10:20:04Z</time>
      </trkpt>
      <trkpt lat="59.1687133" lon="17.8522658">
        <ele>69.8</ele>
        <time>2013-03-10T10:20:05Z</time>
      </trkpt>
      <trkpt lat="59.1687954" lon="17.8524354">
        <ele>68.6</ele>
        <time>2013-03-10T10:20:08Z</time>
      </trkpt>
      <trkpt lat="59.168826" lon="17.8525008">
        <ele>68.4</ele>
        <time>2013-03-10T10:20:09Z</time>
      </trkpt>
      <trkpt lat="59.1688928" lon="17.8526006">
        <ele>68.6</ele>
        <time>2013-03-10T10:20:11Z</time>
      </trkpt>
      <trkpt lat="59.1689694" lon="17.8526862">
        <ele>67.2</ele>
        <time>2013-03-10T10:20:13Z</time>
      </trkpt>
      <trkpt lat="59.1690005" lon="17.8527426">
        <ele>66</ele>
        <time>2013-03-10T10:20:14Z</time>
      </trkpt>
      <trkpt lat="59.1690626" lon="17.8530895">
        <ele>63.2</ele>
        <time>2013-03-10T10:20:18Z</time>
      </trkpt>
      <trkpt lat="59.1691415" lon="17.8532952">
        <ele>63.6</ele>
        <time>2013-03-10T10:20:21Z</time>
      </trkpt>
      <trkpt lat="59.1691999" lon="17.8534046">
        <ele>64.4</ele>
        <time>2013-03-10T10:20:23Z</time>
      </trkpt>
      <trkpt lat="59.1692629" lon="17.8535221">
        <ele>65</ele>
        <time>2013-03-10T10:20:24Z</time>
      </trkpt>
      <trkpt lat="59.169291" lon="17.8535821">
        <ele>65.2</ele>
        <time>2013-03-10T10:20:26Z</time>
      </trkpt>
      <trkpt lat="59.1693471" lon="17.85371">
        <ele>65</ele>
        <time>2013-03-10T10:20:28Z</time>
      </trkpt>
      <trkpt lat="59.1694272" lon="17.8538686">
        <ele>64.2</ele>
        <time>2013-03-10T10:20:31Z</time>
      </trkpt>
      <trkpt lat="59.1694865" lon="17.8539752">
        <ele>63.6</ele>
        <time>2013-03-10T10:20:33Z</time>
      </trkpt>
      <trkpt lat="59.1696049" lon="17.8541049">
        <ele>63.8</ele>
        <time>2013-03-10T10:20:37Z</time>
      </trkpt>
      <trkpt lat="59.1696564" lon="17.8541778">
        <ele>64</ele>
        <time>2013-03-10T10:20:39Z</time>
      </trkpt>
      <trkpt lat="59.169778" lon="17.8544534">
        <ele>65.6</ele>
        <time>2013-03-10T10:20:45Z</time>
      </trkpt>
      <trkpt lat="59.1698811" lon="17.8548177">
        <ele>67.4</ele>
        <time>2013-03-10T10:20:51Z</time>
      </trkpt>
      <trkpt lat="59.1699712" lon="17.8551447">
        <ele>66.6</ele>
        <time>2013-03-10T10:20:56Z</time>
      </trkpt>
      <trkpt lat="59.1700584" lon="17.8554883">
        <ele>66</ele>
        <time>2013-03-10T10:21:01Z</time>
      </trkpt>
      <trkpt lat="59.1701563" lon="17.8558309">
        <ele>67.6</ele>
        <time>2013-03-10T10:21:06Z</time>
      </trkpt>
      <trkpt lat="59.1702629" lon="17.8561341">
        <ele>71.2</ele>
        <time>2013-03-10T10:21:12Z</time>
      </trkpt>
      <trkpt lat="59.1703737" lon="17.8564316">
        <ele>72.2</ele>
        <time>2013-03-10T10:21:17Z</time>
      </trkpt>
      <trkpt lat="59.17048" lon="17.8567438">
        <ele>73</ele>
        <time>2013-03-10T10:21:22Z</time>
      </trkpt>
      <trkpt lat="59.1706105" lon="17.8569978">
        <ele>70.8</ele>
        <time>2013-03-10T10:21:27Z</time>
      </trkpt>
      <trkpt lat="59.1706343" lon="17.8570488">
        <ele>71.4</ele>
        <time>2013-03-10T10:21:28Z</time>
      </trkpt>
      <trkpt lat="59.1707063" lon="17.8573456">
        <ele>71.6</ele>
        <time>2013-03-10T10:21:32Z</time>
      </trkpt>
      <trkpt lat="59.1707441" lon="17.8575848">
        <ele>69.8</ele>
        <time>2013-03-10T10:21:35Z</time>
      </trkpt>
      <trkpt lat="59.1707664" lon="17.8577534">
        <ele>68.2</ele>
        <time>2013-03-10T10:21:37Z</time>
      </trkpt>
      <trkpt lat="59.1707949" lon="17.8579649">
        <ele>68.8</ele>
        <time>2013-03-10T10:21:40Z</time>
      </trkpt>
      <trkpt lat="59.1708222" lon="17.8581203">
        <ele>68.6</ele>
        <time>2013-03-10T10:21:42Z</time>
      </trkpt>
      <trkpt lat="59.170854" lon="17.8583125">
        <ele>68.2</ele>
        <time>2013-03-10T10:21:44Z</time>
      </trkpt>
      <trkpt lat="59.1709089" lon="17.8584888">
        <ele>67.4</ele>
        <time>2013-03-10T10:21:46Z</time>
      </trkpt>
      <trkpt lat="59.1709788" lon="17.8586717">
        <ele>65.8</ele>
        <time>2013-03-10T10:21:48Z</time>
      </trkpt>
      <trkpt lat="59.1710699" lon="17.8588131">
        <ele>64.8</ele>
        <time>2013-03-10T10:21:50Z</time>
      </trkpt>
      <trkpt lat="59.1712304" lon="17.8590066">
        <ele>64.2</ele>
        <time>2013-03-10T10:21:53Z</time>
      </trkpt>
      <trkpt lat="59.1713281" lon="17.8591364">
        <ele>63.6</ele>
        <time>2013-03-10T10:21:55Z</time>
      </trkpt>
      <trkpt lat="59.1713819" lon="17.8592156">
        <ele>63</ele>
        <time>2013-03-10T10:21:56Z</time>
      </trkpt>
      <trkpt lat="59.1715528" lon="17.8594108">
        <ele>61.4</ele>
        <time>2013-03-10T10:21:59Z</time>
      </trkpt>
      <trkpt lat="59.1716528" lon="17.8595373">
        <ele>61.2</ele>
        <time>2013-03-10T10:22:01Z</time>
      </trkpt>
      <trkpt lat="59.171704" lon="17.8596156">
        <ele>61.4</ele>
        <time>2013-03-10T10:22:02Z</time>
      </trkpt>
      <trkpt lat="59.1718604" lon="17.8598766">
        <ele>59.4</ele>
        <time>2013-03-10T10:22:05Z</time>
      </trkpt>
      <trkpt lat="59.1720559" lon="17.8600283">
        <ele>59.2</ele>
        <time>2013-03-10T10:22:08Z</time>
      </trkpt>
      <trkpt lat="59.1722567" lon="17.8601823">
        <ele>59.4</ele>
        <time>2013-03-10T10:22:11Z</time>
      </trkpt>
      <trkpt lat="59.1724291" lon="17.8603072">
        <ele>58.8</ele>
        <time>2013-03-10T10:22:14Z</time>
      </trkpt>
      <trkpt lat="59.1724738" lon="17.8603651">
        <ele>58.8</ele>
        <time>2013-03-10T10:22:15Z</time>
      </trkpt>
      <trkpt lat="59.1725494" lon="17.8604771">
        <ele>58.2</ele>
        <time>2013-03-10T10:22:17Z</time>
      </trkpt>
      <trkpt lat="59.1726758" lon="17.8605664">
        <ele>58.8</ele>
        <time>2013-03-10T10:22:20Z</time>
      </trkpt>
      <trkpt lat="59.1727741" lon="17.8606203">
        <ele>58.4</ele>
        <time>2013-03-10T10:22:22Z</time>
      </trkpt>
      <trkpt lat="59.1728274" lon="17.8606395">
        <ele>58</ele>
        <time>2013-03-10T10:22:23Z</time>
      </trkpt>
      <trkpt lat="59.1728777" lon="17.8606524">
        <ele>57.8</ele>
        <time>2013-03-10T10:22:24Z</time>
      </trkpt>
      <trkpt lat="59.1730441" lon="17.8607523">
        <ele>59.2</ele>
        <time>2013-03-10T10:22:29Z</time>
      </trkpt>
      <trkpt lat="59.1730685" lon="17.8607775">
        <ele>60</ele>
        <time>2013-03-10T10:22:30Z</time>
      </trkpt>
      <trkpt lat="59.1730954" lon="17.8608043">
        <ele>60</ele>
        <time>2013-03-10T10:22:31Z</time>
      </trkpt>
      <trkpt lat="59.1732533" lon="17.8609231">
        <ele>60.4</ele>
        <time>2013-03-10T10:22:35Z</time>
      </trkpt>
      <trkpt lat="59.1734444" lon="17.8609375">
        <ele>59.6</ele>
        <time>2013-03-10T10:22:39Z</time>
      </trkpt>
      <trkpt lat="59.1736227" lon="17.8607811">
        <ele>61</ele>
        <time>2013-03-10T10:22:43Z</time>
      </trkpt>
      <trkpt lat="59.1736956" lon="17.8606562">
        <ele>60.6</ele>
        <time>2013-03-10T10:22:45Z</time>
      </trkpt>
      <trkpt lat="59.1737532" lon="17.8605348">
        <ele>58.2</ele>
        <time>2013-03-10T10:22:47Z</time>
      </trkpt>
      <trkpt lat="59.1739321" lon="17.8602837">
        <ele>57</ele>
        <time>2013-03-10T10:22:53Z</time>
      </trkpt>
      <trkpt lat="59.1739651" lon="17.8602488">
        <ele>56</ele>
        <time>2013-03-10T10:22:54Z</time>
      </trkpt>
      <trkpt lat="59.1740988" lon="17.8601103">
        <ele>53.6</ele>
        <time>2013-03-10T10:22:58Z</time>
      </trkpt>
      <trkpt lat="59.1742618" lon="17.8599104">
        <ele>51.8</ele>
        <time>2013-03-10T10:23:03Z</time>
      </trkpt>
      <trkpt lat="59.1744417" lon="17.8596859">
        <ele>55.8</ele>
        <time>2013-03-10T10:23:08Z</time>
      </trkpt>
      <trkpt lat="59.1745811" lon="17.8593809">
        <ele>56.2</ele>
        <time>2013-03-10T10:23:13Z</time>
      </trkpt>
      <trkpt lat="59.1746119" lon="17.8593042">
        <ele>56.4</ele>
        <time>2013-03-10T10:23:14Z</time>
      </trkpt>
      <trkpt lat="59.1746466" lon="17.8592374">
        <ele>57</ele>
        <time>2013-03-10T10:23:15Z</time>
      </trkpt>
      <trkpt lat="59.1747199" lon="17.8591089">
        <ele>57.2</ele>
        <time>2013-03-10T10:23:17Z</time>
      </trkpt>
      <trkpt lat="59.1748727" lon="17.8588754">
        <ele>58.8</ele>
        <time>2013-03-10T10:23:21Z</time>
      </trkpt>
      <trkpt lat="59.1749486" lon="17.8587773">
        <ele>60</ele>
        <time>2013-03-10T10:23:23Z</time>
      </trkpt>
      <trkpt lat="59.175051" lon="17.8586753">
        <ele>59</ele>
        <time>2013-03-10T10:23:26Z</time>
      </trkpt>
      <trkpt lat="59.1751712" lon="17.8586287">
        <ele>58.8</ele>
        <time>2013-03-10T10:23:29Z</time>
      </trkpt>
      <trkpt lat="59.1752382" lon="17.8586006">
        <ele>59.2</ele>
        <time>2013-03-10T10:23:31Z</time>
      </trkpt>
      <trkpt lat="59.1753745" lon="17.8583345">
        <ele>60.8</ele>
        <time>2013-03-10T10:23:37Z</time>
      </trkpt>
      <trkpt lat="59.175413" lon="17.8579335">
        <ele>61.8</ele>
        <time>2013-03-10T10:23:43Z</time>
      </trkpt>
      <trkpt lat="59.1754596" lon="17.8575284">
        <ele>62.6</ele>
        <time>2013-03-10T10:23:49Z</time>
      </trkpt>
      <trkpt lat="59.1754906" lon="17.857175">
        <ele>64</ele>
        <time>2013-03-10T10:23:53Z</time>
      </trkpt>
      <trkpt lat="59.1754718" lon="17.8569456">
        <ele>63.8</ele>
        <time>2013-03-10T10:23:56Z</time>
      </trkpt>
      <trkpt lat="59.1754798" lon="17.8567484">
        <ele>64</ele>
        <time>2013-03-10T10:23:59Z</time>
      </trkpt>
      <trkpt lat="59.1755426" lon="17.8563956">
        <ele>64.8</ele>
        <time>2013-03-10T10:24:05Z</time>
      </trkpt>
      <trkpt lat="59.1757" lon="17.8561477">
        <ele>67.6</ele>
        <time>2013-03-10T10:24:11Z</time>
      </trkpt>
      <trkpt lat="59.1758807" lon="17.856005">
        <ele>66.6</ele>
        <time>2013-03-10T10:24:17Z</time>
      </trkpt>
      <trkpt lat="59.1760655" lon="17.8558665">
        <ele>67.6</ele>
        <time>2013-03-10T10:24:23Z</time>
      </trkpt>
      <trkpt lat="59.1761779" lon="17.8558015">
        <ele>68.6</ele>
        <time>2013-03-10T10:24:26Z</time>
      </trkpt>
      <trkpt lat="59.176259" lon="17.8558318">
        <ele>70.4</ele>
        <time>2013-03-10T10:24:28Z</time>
      </trkpt>
      <trkpt lat="59.1764473" lon="17.8560089">
        <ele>70.6</ele>
        <time>2013-03-10T10:24:34Z</time>
      </trkpt>
      <trkpt lat="59.1766249" lon="17.8561705">
        <ele>69.4</ele>
        <time>2013-03-10T10:24:41Z</time>
      </trkpt>
      <trkpt lat="59.1768101" lon="17.8561127">
        <ele>68.6</ele>
        <time>2013-03-10T10:24:46Z</time>
      </trkpt>
      <trkpt lat="59.1769814" lon="17.8560267">
        <ele>67.8</ele>
        <time>2013-03-10T10:24:49Z</time>
      </trkpt>
      <trkpt lat="59.1771909" lon="17.8558157">
        <ele>65.4</ele>
        <time>2013-03-10T10:24:53Z</time>
      </trkpt>
      <trkpt lat="59.1773343" lon="17.8555336">
        <ele>66.8</ele>
        <time>2013-03-10T10:24:57Z</time>
      </trkpt>
      <trkpt lat="59.1774188" lon="17.8553838">
        <ele>66.2</ele>
        <time>2013-03-10T10:25:01Z</time>
      </trkpt>
      <trkpt lat="59.1774766" lon="17.8552853">
        <ele>65.8</ele>
        <time>2013-03-10T10:25:04Z</time>
      </trkpt>
      <trkpt lat="59.1775713" lon="17.8550332">
        <ele>67.4</ele>
        <time>2013-03-10T10:25:09Z</time>
      </trkpt>
      <trkpt lat="59.1777562" lon="17.8548934">
        <ele>67.8</ele>
        <time>2013-03-10T10:25:13Z</time>
      </trkpt>
      <trkpt lat="59.1779699" lon="17.8548808">
        <ele>68.4</ele>
        <time>2013-03-10T10:25:17Z</time>
      </trkpt>
      <trkpt lat="59.17802" lon="17.8548892">
        <ele>68.6</ele>
        <time>2013-03-10T10:25:18Z</time>
      </trkpt>
      <trkpt lat="59.1781675" lon="17.8549907">
        <ele>67.2</ele>
        <time>2013-03-10T10:25:22Z</time>
      </trkpt>
      <trkpt lat="59.1783381" lon="17.8549937">
        <ele>65</ele>
        <time>2013-03-10T10:25:26Z</time>
      </trkpt>
      <trkpt lat="59.1785008" lon="17.8549363">
        <ele>61.8</ele>
        <time>2013-03-10T10:25:29Z</time>
      </trkpt>
      <trkpt lat="59.1785558" lon="17.8549238">
        <ele>60.6</ele>
        <time>2013-03-10T10:25:30Z</time>
      </trkpt>
      <trkpt lat="59.1787448" lon="17.854881">
        <ele>61.2</ele>
        <time>2013-03-10T10:25:33Z</time>
      </trkpt>
      <trkpt lat="59.178914" lon="17.8547904">
        <ele>62.4</ele>
        <time>2013-03-10T10:25:36Z</time>
      </trkpt>
      <trkpt lat="59.1789525" lon="17.8547269">
        <ele>62</ele>
        <time>2013-03-10T10:25:37Z</time>
      </trkpt>
      <trkpt lat="59.1790782" lon="17.8544046">
        <ele>60.6</ele>
        <time>2013-03-10T10:25:41Z</time>
      </trkpt>
      <trkpt lat="59.1791308" lon="17.854229">
        <ele>61</ele>
        <time>2013-03-10T10:25:43Z</time>
      </trkpt>
      <trkpt lat="59.1791613" lon="17.8540655">
        <ele>60.4</ele>
        <time>2013-03-10T10:25:45Z</time>
      </trkpt>
      <trkpt lat="59.1791937" lon="17.8537163">
        <ele>60.4</ele>
        <time>2013-03-10T10:25:49Z</time>
      </trkpt>
      <trkpt lat="59.1792031" lon="17.8535302">
        <ele>60.2</ele>
        <time>2013-03-10T10:25:51Z</time>
      </trkpt>
      <trkpt lat="59.1792025" lon="17.8534506">
        <ele>59.4</ele>
        <time>2013-03-10T10:25:52Z</time>
      </trkpt>
      <trkpt lat="59.1792043" lon="17.8533088">
        <ele>59.8</ele>
        <time>2013-03-10T10:25:54Z</time>
      </trkpt>
      <trkpt lat="59.1792072" lon="17.8532384">
        <ele>60.4</ele>
        <time>2013-03-10T10:25:55Z</time>
      </trkpt>
      <trkpt lat="59.1792229" lon="17.8530907">
        <ele>61.2</ele>
        <time>2013-03-10T10:25:57Z</time>
      </trkpt>
      <trkpt lat="59.1792409" lon="17.8529203">
        <ele>61.6</ele>
        <time>2013-03-10T10:25:59Z</time>
      </trkpt>
      <trkpt lat="59.179268" lon="17.8526523">
        <ele>64</ele>
        <time>2013-03-10T10:26:02Z</time>
      </trkpt>
      <trkpt lat="59.1792834" lon="17.8525621">
        <ele>64.2</ele>
        <time>2013-03-10T10:26:03Z</time>
      </trkpt>
      <trkpt lat="59.1794125" lon="17.852226">
        <ele>67</ele>
        <time>2013-03-10T10:26:08Z</time>
      </trkpt>
      <trkpt lat="59.1795793" lon="17.8520146">
        <ele>65.6</ele>
        <time>2013-03-10T10:26:13Z</time>
      </trkpt>
      <trkpt lat="59.1796394" lon="17.8519392">
        <ele>65.8</ele>
        <time>2013-03-10T10:26:15Z</time>
      </trkpt>
      <trkpt lat="59.1797368" lon="17.8518329">
        <ele>65.8</ele>
        <time>2013-03-10T10:26:18Z</time>
      </trkpt>
      <trkpt lat="59.1799138" lon="17.8516257">
        <ele>62.4</ele>
        <time>2013-03-10T10:26:23Z</time>
      </trkpt>
      <trkpt lat="59.1799659" lon="17.8515967">
        <ele>61.6</ele>
        <time>2013-03-10T10:26:24Z</time>
      </trkpt>
      <trkpt lat="59.1800904" lon="17.8515455">
        <ele>60</ele>
        <time>2013-03-10T10:26:26Z</time>
      </trkpt>
      <trkpt lat="59.1802197" lon="17.8514594">
        <ele>57.6</ele>
        <time>2013-03-10T10:26:28Z</time>
      </trkpt>
      <trkpt lat="59.1802864" lon="17.8514221">
        <ele>56.2</ele>
        <time>2013-03-10T10:26:29Z</time>
      </trkpt>
      <trkpt lat="59.1804194" lon="17.8513574">
        <ele>54</ele>
        <time>2013-03-10T10:26:31Z</time>
      </trkpt>
      <trkpt lat="59.1804934" lon="17.8513517">
        <ele>53.6</ele>
        <time>2013-03-10T10:26:32Z</time>
      </trkpt>
      <trkpt lat="59.1806826" lon="17.8514775">
        <ele>50.8</ele>
        <time>2013-03-10T10:26:35Z</time>
      </trkpt>
      <trkpt lat="59.1807997" lon="17.8517761">
        <ele>48.6</ele>
        <time>2013-03-10T10:26:38Z</time>
      </trkpt>
      <trkpt lat="59.1808194" lon="17.8518576">
        <ele>49.2</ele>
        <time>2013-03-10T10:26:39Z</time>
      </trkpt>
      <trkpt lat="59.1807117" lon="17.8521318">
        <ele>46.2</ele>
        <time>2013-03-10T10:26:42Z</time>
      </trkpt>
      <trkpt lat="59.180691" lon="17.8522981">
        <ele>45.6</ele>
        <time>2013-03-10T10:26:44Z</time>
      </trkpt>
      <trkpt lat="59.1806842" lon="17.852367">
        <ele>45.2</ele>
        <time>2013-03-10T10:26:45Z</time>
      </trkpt>
      <trkpt lat="59.1806889" lon="17.8525105">
        <ele>44.2</ele>
        <time>2013-03-10T10:26:47Z</time>
      </trkpt>
      <trkpt lat="59.1807473" lon="17.8528649">
        <ele>46.6</ele>
        <time>2013-03-10T10:26:51Z</time>
      </trkpt>
      <trkpt lat="59.1807717" lon="17.8529632">
        <ele>46.6</ele>
        <time>2013-03-10T10:26:52Z</time>
      </trkpt>
      <trkpt lat="59.1808156" lon="17.8531566">
        <ele>46.2</ele>
        <time>2013-03-10T10:26:54Z</time>
      </trkpt>
      <trkpt lat="59.1808275" lon="17.8532488">
        <ele>47.4</ele>
        <time>2013-03-10T10:26:55Z</time>
      </trkpt>
      <trkpt lat="59.1808819" lon="17.8536074">
        <ele>48.6</ele>
        <time>2013-03-10T10:26:59Z</time>
      </trkpt>
      <trkpt lat="59.1809593" lon="17.8539864">
        <ele>49.8</ele>
        <time>2013-03-10T10:27:03Z</time>
      </trkpt>
      <trkpt lat="59.1810131" lon="17.8542416">
        <ele>50.8</ele>
        <time>2013-03-10T10:27:06Z</time>
      </trkpt>
      <trkpt lat="59.1810369" lon="17.8543169">
        <ele>51.6</ele>
        <time>2013-03-10T10:27:07Z</time>
      </trkpt>
      <trkpt lat="59.1811157" lon="17.854626">
        <ele>50.2</ele>
        <time>2013-03-10T10:27:11Z</time>
      </trkpt>
      <trkpt lat="59.1811329" lon="17.8546937">
        <ele>51.2</ele>
        <time>2013-03-10T10:27:12Z</time>
      </trkpt>
      <trkpt lat="59.1811717" lon="17.8548343">
        <ele>49</ele>
        <time>2013-03-10T10:27:14Z</time>
      </trkpt>
      <trkpt lat="59.1812603" lon="17.8549353">
        <ele>49</ele>
        <time>2013-03-10T10:27:17Z</time>
      </trkpt>
      <trkpt lat="59.1814317" lon="17.8548902">
        <ele>49.8</ele>
        <time>2013-03-10T10:27:22Z</time>
      </trkpt>
      <trkpt lat="59.1814663" lon="17.8548773">
        <ele>49.6</ele>
        <time>2013-03-10T10:27:23Z</time>
      </trkpt>
      <trkpt lat="59.1816736" lon="17.8547391">
        <ele>51</ele>
        <time>2013-03-10T10:27:30Z</time>
      </trkpt>
      <trkpt lat="59.1818766" lon="17.8545961">
        <ele>50.8</ele>
        <time>2013-03-10T10:27:37Z</time>
      </trkpt>
      <trkpt lat="59.1820676" lon="17.854457">
        <ele>51.2</ele>
        <time>2013-03-10T10:27:44Z</time>
      </trkpt>
      <trkpt lat="59.1822171" lon="17.8542821">
        <ele>54.8</ele>
        <time>2013-03-10T10:27:49Z</time>
      </trkpt>
      <trkpt lat="59.1824134" lon="17.8542976">
        <ele>59.6</ele>
        <time>2013-03-10T10:27:54Z</time>
      </trkpt>
      <trkpt lat="59.1825939" lon="17.8543945">
        <ele>61</ele>
        <time>2013-03-10T10:27:59Z</time>
      </trkpt>
      <trkpt lat="59.1827709" lon="17.8544753">
        <ele>62.8</ele>
        <time>2013-03-10T10:28:04Z</time>
      </trkpt>
      <trkpt lat="59.1829132" lon="17.8546628">
        <ele>63.2</ele>
        <time>2013-03-10T10:28:08Z</time>
      </trkpt>
      <trkpt lat="59.1830915" lon="17.8549005">
        <ele>63.4</ele>
        <time>2013-03-10T10:28:14Z</time>
      </trkpt>
      <trkpt lat="59.1832428" lon="17.8550087">
        <ele>65.4</ele>
        <time>2013-03-10T10:28:19Z</time>
      </trkpt>
      <trkpt lat="59.1832701" lon="17.8550201">
        <ele>65.6</ele>
        <time>2013-03-10T10:28:20Z</time>
      </trkpt>
      <trkpt lat="59.1834633" lon="17.8551274">
        <ele>68</ele>
        <time>2013-03-10T10:28:28Z</time>
      </trkpt>
      <trkpt lat="59.1836318" lon="17.8553046">
        <ele>67.8</ele>
        <time>2013-03-10T10:28:35Z</time>
      </trkpt>
      <trkpt lat="59.1837804" lon="17.855506">
        <ele>68</ele>
        <time>2013-03-10T10:28:40Z</time>
      </trkpt>
      <trkpt lat="59.1839081" lon="17.8558145">
        <ele>68</ele>
        <time>2013-03-10T10:28:45Z</time>
      </trkpt>
      <trkpt lat="59.1840053" lon="17.8561535">
        <ele>67.8</ele>
        <time>2013-03-10T10:28:51Z</time>
      </trkpt>
      <trkpt lat="59.184101" lon="17.8564977">
        <ele>66.4</ele>
        <time>2013-03-10T10:28:57Z</time>
      </trkpt>
      <trkpt lat="59.1841379" lon="17.8568538">
        <ele>65.8</ele>
        <time>2013-03-10T10:29:02Z</time>
      </trkpt>
      <trkpt lat="59.1841399" lon="17.8571988">
        <ele>64.2</ele>
        <time>2013-03-10T10:29:07Z</time>
      </trkpt>
      <trkpt lat="59.1841917" lon="17.85762">
        <ele>63.6</ele>
        <time>2013-03-10T10:29:12Z</time>
      </trkpt>
      <trkpt lat="59.1842065" lon="17.8577158">
        <ele>63.8</ele>
        <time>2013-03-10T10:29:13Z</time>
      </trkpt>
      <trkpt lat="59.1842497" lon="17.8580615">
        <ele>64</ele>
        <time>2013-03-10T10:29:16Z</time>
      </trkpt>
      <trkpt lat="59.1843197" lon="17.8585425">
        <ele>61.8</ele>
        <time>2013-03-10T10:29:19Z</time>
      </trkpt>
      <trkpt lat="59.1844243" lon="17.8588515">
        <ele>61.2</ele>
        <time>2013-03-10T10:29:21Z</time>
      </trkpt>
      <trkpt lat="59.1845614" lon="17.8590696">
        <ele>60.4</ele>
        <time>2013-03-10T10:29:23Z</time>
      </trkpt>
      <trkpt lat="59.1846339" lon="17.8591462">
        <ele>60.6</ele>
        <time>2013-03-10T10:29:24Z</time>
      </trkpt>
      <trkpt lat="59.1847656" lon="17.859303">
        <ele>60.4</ele>
        <time>2013-03-10T10:29:26Z</time>
      </trkpt>
      <trkpt lat="59.1848164" lon="17.8594176">
        <ele>60</ele>
        <time>2013-03-10T10:29:27Z</time>
      </trkpt>
      <trkpt lat="59.1848572" lon="17.8597751">
        <ele>61.8</ele>
        <time>2013-03-10T10:29:31Z</time>
      </trkpt>
      <trkpt lat="59.1848579" lon="17.8598595">
        <ele>61.4</ele>
        <time>2013-03-10T10:29:32Z</time>
      </trkpt>
      <trkpt lat="59.1849147" lon="17.8601765">
        <ele>61.8</ele>
        <time>2013-03-10T10:29:36Z</time>
      </trkpt>
      <trkpt lat="59.1849273" lon="17.8602609">
        <ele>60.8</ele>
        <time>2013-03-10T10:29:37Z</time>
      </trkpt>
      <trkpt lat="59.184966" lon="17.8604597">
        <ele>60</ele>
        <time>2013-03-10T10:29:39Z</time>
      </trkpt>
      <trkpt lat="59.1850048" lon="17.8606697">
        <ele>59.2</ele>
        <time>2013-03-10T10:29:41Z</time>
      </trkpt>
      <trkpt lat="59.1849965" lon="17.8611162">
        <ele>55.8</ele>
        <time>2013-03-10T10:29:44Z</time>
      </trkpt>
      <trkpt lat="59.184963" lon="17.8614165">
        <ele>54.6</ele>
        <time>2013-03-10T10:29:46Z</time>
      </trkpt>
      <trkpt lat="59.1849439" lon="17.8615632">
        <ele>52.8</ele>
        <time>2013-03-10T10:29:47Z</time>
      </trkpt>
      <trkpt lat="59.184887" lon="17.8619409">
        <ele>51</ele>
        <time>2013-03-10T10:29:50Z</time>
      </trkpt>
      <trkpt lat="59.1847504" lon="17.8621818">
        <ele>50.6</ele>
        <time>2013-03-10T10:29:53Z</time>
      </trkpt>
      <trkpt lat="59.1845873" lon="17.862406">
        <ele>49</ele>
        <time>2013-03-10T10:29:56Z</time>
      </trkpt>
      <trkpt lat="59.1844139" lon="17.8626263">
        <ele>48.6</ele>
        <time>2013-03-10T10:29:59Z</time>
      </trkpt>
      <trkpt lat="59.1842332" lon="17.862895">
        <ele>49.2</ele>
        <time>2013-03-10T10:30:03Z</time>
      </trkpt>
      <trkpt lat="59.1841127" lon="17.8632109">
        <ele>50.8</ele>
        <time>2013-03-10T10:30:07Z</time>
      </trkpt>
      <trkpt lat="59.1841026" lon="17.8632996">
        <ele>50.2</ele>
        <time>2013-03-10T10:30:08Z</time>
      </trkpt>
      <trkpt lat="59.1840959" lon="17.8634969">
        <ele>49.2</ele>
        <time>2013-03-10T10:30:10Z</time>
      </trkpt>
      <trkpt lat="59.1841022" lon="17.8635963">
        <ele>49.6</ele>
        <time>2013-03-10T10:30:11Z</time>
      </trkpt>
      <trkpt lat="59.184125" lon="17.8638941">
        <ele>50.6</ele>
        <time>2013-03-10T10:30:14Z</time>
      </trkpt>
      <trkpt lat="59.1841226" lon="17.8639879">
        <ele>50</ele>
        <time>2013-03-10T10:30:15Z</time>
      </trkpt>
      <trkpt lat="59.1841129" lon="17.8640791">
        <ele>50.2</ele>
        <time>2013-03-10T10:30:16Z</time>
      </trkpt>
      <trkpt lat="59.1840647" lon="17.8643362">
        <ele>50.8</ele>
        <time>2013-03-10T10:30:19Z</time>
      </trkpt>
      <trkpt lat="59.1840275" lon="17.8644936">
        <ele>51</ele>
        <time>2013-03-10T10:30:21Z</time>
      </trkpt>
      <trkpt lat="59.1839779" lon="17.8646536">
        <ele>50.8</ele>
        <time>2013-03-10T10:30:23Z</time>
      </trkpt>
      <trkpt lat="59.1839554" lon="17.8647485">
        <ele>50.6</ele>
        <time>2013-03-10T10:30:24Z</time>
      </trkpt>
      <trkpt lat="59.1839832" lon="17.8650492">
        <ele>48.6</ele>
        <time>2013-03-10T10:30:27Z</time>
      </trkpt>
      <trkpt lat="59.1840119" lon="17.8651313">
        <ele>48.2</ele>
        <time>2013-03-10T10:30:28Z</time>
      </trkpt>
      <trkpt lat="59.1840765" lon="17.8652924">
        <ele>47.8</ele>
        <time>2013-03-10T10:30:30Z</time>
      </trkpt>
      <trkpt lat="59.184101" lon="17.8653634">
        <ele>47</ele>
        <time>2013-03-10T10:30:31Z</time>
      </trkpt>
      <trkpt lat="59.184097" lon="17.8657742">
        <ele>46</ele>
        <time>2013-03-10T10:30:37Z</time>
      </trkpt>
      <trkpt lat="59.1842342" lon="17.866047">
        <ele>46.4</ele>
        <time>2013-03-10T10:30:42Z</time>
      </trkpt>
      <trkpt lat="59.184401" lon="17.8663059">
        <ele>44.6</ele>
        <time>2013-03-10T10:30:46Z</time>
      </trkpt>
      <trkpt lat="59.1845165" lon="17.8664911">
        <ele>42.8</ele>
        <time>2013-03-10T10:30:49Z</time>
      </trkpt>
      <trkpt lat="59.1845714" lon="17.8666067">
        <ele>41.4</ele>
        <time>2013-03-10T10:30:51Z</time>
      </trkpt>
      <trkpt lat="59.1845957" lon="17.8666682">
        <ele>41</ele>
        <time>2013-03-10T10:30:52Z</time>
      </trkpt>
      <trkpt lat="59.1846961" lon="17.8668993">
        <ele>39</ele>
        <time>2013-03-10T10:30:56Z</time>
      </trkpt>
      <trkpt lat="59.1847121" lon="17.8669394">
        <ele>39</ele>
        <time>2013-03-10T10:30:57Z</time>
      </trkpt>
      <trkpt lat="59.1847444" lon="17.8670401">
        <ele>39.6</ele>
        <time>2013-03-10T10:31:00Z</time>
      </trkpt>
      <trkpt lat="59.1848045" lon="17.8671985">
        <ele>44.6</ele>
        <time>2013-03-10T10:31:05Z</time>
      </trkpt>
      <trkpt lat="59.1849529" lon="17.8674064">
        <ele>51.2</ele>
        <time>2013-03-10T10:31:15Z</time>
      </trkpt>
      <trkpt lat="59.1850633" lon="17.8677291">
        <ele>57.2</ele>
        <time>2013-03-10T10:31:25Z</time>
      </trkpt>
      <trkpt lat="59.1852065" lon="17.8679582">
        <ele>62.8</ele>
        <time>2013-03-10T10:31:35Z</time>
      </trkpt>
      <trkpt lat="59.1853501" lon="17.8682203">
        <ele>62.6</ele>
        <time>2013-03-10T10:31:42Z</time>
      </trkpt>
      <trkpt lat="59.1854282" lon="17.8684206">
        <ele>61.2</ele>
        <time>2013-03-10T10:32:00Z</time>
      </trkpt>
      <trkpt lat="59.1855243" lon="17.8686801">
        <ele>59.8</ele>
        <time>2013-03-10T10:32:06Z</time>
      </trkpt>
      <trkpt lat="59.185581" lon="17.8688038">
        <ele>57.6</ele>
        <time>2013-03-10T10:32:08Z</time>
      </trkpt>
      <trkpt lat="59.1856547" lon="17.8689835">
        <ele>55.8</ele>
        <time>2013-03-10T10:32:11Z</time>
      </trkpt>
      <trkpt lat="59.1857662" lon="17.8693494">
        <ele>51.8</ele>
        <time>2013-03-10T10:32:16Z</time>
      </trkpt>
      <trkpt lat="59.1857912" lon="17.8694337">
        <ele>51.2</ele>
        <time>2013-03-10T10:32:17Z</time>
      </trkpt>
      <trkpt lat="59.1858378" lon="17.8696103">
        <ele>49.6</ele>
        <time>2013-03-10T10:32:19Z</time>
      </trkpt>
      <trkpt lat="59.1858456" lon="17.8697059">
        <ele>48.8</ele>
        <time>2013-03-10T10:32:20Z</time>
      </trkpt>
      <trkpt lat="59.18586" lon="17.8698841">
        <ele>48</ele>
        <time>2013-03-10T10:32:22Z</time>
      </trkpt>
      <trkpt lat="59.1858628" lon="17.8701208">
        <ele>46.6</ele>
        <time>2013-03-10T10:32:25Z</time>
      </trkpt>
      <trkpt lat="59.1858664" lon="17.8701926">
        <ele>46</ele>
        <time>2013-03-10T10:32:26Z</time>
      </trkpt>
      <trkpt lat="59.185939" lon="17.8704832">
        <ele>45.2</ele>
        <time>2013-03-10T10:32:30Z</time>
      </trkpt>
      <trkpt lat="59.1860601" lon="17.8706367">
        <ele>43.6</ele>
        <time>2013-03-10T10:32:34Z</time>
      </trkpt>
      <trkpt lat="59.1861296" lon="17.8707106">
        <ele>41.8</ele>
        <time>2013-03-10T10:32:36Z</time>
      </trkpt>
      <trkpt lat="59.1862157" lon="17.8708101">
        <ele>41</ele>
        <time>2013-03-10T10:32:38Z</time>
      </trkpt>
      <trkpt lat="59.1862807" lon="17.8709507">
        <ele>40.4</ele>
        <time>2013-03-10T10:32:40Z</time>
      </trkpt>
      <trkpt lat="59.1863156" lon="17.8712685">
        <ele>39.8</ele>
        <time>2013-03-10T10:32:44Z</time>
      </trkpt>
      <trkpt lat="59.186313" lon="17.8713306">
        <ele>40.2</ele>
        <time>2013-03-10T10:32:45Z</time>
      </trkpt>
      <trkpt lat="59.1863777" lon="17.8716339">
        <ele>40.8</ele>
        <time>2013-03-10T10:32:50Z</time>
      </trkpt>
      <trkpt lat="59.1863966" lon="17.8720213">
        <ele>41.2</ele>
        <time>2013-03-10T10:32:55Z</time>
      </trkpt>
      <trkpt lat="59.1864683" lon="17.8723658">
        <ele>45.6</ele>
        <time>2013-03-10T10:33:01Z</time>
      </trkpt>
      <trkpt lat="59.1865497" lon="17.8725472">
        <ele>46.6</ele>
        <time>2013-03-10T10:33:05Z</time>
      </trkpt>
      <trkpt lat="59.1865808" lon="17.8726588">
        <ele>46.4</ele>
        <time>2013-03-10T10:33:07Z</time>
      </trkpt>
      <trkpt lat="59.186617" lon="17.8730035">
        <ele>45.6</ele>
        <time>2013-03-10T10:33:12Z</time>
      </trkpt>
      <trkpt lat="59.1866242" lon="17.873082">
        <ele>45.6</ele>
        <time>2013-03-10T10:33:13Z</time>
      </trkpt>
      <trkpt lat="59.1866724" lon="17.8734759">
        <ele>45.4</ele>
        <time>2013-03-10T10:33:18Z</time>
      </trkpt>
      <trkpt lat="59.1867433" lon="17.8737769">
        <ele>47.2</ele>
        <time>2013-03-10T10:33:22Z</time>
      </trkpt>
      <trkpt lat="59.1867553" lon="17.8738542">
        <ele>46.8</ele>
        <time>2013-03-10T10:33:23Z</time>
      </trkpt>
      <trkpt lat="59.1868476" lon="17.8741732">
        <ele>45.2</ele>
        <time>2013-03-10T10:33:28Z</time>
      </trkpt>
      <trkpt lat="59.1868817" lon="17.8743489">
        <ele>44</ele>
        <time>2013-03-10T10:33:31Z</time>
      </trkpt>
      <trkpt lat="59.1869107" lon="17.8745473">
        <ele>43.4</ele>
        <time>2013-03-10T10:33:34Z</time>
      </trkpt>
      <trkpt lat="59.1870221" lon="17.8748512">
        <ele>42</ele>
        <time>2013-03-10T10:33:40Z</time>
      </trkpt>
      <trkpt lat="59.1872045" lon="17.8750046">
        <ele>39.8</ele>
        <time>2013-03-10T10:33:47Z</time>
      </trkpt>
      <trkpt lat="59.1873026" lon="17.8750459">
        <ele>38.8</ele>
        <time>2013-03-10T10:33:51Z</time>
      </trkpt>
      <trkpt lat="59.1873619" lon="17.8749393">
        <ele>38</ele>
        <time>2013-03-10T10:33:55Z</time>
      </trkpt>
      <trkpt lat="59.1874161" lon="17.8748367">
        <ele>36.6</ele>
        <time>2013-03-10T10:33:58Z</time>
      </trkpt>
      <trkpt lat="59.1875225" lon="17.8747642">
        <ele>38.4</ele>
        <time>2013-03-10T10:34:02Z</time>
      </trkpt>
      <trkpt lat="59.187711" lon="17.8747365">
        <ele>41.8</ele>
        <time>2013-03-10T10:34:07Z</time>
      </trkpt>
      <trkpt lat="59.1879131" lon="17.874687">
        <ele>42.2</ele>
        <time>2013-03-10T10:34:12Z</time>
      </trkpt>
      <trkpt lat="59.1880389" lon="17.8746941">
        <ele>41.6</ele>
        <time>2013-03-10T10:34:15Z</time>
      </trkpt>
      <trkpt lat="59.1881337" lon="17.8747169">
        <ele>41.4</ele>
        <time>2013-03-10T10:34:17Z</time>
      </trkpt>
      <trkpt lat="59.1882156" lon="17.8747321">
        <ele>40.4</ele>
        <time>2013-03-10T10:34:19Z</time>
      </trkpt>
      <trkpt lat="59.1883439" lon="17.874755">
        <ele>39.8</ele>
        <time>2013-03-10T10:34:22Z</time>
      </trkpt>
      <trkpt lat="59.1883856" lon="17.8747692">
        <ele>39.2</ele>
        <time>2013-03-10T10:34:23Z</time>
      </trkpt>
      <trkpt lat="59.188517" lon="17.8749125">
        <ele>37.6</ele>
        <time>2013-03-10T10:34:27Z</time>
      </trkpt>
      <trkpt lat="59.1886854" lon="17.875071">
        <ele>36.4</ele>
        <time>2013-03-10T10:34:32Z</time>
      </trkpt>
      <trkpt lat="59.1888739" lon="17.8750038">
        <ele>36.8</ele>
        <time>2013-03-10T10:34:38Z</time>
      </trkpt>
      <trkpt lat="59.1890402" lon="17.8747945">
        <ele>39</ele>
        <time>2013-03-10T10:34:44Z</time>
      </trkpt>
      <trkpt lat="59.1892433" lon="17.8747932">
        <ele>41.6</ele>
        <time>2013-03-10T10:34:50Z</time>
      </trkpt>
      <trkpt lat="59.1894218" lon="17.8749205">
        <ele>43.8</ele>
        <time>2013-03-10T10:34:56Z</time>
      </trkpt>
      <trkpt lat="59.1895826" lon="17.8750781">
        <ele>46.6</ele>
        <time>2013-03-10T10:35:02Z</time>
      </trkpt>
      <trkpt lat="59.1897136" lon="17.8753271">
        <ele>49.8</ele>
        <time>2013-03-10T10:35:08Z</time>
      </trkpt>
      <trkpt lat="59.1898867" lon="17.8754592">
        <ele>51.6</ele>
        <time>2013-03-10T10:35:16Z</time>
      </trkpt>
      <trkpt lat="59.1900434" lon="17.8756318">
        <ele>51.4</ele>
        <time>2013-03-10T10:35:23Z</time>
      </trkpt>
      <trkpt lat="59.1900603" lon="17.8756515">
        <ele>51</ele>
        <time>2013-03-10T10:35:24Z</time>
      </trkpt>
      <trkpt lat="59.190253" lon="17.8756566">
        <ele>56.4</ele>
        <time>2013-03-10T10:35:35Z</time>
      </trkpt>
      <trkpt lat="59.1902875" lon="17.8756405">
        <ele>57</ele>
        <time>2013-03-10T10:35:37Z</time>
      </trkpt>
      <trkpt lat="59.1904193" lon="17.8755276">
        <ele>56.6</ele>
        <time>2013-03-10T10:35:44Z</time>
      </trkpt>
      <trkpt lat="59.1904989" lon="17.8752331">
        <ele>63.4</ele>
        <time>2013-03-10T10:35:53Z</time>
      </trkpt>
      <trkpt lat="59.1904942" lon="17.8752009">
        <ele>64.2</ele>
        <time>2013-03-10T10:35:54Z</time>
      </trkpt>
      <trkpt lat="59.1904441" lon="17.8749942">
        <ele>67</ele>
        <time>2013-03-10T10:35:59Z</time>
      </trkpt>
      <trkpt lat="59.1904264" lon="17.8749231">
        <ele>67.8</ele>
        <time>2013-03-10T10:36:01Z</time>
      </trkpt>
      <trkpt lat="59.1903819" lon="17.8747854">
        <ele>69</ele>
        <time>2013-03-10T10:36:04Z</time>
      </trkpt>
      <trkpt lat="59.1903558" lon="17.8745927">
        <ele>71.4</ele>
        <time>2013-03-10T10:36:08Z</time>
      </trkpt>
      <trkpt lat="59.1903503" lon="17.8742395">
        <ele>74.4</ele>
        <time>2013-03-10T10:36:15Z</time>
      </trkpt>
      <trkpt lat="59.1903736" lon="17.8739053">
        <ele>76.8</ele>
        <time>2013-03-10T10:36:20Z</time>
      </trkpt>
      <trkpt lat="59.1904327" lon="17.8735296">
        <ele>79.4</ele>
        <time>2013-03-10T10:36:26Z</time>
      </trkpt>
      <trkpt lat="59.1905086" lon="17.8732178">
        <ele>78.8</ele>
        <time>2013-03-10T10:36:32Z</time>
      </trkpt>
      <trkpt lat="59.1905126" lon="17.8728672">
        <ele>80.4</ele>
        <time>2013-03-10T10:36:37Z</time>
      </trkpt>
      <trkpt lat="59.1905286" lon="17.8728189">
        <ele>79.8</ele>
        <time>2013-03-10T10:36:38Z</time>
      </trkpt>
      <trkpt lat="59.190665" lon="17.8726139">
        <ele>79</ele>
        <time>2013-03-10T10:36:43Z</time>
      </trkpt>
      <trkpt lat="59.1907293" lon="17.872476">
        <ele>79</ele>
        <time>2013-03-10T10:36:46Z</time>
      </trkpt>
      <trkpt lat="59.1908118" lon="17.8724429">
        <ele>78.8</ele>
        <time>2013-03-10T10:36:49Z</time>
      </trkpt>
      <trkpt lat="59.1908454" lon="17.8724687">
        <ele>78.6</ele>
        <time>2013-03-10T10:36:50Z</time>
      </trkpt>
      <trkpt lat="59.1908775" lon="17.8725089">
        <ele>77.8</ele>
        <time>2013-03-10T10:36:51Z</time>
      </trkpt>
      <trkpt lat="59.1909761" lon="17.872641">
        <ele>75.8</ele>
        <time>2013-03-10T10:36:54Z</time>
      </trkpt>
      <trkpt lat="59.1911872" lon="17.8726526">
        <ele>73.6</ele>
        <time>2013-03-10T10:36:59Z</time>
      </trkpt>
      <trkpt lat="59.191233" lon="17.8726356">
        <ele>74</ele>
        <time>2013-03-10T10:37:00Z</time>
      </trkpt>
      <trkpt lat="59.191369" lon="17.8725446">
        <ele>73.4</ele>
        <time>2013-03-10T10:37:03Z</time>
      </trkpt>
      <trkpt lat="59.1914706" lon="17.8725025">
        <ele>72</ele>
        <time>2013-03-10T10:37:05Z</time>
      </trkpt>
      <trkpt lat="59.1915913" lon="17.8725031">
        <ele>71</ele>
        <time>2013-03-10T10:37:07Z</time>
      </trkpt>
      <trkpt lat="59.1916583" lon="17.8725284">
        <ele>71</ele>
        <time>2013-03-10T10:37:08Z</time>
      </trkpt>
      <trkpt lat="59.1917878" lon="17.8726062">
        <ele>72</ele>
        <time>2013-03-10T10:37:10Z</time>
      </trkpt>
      <trkpt lat="59.1920043" lon="17.8727511">
        <ele>71.8</ele>
        <time>2013-03-10T10:37:14Z</time>
      </trkpt>
      <trkpt lat="59.1920514" lon="17.872789">
        <ele>71.8</ele>
        <time>2013-03-10T10:37:15Z</time>
      </trkpt>
      <trkpt lat="59.1921987" lon="17.8728567">
        <ele>71.4</ele>
        <time>2013-03-10T10:37:18Z</time>
      </trkpt>
      <trkpt lat="59.1922626" lon="17.872853">
        <ele>71.6</ele>
        <time>2013-03-10T10:37:19Z</time>
      </trkpt>
      <trkpt lat="59.1923923" lon="17.8728373">
        <ele>73</ele>
        <time>2013-03-10T10:37:21Z</time>
      </trkpt>
      <trkpt lat="59.1926047" lon="17.8727637">
        <ele>76</ele>
        <time>2013-03-10T10:37:25Z</time>
      </trkpt>
      <trkpt lat="59.1927151" lon="17.8727321">
        <ele>75.2</ele>
        <time>2013-03-10T10:37:27Z</time>
      </trkpt>
      <trkpt lat="59.1928077" lon="17.8727698">
        <ele>75.4</ele>
        <time>2013-03-10T10:37:29Z</time>
      </trkpt>
      <trkpt lat="59.1929357" lon="17.8729133">
        <ele>74.6</ele>
        <time>2013-03-10T10:37:32Z</time>
      </trkpt>
      <trkpt lat="59.1929757" lon="17.8729455">
        <ele>74.2</ele>
        <time>2013-03-10T10:37:33Z</time>
      </trkpt>
      <trkpt lat="59.193177" lon="17.8728859">
        <ele>75.4</ele>
        <time>2013-03-10T10:37:38Z</time>
      </trkpt>
      <trkpt lat="59.1932124" lon="17.8728639">
        <ele>75.8</ele>
        <time>2013-03-10T10:37:39Z</time>
      </trkpt>
      <trkpt lat="59.1932512" lon="17.8728525">
        <ele>76.6</ele>
        <time>2013-03-10T10:37:40Z</time>
      </trkpt>
      <trkpt lat="59.1933105" lon="17.872872">
        <ele>76.8</ele>
        <time>2013-03-10T10:37:43Z</time>
      </trkpt>
      <trkpt lat="59.1933662" lon="17.8729347">
        <ele>81.8</ele>
        <time>2013-03-10T10:38:04Z</time>
      </trkpt>
      <trkpt lat="59.1934885" lon="17.8731522">
        <ele>84.6</ele>
        <time>2013-03-10T10:38:14Z</time>
      </trkpt>
      <trkpt lat="59.1936136" lon="17.8733904">
        <ele>85.4</ele>
        <time>2013-03-10T10:38:20Z</time>
      </trkpt>
      <trkpt lat="59.1938169" lon="17.8734667">
        <ele>85.8</ele>
        <time>2013-03-10T10:38:27Z</time>
      </trkpt>
      <trkpt lat="59.1940084" lon="17.8733521">
        <ele>86</ele>
        <time>2013-03-10T10:38:32Z</time>
      </trkpt>
      <trkpt lat="59.1941816" lon="17.8732329">
        <ele>85</ele>
        <time>2013-03-10T10:38:36Z</time>
      </trkpt>
      <trkpt lat="59.1943881" lon="17.8730559">
        <ele>86</ele>
        <time>2013-03-10T10:38:40Z</time>
      </trkpt>
      <trkpt lat="59.1945917" lon="17.8729304">
        <ele>84</ele>
        <time>2013-03-10T10:38:45Z</time>
      </trkpt>
      <trkpt lat="59.1946481" lon="17.8731625">
        <ele>83</ele>
        <time>2013-03-10T10:38:51Z</time>
      </trkpt>
      <trkpt lat="59.1946426" lon="17.8732338">
        <ele>83.4</ele>
        <time>2013-03-10T10:38:52Z</time>
      </trkpt>
      <trkpt lat="59.1946508" lon="17.8735773">
        <ele>82</ele>
        <time>2013-03-10T10:38:56Z</time>
      </trkpt>
      <trkpt lat="59.1947107" lon="17.8739616">
        <ele>81.6</ele>
        <time>2013-03-10T10:39:00Z</time>
      </trkpt>
      <trkpt lat="59.1947159" lon="17.8743757">
        <ele>81.6</ele>
        <time>2013-03-10T10:39:04Z</time>
      </trkpt>
      <trkpt lat="59.1947081" lon="17.8744596">
        <ele>81.6</ele>
        <time>2013-03-10T10:39:05Z</time>
      </trkpt>
      <trkpt lat="59.1946921" lon="17.8746184">
        <ele>82.6</ele>
        <time>2013-03-10T10:39:07Z</time>
      </trkpt>
      <trkpt lat="59.1946947" lon="17.8747583">
        <ele>84.6</ele>
        <time>2013-03-10T10:39:09Z</time>
      </trkpt>
      <trkpt lat="59.1947126" lon="17.875146">
        <ele>85</ele>
        <time>2013-03-10T10:39:13Z</time>
      </trkpt>
      <trkpt lat="59.1947171" lon="17.8753708">
        <ele>84.4</ele>
        <time>2013-03-10T10:39:15Z</time>
      </trkpt>
      <trkpt lat="59.1947337" lon="17.8755807">
        <ele>85.4</ele>
        <time>2013-03-10T10:39:17Z</time>
      </trkpt>
      <trkpt lat="59.1947538" lon="17.875935">
        <ele>85</ele>
        <time>2013-03-10T10:39:21Z</time>
      </trkpt>
      <trkpt lat="59.1947635" lon="17.8761244">
        <ele>83.6</ele>
        <time>2013-03-10T10:39:23Z</time>
      </trkpt>
      <trkpt lat="59.1947989" lon="17.876302">
        <ele>85.2</ele>
        <time>2013-03-10T10:39:25Z</time>
      </trkpt>
      <trkpt lat="59.1949026" lon="17.8766609">
        <ele>84</ele>
        <time>2013-03-10T10:39:29Z</time>
      </trkpt>
      <trkpt lat="59.1949461" lon="17.8768461">
        <ele>82.2</ele>
        <time>2013-03-10T10:39:31Z</time>
      </trkpt>
      <trkpt lat="59.1950034" lon="17.8770647">
        <ele>82</ele>
        <time>2013-03-10T10:39:34Z</time>
      </trkpt>
      <trkpt lat="59.1950362" lon="17.8772087">
        <ele>83</ele>
        <time>2013-03-10T10:39:37Z</time>
      </trkpt>
      <trkpt lat="59.1950752" lon="17.8774256">
        <ele>83.2</ele>
        <time>2013-03-10T10:39:41Z</time>
      </trkpt>
      <trkpt lat="59.1950906" lon="17.877793">
        <ele>83</ele>
        <time>2013-03-10T10:39:47Z</time>
      </trkpt>
      <trkpt lat="59.1951387" lon="17.8782095">
        <ele>80.8</ele>
        <time>2013-03-10T10:39:53Z</time>
      </trkpt>
      <trkpt lat="59.1951482" lon="17.878268">
        <ele>80.4</ele>
        <time>2013-03-10T10:39:54Z</time>
      </trkpt>
      <trkpt lat="59.1951896" lon="17.8785489">
        <ele>79.4</ele>
        <time>2013-03-10T10:39:58Z</time>
      </trkpt>
      <trkpt lat="59.1951953" lon="17.8786544">
        <ele>78.8</ele>
        <time>2013-03-10T10:39:59Z</time>
      </trkpt>
      <trkpt lat="59.1952116" lon="17.8789875">
        <ele>76.4</ele>
        <time>2013-03-10T10:40:02Z</time>
      </trkpt>
      <trkpt lat="59.1951295" lon="17.8793904">
        <ele>74.4</ele>
        <time>2013-03-10T10:40:06Z</time>
      </trkpt>
      <trkpt lat="59.1950585" lon="17.8795486">
        <ele>74.6</ele>
        <time>2013-03-10T10:40:08Z</time>
      </trkpt>
      <trkpt lat="59.1950182" lon="17.8796138">
        <ele>74.4</ele>
        <time>2013-03-10T10:40:09Z</time>
      </trkpt>
      <trkpt lat="59.1949745" lon="17.8796748">
        <ele>74.2</ele>
        <time>2013-03-10T10:40:10Z</time>
      </trkpt>
      <trkpt lat="59.1948003" lon="17.8798284">
        <ele>74</ele>
        <time>2013-03-10T10:40:14Z</time>
      </trkpt>
      <trkpt lat="59.194753" lon="17.8798457">
        <ele>73.2</ele>
        <time>2013-03-10T10:40:15Z</time>
      </trkpt>
      <trkpt lat="59.1946352" lon="17.8799453">
        <ele>71.4</ele>
        <time>2013-03-10T10:40:18Z</time>
      </trkpt>
      <trkpt lat="59.1945752" lon="17.8800966">
        <ele>70.8</ele>
        <time>2013-03-10T10:40:20Z</time>
      </trkpt>
      <trkpt lat="59.1945156" lon="17.880251">
        <ele>69.8</ele>
        <time>2013-03-10T10:40:22Z</time>
      </trkpt>
      <trkpt lat="59.1944861" lon="17.8803375">
        <ele>69</ele>
        <time>2013-03-10T10:40:23Z</time>
      </trkpt>
      <trkpt lat="59.1944202" lon="17.88058">
        <ele>69.4</ele>
        <time>2013-03-10T10:40:25Z</time>
      </trkpt>
      <trkpt lat="59.1942483" lon="17.8808089">
        <ele>69.2</ele>
        <time>2013-03-10T10:40:29Z</time>
      </trkpt>
      <trkpt lat="59.1940586" lon="17.8807539">
        <ele>70.2</ele>
        <time>2013-03-10T10:40:33Z</time>
      </trkpt>
      <trkpt lat="59.1939703" lon="17.8806943">
        <ele>70</ele>
        <time>2013-03-10T10:40:35Z</time>
      </trkpt>
      <trkpt lat="59.1938677" lon="17.8806703">
        <ele>71.4</ele>
        <time>2013-03-10T10:40:37Z</time>
      </trkpt>
      <trkpt lat="59.1937872" lon="17.8806554">
        <ele>71.4</ele>
        <time>2013-03-10T10:40:39Z</time>
      </trkpt>
      <trkpt lat="59.1936498" lon="17.8806279">
        <ele>73.6</ele>
        <time>2013-03-10T10:40:43Z</time>
      </trkpt>
      <trkpt lat="59.1934423" lon="17.8807149">
        <ele>71.6</ele>
        <time>2013-03-10T10:40:48Z</time>
      </trkpt>
      <trkpt lat="59.1932929" lon="17.8808384">
        <ele>71.4</ele>
        <time>2013-03-10T10:40:52Z</time>
      </trkpt>
      <trkpt lat="59.1932548" lon="17.8808612">
        <ele>71.2</ele>
        <time>2013-03-10T10:40:53Z</time>
      </trkpt>
      <trkpt lat="59.1932154" lon="17.8808907">
        <ele>71.4</ele>
        <time>2013-03-10T10:40:54Z</time>
      </trkpt>
      <trkpt lat="59.1930521" lon="17.880971">
        <ele>70.6</ele>
        <time>2013-03-10T10:40:58Z</time>
      </trkpt>
      <trkpt lat="59.1928943" lon="17.8808615">
        <ele>71.6</ele>
        <time>2013-03-10T10:41:01Z</time>
      </trkpt>
      <trkpt lat="59.192855" lon="17.8807995">
        <ele>72.6</ele>
        <time>2013-03-10T10:41:02Z</time>
      </trkpt>
      <trkpt lat="59.1926879" lon="17.8805131">
        <ele>73.4</ele>
        <time>2013-03-10T10:41:07Z</time>
      </trkpt>
      <trkpt lat="59.1926653" lon="17.8804587">
        <ele>73.8</ele>
        <time>2013-03-10T10:41:08Z</time>
      </trkpt>
      <trkpt lat="59.1926216" lon="17.8803711">
        <ele>73.6</ele>
        <time>2013-03-10T10:41:10Z</time>
      </trkpt>
      <trkpt lat="59.1925291" lon="17.8802971">
        <ele>73.4</ele>
        <time>2013-03-10T10:41:13Z</time>
      </trkpt>
      <trkpt lat="59.192498" lon="17.8802882">
        <ele>73.8</ele>
        <time>2013-03-10T10:41:14Z</time>
      </trkpt>
      <trkpt lat="59.1923576" lon="17.8802602">
        <ele>73.4</ele>
        <time>2013-03-10T10:41:18Z</time>
      </trkpt>
      <trkpt lat="59.1921482" lon="17.8802811">
        <ele>74.2</ele>
        <time>2013-03-10T10:41:24Z</time>
      </trkpt>
      <trkpt lat="59.1919531" lon="17.8801991">
        <ele>74.8</ele>
        <time>2013-03-10T10:41:29Z</time>
      </trkpt>
      <trkpt lat="59.191762" lon="17.88025">
        <ele>74.6</ele>
        <time>2013-03-10T10:41:34Z</time>
      </trkpt>
      <trkpt lat="59.1916467" lon="17.8803577">
        <ele>74.6</ele>
        <time>2013-03-10T10:41:37Z</time>
      </trkpt>
      <trkpt lat="59.1915641" lon="17.8804254">
        <ele>75</ele>
        <time>2013-03-10T10:41:39Z</time>
      </trkpt>
      <trkpt lat="59.1915267" lon="17.8804517">
        <ele>75.6</ele>
        <time>2013-03-10T10:41:40Z</time>
      </trkpt>
      <trkpt lat="59.1913134" lon="17.8805658">
        <ele>80.4</ele>
        <time>2013-03-10T10:42:03Z</time>
      </trkpt>
      <trkpt lat="59.191291" lon="17.8805851">
        <ele>80.2</ele>
        <time>2013-03-10T10:42:04Z</time>
      </trkpt>
      <trkpt lat="59.1911618" lon="17.8807554">
        <ele>80.6</ele>
        <time>2013-03-10T10:42:11Z</time>
      </trkpt>
      <trkpt lat="59.1909712" lon="17.8808379">
        <ele>76.4</ele>
        <time>2013-03-10T10:42:16Z</time>
      </trkpt>
      <trkpt lat="59.1907542" lon="17.880701">
        <ele>76.8</ele>
        <time>2013-03-10T10:42:20Z</time>
      </trkpt>
      <trkpt lat="59.1906886" lon="17.8806487">
        <ele>77</ele>
        <time>2013-03-10T10:42:22Z</time>
      </trkpt>
      <trkpt lat="59.1906632" lon="17.8806154">
        <ele>78</ele>
        <time>2013-03-10T10:42:24Z</time>
      </trkpt>
      <trkpt lat="59.1905843" lon="17.8805437">
        <ele>78.8</ele>
        <time>2013-03-10T10:42:26Z</time>
      </trkpt>
      <trkpt lat="59.1903884" lon="17.8804249">
        <ele>82</ele>
        <time>2013-03-10T10:42:32Z</time>
      </trkpt>
      <trkpt lat="59.1902291" lon="17.8803607">
        <ele>80.8</ele>
        <time>2013-03-10T10:42:37Z</time>
      </trkpt>
      <trkpt lat="59.1900281" lon="17.8803235">
        <ele>75.2</ele>
        <time>2013-03-10T10:42:42Z</time>
      </trkpt>
      <trkpt lat="59.1899172" lon="17.8803353">
        <ele>72.6</ele>
        <time>2013-03-10T10:42:44Z</time>
      </trkpt>
      <trkpt lat="59.1897907" lon="17.8802932">
        <ele>71</ele>
        <time>2013-03-10T10:42:46Z</time>
      </trkpt>
      <trkpt lat="59.1895213" lon="17.8801364">
        <ele>67</ele>
        <time>2013-03-10T10:42:50Z</time>
      </trkpt>
      <trkpt lat="59.1895213" lon="17.8801364">
        <ele>66.2</ele>
        <time>2013-03-10T10:42:51Z</time>
      </trkpt>
      <trkpt lat="59.1894283" lon="17.8800781">
        <ele>65.2</ele>
        <time>2013-03-10T10:42:53Z</time>
      </trkpt>
      <trkpt lat="59.1893534" lon="17.88005">
        <ele>65.6</ele>
        <time>2013-03-10T10:42:55Z</time>
      </trkpt>
      <trkpt lat="59.1892283" lon="17.8800399">
        <ele>65</ele>
        <time>2013-03-10T10:42:58Z</time>
      </trkpt>
      <trkpt lat="59.189173" lon="17.8800598">
        <ele>64.8</ele>
        <time>2013-03-10T10:42:59Z</time>
      </trkpt>
      <trkpt lat="59.1891189" lon="17.8800702">
        <ele>64.8</ele>
        <time>2013-03-10T10:43:00Z</time>
      </trkpt>
      <trkpt lat="59.1889803" lon="17.880064">
        <ele>65.4</ele>
        <time>2013-03-10T10:43:03Z</time>
      </trkpt>
      <trkpt lat="59.1887672" lon="17.8800532">
        <ele>66</ele>
        <time>2013-03-10T10:43:07Z</time>
      </trkpt>
      <trkpt lat="59.1885823" lon="17.8802337">
        <ele>69.2</ele>
        <time>2013-03-10T10:43:12Z</time>
      </trkpt>
      <trkpt lat="59.188477" lon="17.8805846">
        <ele>70.8</ele>
        <time>2013-03-10T10:43:17Z</time>
      </trkpt>
      <trkpt lat="59.1883737" lon="17.8809218">
        <ele>73</ele>
        <time>2013-03-10T10:43:20Z</time>
      </trkpt>
      <trkpt lat="59.1883737" lon="17.8809218">
        <ele>72.8</ele>
        <time>2013-03-10T10:43:21Z</time>
      </trkpt>
      <trkpt lat="59.1883383" lon="17.8809778">
        <ele>73.4</ele>
        <time>2013-03-10T10:43:22Z</time>
      </trkpt>
      <trkpt lat="59.1882231" lon="17.8810889">
        <ele>73.4</ele>
        <time>2013-03-10T10:43:25Z</time>
      </trkpt>
      <trkpt lat="59.1881533" lon="17.8811638">
        <ele>73.8</ele>
        <time>2013-03-10T10:43:26Z</time>
      </trkpt>
      <trkpt lat="59.1880848" lon="17.8812337">
        <ele>74.2</ele>
        <time>2013-03-10T10:43:28Z</time>
      </trkpt>
      <trkpt lat="59.1879504" lon="17.8813517">
        <ele>75.4</ele>
        <time>2013-03-10T10:43:31Z</time>
      </trkpt>
      <trkpt lat="59.1878896" lon="17.8813788">
        <ele>76</ele>
        <time>2013-03-10T10:43:33Z</time>
      </trkpt>
      <trkpt lat="59.187764" lon="17.8814344">
        <ele>75.8</ele>
        <time>2013-03-10T10:43:34Z</time>
      </trkpt>
      <trkpt lat="59.1875883" lon="17.8815289">
        <ele>74.6</ele>
        <time>2013-03-10T10:43:37Z</time>
      </trkpt>
      <trkpt lat="59.187534" lon="17.8815673">
        <ele>74.2</ele>
        <time>2013-03-10T10:43:38Z</time>
      </trkpt>
      <trkpt lat="59.1873897" lon="17.8817196">
        <ele>75.4</ele>
        <time>2013-03-10T10:43:41Z</time>
      </trkpt>
      <trkpt lat="59.1872671" lon="17.881934">
        <ele>74.4</ele>
        <time>2013-03-10T10:43:45Z</time>
      </trkpt>
      <trkpt lat="59.1872012" lon="17.8822219">
        <ele>74</ele>
        <time>2013-03-10T10:43:47Z</time>
      </trkpt>
      <trkpt lat="59.1872105" lon="17.8824193">
        <ele>73.2</ele>
        <time>2013-03-10T10:43:49Z</time>
      </trkpt>
      <trkpt lat="59.1872284" lon="17.8825419">
        <ele>72</ele>
        <time>2013-03-10T10:43:51Z</time>
      </trkpt>
      <trkpt lat="59.1872593" lon="17.8826706">
        <ele>72.4</ele>
        <time>2013-03-10T10:43:52Z</time>
      </trkpt>
      <trkpt lat="59.1872916" lon="17.8827965">
        <ele>73.2</ele>
        <time>2013-03-10T10:43:54Z</time>
      </trkpt>
      <trkpt lat="59.1873065" lon="17.8828636">
        <ele>73.8</ele>
        <time>2013-03-10T10:43:55Z</time>
      </trkpt>
      <trkpt lat="59.1873453" lon="17.8831409">
        <ele>74.4</ele>
        <time>2013-03-10T10:43:59Z</time>
      </trkpt>
      <trkpt lat="59.1873614" lon="17.8832756">
        <ele>73.8</ele>
        <time>2013-03-10T10:44:01Z</time>
      </trkpt>
      <trkpt lat="59.1873904" lon="17.883518">
        <ele>74</ele>
        <time>2013-03-10T10:44:05Z</time>
      </trkpt>
      <trkpt lat="59.1874427" lon="17.8838012">
        <ele>73.8</ele>
        <time>2013-03-10T10:44:09Z</time>
      </trkpt>
      <trkpt lat="59.1874467" lon="17.8838852">
        <ele>74</ele>
        <time>2013-03-10T10:44:10Z</time>
      </trkpt>
      <trkpt lat="59.1874743" lon="17.8840862">
        <ele>73.4</ele>
        <time>2013-03-10T10:44:13Z</time>
      </trkpt>
      <trkpt lat="59.1875007" lon="17.8842671">
        <ele>74</ele>
        <time>2013-03-10T10:44:16Z</time>
      </trkpt>
      <trkpt lat="59.1875568" lon="17.8845967">
        <ele>72.8</ele>
        <time>2013-03-10T10:44:22Z</time>
      </trkpt>
      <trkpt lat="59.1876634" lon="17.8849786">
        <ele>74</ele>
        <time>2013-03-10T10:44:26Z</time>
      </trkpt>
      <trkpt lat="59.1876737" lon="17.8850607">
        <ele>73.8</ele>
        <time>2013-03-10T10:44:27Z</time>
      </trkpt>
      <trkpt lat="59.1876945" lon="17.8853295">
        <ele>74.8</ele>
        <time>2013-03-10T10:44:30Z</time>
      </trkpt>
      <trkpt lat="59.1877172" lon="17.8855011">
        <ele>75.2</ele>
        <time>2013-03-10T10:44:32Z</time>
      </trkpt>
      <trkpt lat="59.1877341" lon="17.8855899">
        <ele>78.2</ele>
        <time>2013-03-10T10:44:34Z</time>
      </trkpt>
      <trkpt lat="59.1878582" lon="17.8859103">
        <ele>80.8</ele>
        <time>2013-03-10T10:44:38Z</time>
      </trkpt>
      <trkpt lat="59.1878805" lon="17.8859692">
        <ele>81.8</ele>
        <time>2013-03-10T10:44:39Z</time>
      </trkpt>
      <trkpt lat="59.1879238" lon="17.8860982">
        <ele>82.8</ele>
        <time>2013-03-10T10:44:41Z</time>
      </trkpt>
      <trkpt lat="59.1879443" lon="17.8862656">
        <ele>84.8</ele>
        <time>2013-03-10T10:44:43Z</time>
      </trkpt>
      <trkpt lat="59.1879385" lon="17.8863443">
        <ele>86</ele>
        <time>2013-03-10T10:44:44Z</time>
      </trkpt>
      <trkpt lat="59.1879163" lon="17.8866712">
        <ele>89.6</ele>
        <time>2013-03-10T10:44:48Z</time>
      </trkpt>
      <trkpt lat="59.1879146" lon="17.8867542">
        <ele>90.2</ele>
        <time>2013-03-10T10:44:49Z</time>
      </trkpt>
      <trkpt lat="59.1879084" lon="17.8868472">
        <ele>91.6</ele>
        <time>2013-03-10T10:44:50Z</time>
      </trkpt>
      <trkpt lat="59.1878866" lon="17.8870036">
        <ele>92.4</ele>
        <time>2013-03-10T10:44:52Z</time>
      </trkpt>
      <trkpt lat="59.1878379" lon="17.887142">
        <ele>91.6</ele>
        <time>2013-03-10T10:44:54Z</time>
      </trkpt>
      <trkpt lat="59.1878088" lon="17.8871958">
        <ele>90.6</ele>
        <time>2013-03-10T10:44:55Z</time>
      </trkpt>
      <trkpt lat="59.1876794" lon="17.8874203">
        <ele>89</ele>
        <time>2013-03-10T10:44:59Z</time>
      </trkpt>
      <trkpt lat="59.187653" lon="17.8874792">
        <ele>89.2</ele>
        <time>2013-03-10T10:45:00Z</time>
      </trkpt>
      <trkpt lat="59.1875965" lon="17.8877568">
        <ele>86.6</ele>
        <time>2013-03-10T10:45:04Z</time>
      </trkpt>
      <trkpt lat="59.1875839" lon="17.8878246">
        <ele>86.4</ele>
        <time>2013-03-10T10:45:05Z</time>
      </trkpt>
      <trkpt lat="59.1875314" lon="17.8881095">
        <ele>85.2</ele>
        <time>2013-03-10T10:45:09Z</time>
      </trkpt>
      <trkpt lat="59.1874801" lon="17.8884645">
        <ele>83.8</ele>
        <time>2013-03-10T10:45:14Z</time>
      </trkpt>
      <trkpt lat="59.1874977" lon="17.8886717">
        <ele>82.8</ele>
        <time>2013-03-10T10:45:17Z</time>
      </trkpt>
      <trkpt lat="59.1875633" lon="17.8888484">
        <ele>82.4</ele>
        <time>2013-03-10T10:45:20Z</time>
      </trkpt>
      <trkpt lat="59.1876748" lon="17.8891887">
        <ele>78.8</ele>
        <time>2013-03-10T10:45:26Z</time>
      </trkpt>
      <trkpt lat="59.1877665" lon="17.8895444">
        <ele>76.4</ele>
        <time>2013-03-10T10:45:32Z</time>
      </trkpt>
      <trkpt lat="59.1878307" lon="17.8899498">
        <ele>76.8</ele>
        <time>2013-03-10T10:45:38Z</time>
      </trkpt>
      <trkpt lat="59.1878623" lon="17.8903222">
        <ele>76.2</ele>
        <time>2013-03-10T10:45:44Z</time>
      </trkpt>
      <trkpt lat="59.1879551" lon="17.8906221">
        <ele>75.6</ele>
        <time>2013-03-10T10:45:51Z</time>
      </trkpt>
      <trkpt lat="59.1879675" lon="17.8906557">
        <ele>76</ele>
        <time>2013-03-10T10:45:52Z</time>
      </trkpt>
      <trkpt lat="59.1879598" lon="17.8910086">
        <ele>78</ele>
        <time>2013-03-10T10:46:00Z</time>
      </trkpt>
      <trkpt lat="59.1878961" lon="17.8911635">
        <ele>77.6</ele>
        <time>2013-03-10T10:46:03Z</time>
      </trkpt>
      <trkpt lat="59.1878388" lon="17.8913378">
        <ele>77.6</ele>
        <time>2013-03-10T10:46:06Z</time>
      </trkpt>
      <trkpt lat="59.1877803" lon="17.8917135">
        <ele>79</ele>
        <time>2013-03-10T10:46:12Z</time>
      </trkpt>
      <trkpt lat="59.1878108" lon="17.8920962">
        <ele>82.4</ele>
        <time>2013-03-10T10:46:19Z</time>
      </trkpt>
      <trkpt lat="59.1878552" lon="17.8924935">
        <ele>82.8</ele>
        <time>2013-03-10T10:46:24Z</time>
      </trkpt>
      <trkpt lat="59.187903" lon="17.8928996">
        <ele>82.4</ele>
        <time>2013-03-10T10:46:28Z</time>
      </trkpt>
      <trkpt lat="59.1879611" lon="17.8931963">
        <ele>81.8</ele>
        <time>2013-03-10T10:46:31Z</time>
      </trkpt>
      <trkpt lat="59.1879908" lon="17.8932694">
        <ele>81.6</ele>
        <time>2013-03-10T10:46:32Z</time>
      </trkpt>
      <trkpt lat="59.1881642" lon="17.89346">
        <ele>80.4</ele>
        <time>2013-03-10T10:46:37Z</time>
      </trkpt>
      <trkpt lat="59.1882231" lon="17.8935129">
        <ele>79.6</ele>
        <time>2013-03-10T10:46:39Z</time>
      </trkpt>
      <trkpt lat="59.1883595" lon="17.8936374">
        <ele>80</ele>
        <time>2013-03-10T10:46:43Z</time>
      </trkpt>
      <trkpt lat="59.1885549" lon="17.8938167">
        <ele>82</ele>
        <time>2013-03-10T10:46:48Z</time>
      </trkpt>
      <trkpt lat="59.1886787" lon="17.8938793">
        <ele>80.6</ele>
        <time>2013-03-10T10:46:51Z</time>
      </trkpt>
      <trkpt lat="59.1887647" lon="17.8938933">
        <ele>80</ele>
        <time>2013-03-10T10:46:53Z</time>
      </trkpt>
      <trkpt lat="59.1888496" lon="17.8939021">
        <ele>78.6</ele>
        <time>2013-03-10T10:46:55Z</time>
      </trkpt>
      <trkpt lat="59.1889869" lon="17.8939249">
        <ele>76.4</ele>
        <time>2013-03-10T10:46:58Z</time>
      </trkpt>
      <trkpt lat="59.1890812" lon="17.8939477">
        <ele>75.4</ele>
        <time>2013-03-10T10:47:00Z</time>
      </trkpt>
      <trkpt lat="59.1891773" lon="17.894013">
        <ele>74</ele>
        <time>2013-03-10T10:47:02Z</time>
      </trkpt>
      <trkpt lat="59.1893657" lon="17.8941818">
        <ele>71</ele>
        <time>2013-03-10T10:47:06Z</time>
      </trkpt>
      <trkpt lat="59.1895469" lon="17.8944178">
        <ele>67.6</ele>
        <time>2013-03-10T10:47:10Z</time>
      </trkpt>
      <trkpt lat="59.189705" lon="17.8947142">
        <ele>65.6</ele>
        <time>2013-03-10T10:47:14Z</time>
      </trkpt>
      <trkpt lat="59.1897675" lon="17.8948671">
        <ele>65</ele>
        <time>2013-03-10T10:47:16Z</time>
      </trkpt>
      <trkpt lat="59.1898182" lon="17.8950261">
        <ele>63.8</ele>
        <time>2013-03-10T10:47:18Z</time>
      </trkpt>
      <trkpt lat="59.1899241" lon="17.8953596">
        <ele>63.4</ele>
        <time>2013-03-10T10:47:22Z</time>
      </trkpt>
      <trkpt lat="59.1899556" lon="17.8954365">
        <ele>63.2</ele>
        <time>2013-03-10T10:47:23Z</time>
      </trkpt>
      <trkpt lat="59.1900569" lon="17.8956514">
        <ele>63.6</ele>
        <time>2013-03-10T10:47:26Z</time>
      </trkpt>
      <trkpt lat="59.1900921" lon="17.8957228">
        <ele>63.4</ele>
        <time>2013-03-10T10:47:27Z</time>
      </trkpt>
      <trkpt lat="59.190204" lon="17.8959643">
        <ele>68.4</ele>
        <time>2013-03-10T10:47:30Z</time>
      </trkpt>
      <trkpt lat="59.1903437" lon="17.8962646">
        <ele>66.8</ele>
        <time>2013-03-10T10:47:34Z</time>
      </trkpt>
      <trkpt lat="59.1904524" lon="17.8964533">
        <ele>69</ele>
        <time>2013-03-10T10:47:37Z</time>
      </trkpt>
      <trkpt lat="59.1904868" lon="17.8965227">
        <ele>70.4</ele>
        <time>2013-03-10T10:47:38Z</time>
      </trkpt>
      <trkpt lat="59.1905994" lon="17.8967926">
        <ele>70.6</ele>
        <time>2013-03-10T10:47:42Z</time>
      </trkpt>
      <trkpt lat="59.1906258" lon="17.8968691">
        <ele>70.8</ele>
        <time>2013-03-10T10:47:43Z</time>
      </trkpt>
      <trkpt lat="59.1907077" lon="17.8972064">
        <ele>69.8</ele>
        <time>2013-03-10T10:47:47Z</time>
      </trkpt>
      <trkpt lat="59.1907723" lon="17.8976114">
        <ele>71</ele>
        <time>2013-03-10T10:47:52Z</time>
      </trkpt>
      <trkpt lat="59.1907627" lon="17.8977934">
        <ele>71.2</ele>
        <time>2013-03-10T10:47:54Z</time>
      </trkpt>
      <trkpt lat="59.1907341" lon="17.8979791">
        <ele>70.8</ele>
        <time>2013-03-10T10:47:56Z</time>
      </trkpt>
      <trkpt lat="59.1907165" lon="17.8981374">
        <ele>71.4</ele>
        <time>2013-03-10T10:47:58Z</time>
      </trkpt>
      <trkpt lat="59.1907226" lon="17.898304">
        <ele>72</ele>
        <time>2013-03-10T10:48:00Z</time>
      </trkpt>
      <trkpt lat="59.190736" lon="17.8983725">
        <ele>72</ele>
        <time>2013-03-10T10:48:01Z</time>
      </trkpt>
      <trkpt lat="59.1908984" lon="17.8986133">
        <ele>72</ele>
        <time>2013-03-10T10:48:06Z</time>
      </trkpt>
      <trkpt lat="59.1910205" lon="17.8989039">
        <ele>69.2</ele>
        <time>2013-03-10T10:48:11Z</time>
      </trkpt>
      <trkpt lat="59.1910935" lon="17.8992809">
        <ele>70.8</ele>
        <time>2013-03-10T10:48:16Z</time>
      </trkpt>
      <trkpt lat="59.1911064" lon="17.8993723">
        <ele>70.6</ele>
        <time>2013-03-10T10:48:17Z</time>
      </trkpt>
      <trkpt lat="59.1911481" lon="17.8996332">
        <ele>71</ele>
        <time>2013-03-10T10:48:20Z</time>
      </trkpt>
      <trkpt lat="59.1911803" lon="17.8997861">
        <ele>70.8</ele>
        <time>2013-03-10T10:48:22Z</time>
      </trkpt>
      <trkpt lat="59.1912468" lon="17.9000194">
        <ele>70.2</ele>
        <time>2013-03-10T10:48:25Z</time>
      </trkpt>
      <trkpt lat="59.1913112" lon="17.9002871">
        <ele>69.6</ele>
        <time>2013-03-10T10:48:28Z</time>
      </trkpt>
      <trkpt lat="59.1913219" lon="17.9003891">
        <ele>69.4</ele>
        <time>2013-03-10T10:48:29Z</time>
      </trkpt>
      <trkpt lat="59.1913314" lon="17.9006894">
        <ele>68.2</ele>
        <time>2013-03-10T10:48:32Z</time>
      </trkpt>
      <trkpt lat="59.191337" lon="17.9007895">
        <ele>67.8</ele>
        <time>2013-03-10T10:48:33Z</time>
      </trkpt>
      <trkpt lat="59.1913623" lon="17.901164">
        <ele>67.6</ele>
        <time>2013-03-10T10:48:37Z</time>
      </trkpt>
      <trkpt lat="59.1913963" lon="17.9015385">
        <ele>67.6</ele>
        <time>2013-03-10T10:48:41Z</time>
      </trkpt>
      <trkpt lat="59.1914344" lon="17.9019296">
        <ele>65.8</ele>
        <time>2013-03-10T10:48:46Z</time>
      </trkpt>
      <trkpt lat="59.1914504" lon="17.9021223">
        <ele>64</ele>
        <time>2013-03-10T10:48:49Z</time>
      </trkpt>
      <trkpt lat="59.1914613" lon="17.9023299">
        <ele>64.2</ele>
        <time>2013-03-10T10:48:52Z</time>
      </trkpt>
      <trkpt lat="59.1914909" lon="17.9027186">
        <ele>64.6</ele>
        <time>2013-03-10T10:48:58Z</time>
      </trkpt>
      <trkpt lat="59.1915524" lon="17.902985">
        <ele>61.6</ele>
        <time>2013-03-10T10:49:03Z</time>
      </trkpt>
      <trkpt lat="59.1915464" lon="17.9030673">
        <ele>61.6</ele>
        <time>2013-03-10T10:49:04Z</time>
      </trkpt>
      <trkpt lat="59.1914361" lon="17.9033572">
        <ele>60.4</ele>
        <time>2013-03-10T10:49:09Z</time>
      </trkpt>
      <trkpt lat="59.1912884" lon="17.9034158">
        <ele>61.6</ele>
        <time>2013-03-10T10:49:13Z</time>
      </trkpt>
      <trkpt lat="59.1912537" lon="17.9034148">
        <ele>61.6</ele>
        <time>2013-03-10T10:49:14Z</time>
      </trkpt>
      <trkpt lat="59.191032" lon="17.9034003">
        <ele>62.2</ele>
        <time>2013-03-10T10:49:19Z</time>
      </trkpt>
      <trkpt lat="59.1908586" lon="17.9033982">
        <ele>63</ele>
        <time>2013-03-10T10:49:23Z</time>
      </trkpt>
      <trkpt lat="59.190816" lon="17.9034034">
        <ele>62.4</ele>
        <time>2013-03-10T10:49:24Z</time>
      </trkpt>
      <trkpt lat="59.1907764" lon="17.9034027">
        <ele>63.2</ele>
        <time>2013-03-10T10:49:25Z</time>
      </trkpt>
      <trkpt lat="59.1906818" lon="17.9033801">
        <ele>64.2</ele>
        <time>2013-03-10T10:49:27Z</time>
      </trkpt>
      <trkpt lat="59.1906015" lon="17.9033651">
        <ele>64.8</ele>
        <time>2013-03-10T10:49:29Z</time>
      </trkpt>
      <trkpt lat="59.1903239" lon="17.9032854">
        <ele>83.6</ele>
        <time>2013-03-10T10:53:56Z</time>
      </trkpt>
      <trkpt lat="59.1902572" lon="17.9031573">
        <ele>83.8</ele>
        <time>2013-03-10T10:54:01Z</time>
      </trkpt>
      <trkpt lat="59.1902353" lon="17.9030578">
        <ele>84.6</ele>
        <time>2013-03-10T10:54:03Z</time>
      </trkpt>
      <trkpt lat="59.1901895" lon="17.902823">
        <ele>84</ele>
        <time>2013-03-10T10:54:08Z</time>
      </trkpt>
      <trkpt lat="59.1901379" lon="17.9024782">
        <ele>85</ele>
        <time>2013-03-10T10:54:13Z</time>
      </trkpt>
      <trkpt lat="59.1900462" lon="17.9021742">
        <ele>85.6</ele>
        <time>2013-03-10T10:54:18Z</time>
      </trkpt>
      <trkpt lat="59.1899438" lon="17.9018329">
        <ele>85.2</ele>
        <time>2013-03-10T10:54:23Z</time>
      </trkpt>
      <trkpt lat="59.1898338" lon="17.9015267">
        <ele>84</ele>
        <time>2013-03-10T10:54:28Z</time>
      </trkpt>
      <trkpt lat="59.189708" lon="17.9012614">
        <ele>82.4</ele>
        <time>2013-03-10T10:54:33Z</time>
      </trkpt>
      <trkpt lat="59.1895545" lon="17.9010155">
        <ele>80</ele>
        <time>2013-03-10T10:54:37Z</time>
      </trkpt>
      <trkpt lat="59.1894553" lon="17.9008435">
        <ele>78.4</ele>
        <time>2013-03-10T10:54:40Z</time>
      </trkpt>
      <trkpt lat="59.1894205" lon="17.9007766">
        <ele>77.6</ele>
        <time>2013-03-10T10:54:41Z</time>
      </trkpt>
      <trkpt lat="59.1892852" lon="17.9004987">
        <ele>75.8</ele>
        <time>2013-03-10T10:54:45Z</time>
      </trkpt>
      <trkpt lat="59.189132" lon="17.9002191">
        <ele>73.6</ele>
        <time>2013-03-10T10:54:49Z</time>
      </trkpt>
      <trkpt lat="59.1890585" lon="17.9000783">
        <ele>72.2</ele>
        <time>2013-03-10T10:54:51Z</time>
      </trkpt>
      <trkpt lat="59.1889936" lon="17.8999157">
        <ele>71.4</ele>
        <time>2013-03-10T10:54:53Z</time>
      </trkpt>
      <trkpt lat="59.1889279" lon="17.8997603">
        <ele>70.8</ele>
        <time>2013-03-10T10:54:55Z</time>
      </trkpt>
      <trkpt lat="59.1888751" lon="17.8996152">
        <ele>70.6</ele>
        <time>2013-03-10T10:54:57Z</time>
      </trkpt>
      <trkpt lat="59.1887953" lon="17.8994066">
        <ele>70.2</ele>
        <time>2013-03-10T10:55:00Z</time>
      </trkpt>
      <trkpt lat="59.1887826" lon="17.8993214">
        <ele>69.8</ele>
        <time>2013-03-10T10:55:01Z</time>
      </trkpt>
      <trkpt lat="59.1887521" lon="17.8989553">
        <ele>68.8</ele>
        <time>2013-03-10T10:55:05Z</time>
      </trkpt>
      <trkpt lat="59.1887465" lon="17.8988707">
        <ele>69.4</ele>
        <time>2013-03-10T10:55:06Z</time>
      </trkpt>
      <trkpt lat="59.1887497" lon="17.8986946">
        <ele>68.8</ele>
        <time>2013-03-10T10:55:08Z</time>
      </trkpt>
      <trkpt lat="59.1887456" lon="17.8985407">
        <ele>68</ele>
        <time>2013-03-10T10:55:10Z</time>
      </trkpt>
      <trkpt lat="59.1887099" lon="17.898143">
        <ele>68.6</ele>
        <time>2013-03-10T10:55:15Z</time>
      </trkpt>
      <trkpt lat="59.1886637" lon="17.8977571">
        <ele>72.4</ele>
        <time>2013-03-10T10:55:20Z</time>
      </trkpt>
      <trkpt lat="59.1886778" lon="17.8975969">
        <ele>72.6</ele>
        <time>2013-03-10T10:55:22Z</time>
      </trkpt>
      <trkpt lat="59.1886839" lon="17.8975077">
        <ele>72.6</ele>
        <time>2013-03-10T10:55:23Z</time>
      </trkpt>
      <trkpt lat="59.1886811" lon="17.8974026">
        <ele>72.6</ele>
        <time>2013-03-10T10:55:24Z</time>
      </trkpt>
      <trkpt lat="59.1886557" lon="17.8971018">
        <ele>73.4</ele>
        <time>2013-03-10T10:55:27Z</time>
      </trkpt>
      <trkpt lat="59.1886449" lon="17.8970081">
        <ele>73.4</ele>
        <time>2013-03-10T10:55:28Z</time>
      </trkpt>
      <trkpt lat="59.188604" lon="17.8967832">
        <ele>73.8</ele>
        <time>2013-03-10T10:55:31Z</time>
      </trkpt>
      <trkpt lat="59.1885519" lon="17.8966666">
        <ele>73.8</ele>
        <time>2013-03-10T10:55:33Z</time>
      </trkpt>
      <trkpt lat="59.1885088" lon="17.8965323">
        <ele>74.4</ele>
        <time>2013-03-10T10:55:35Z</time>
      </trkpt>
      <trkpt lat="59.1884461" lon="17.8963274">
        <ele>75.4</ele>
        <time>2013-03-10T10:55:38Z</time>
      </trkpt>
      <trkpt lat="59.1884241" lon="17.8962626">
        <ele>75.4</ele>
        <time>2013-03-10T10:55:39Z</time>
      </trkpt>
      <trkpt lat="59.1883232" lon="17.8960662">
        <ele>74.6</ele>
        <time>2013-03-10T10:55:43Z</time>
      </trkpt>
      <trkpt lat="59.1881379" lon="17.8959487">
        <ele>74.2</ele>
        <time>2013-03-10T10:55:48Z</time>
      </trkpt>
      <trkpt lat="59.187956" lon="17.8960076">
        <ele>73.6</ele>
        <time>2013-03-10T10:55:53Z</time>
      </trkpt>
      <trkpt lat="59.1877756" lon="17.8959969">
        <ele>73.4</ele>
        <time>2013-03-10T10:55:57Z</time>
      </trkpt>
      <trkpt lat="59.1875949" lon="17.8960275">
        <ele>73.2</ele>
        <time>2013-03-10T10:56:01Z</time>
      </trkpt>
      <trkpt lat="59.1874957" lon="17.8960556">
        <ele>73.4</ele>
        <time>2013-03-10T10:56:03Z</time>
      </trkpt>
      <trkpt lat="59.1874009" lon="17.8960964">
        <ele>73.4</ele>
        <time>2013-03-10T10:56:05Z</time>
      </trkpt>
      <trkpt lat="59.1872935" lon="17.8961171">
        <ele>73</ele>
        <time>2013-03-10T10:56:07Z</time>
      </trkpt>
      <trkpt lat="59.1871915" lon="17.8961228">
        <ele>74.4</ele>
        <time>2013-03-10T10:56:09Z</time>
      </trkpt>
      <trkpt lat="59.1870004" lon="17.8961512">
        <ele>74.4</ele>
        <time>2013-03-10T10:56:13Z</time>
      </trkpt>
      <trkpt lat="59.1868072" lon="17.8959699">
        <ele>74.4</ele>
        <time>2013-03-10T10:56:17Z</time>
      </trkpt>
      <trkpt lat="59.186699" lon="17.8957144">
        <ele>76</ele>
        <time>2013-03-10T10:56:20Z</time>
      </trkpt>
      <trkpt lat="59.1866682" lon="17.8956276">
        <ele>75.6</ele>
        <time>2013-03-10T10:56:21Z</time>
      </trkpt>
      <trkpt lat="59.1866046" lon="17.8954715">
        <ele>76.4</ele>
        <time>2013-03-10T10:56:23Z</time>
      </trkpt>
      <trkpt lat="59.1865262" lon="17.8953375">
        <ele>77</ele>
        <time>2013-03-10T10:56:25Z</time>
      </trkpt>
      <trkpt lat="59.1863856" lon="17.8950986">
        <ele>77</ele>
        <time>2013-03-10T10:56:29Z</time>
      </trkpt>
      <trkpt lat="59.1862263" lon="17.8948314">
        <ele>76.6</ele>
        <time>2013-03-10T10:56:34Z</time>
      </trkpt>
      <trkpt lat="59.1860646" lon="17.8945904">
        <ele>76</ele>
        <time>2013-03-10T10:56:39Z</time>
      </trkpt>
      <trkpt lat="59.1860079" lon="17.8945273">
        <ele>76.2</ele>
        <time>2013-03-10T10:56:41Z</time>
      </trkpt>
      <trkpt lat="59.1858861" lon="17.8945511">
        <ele>75.8</ele>
        <time>2013-03-10T10:56:44Z</time>
      </trkpt>
      <trkpt lat="59.1858483" lon="17.8945823">
        <ele>75.2</ele>
        <time>2013-03-10T10:56:45Z</time>
      </trkpt>
      <trkpt lat="59.1857261" lon="17.8946927">
        <ele>75</ele>
        <time>2013-03-10T10:56:48Z</time>
      </trkpt>
      <trkpt lat="59.1856785" lon="17.8947137">
        <ele>74.2</ele>
        <time>2013-03-10T10:56:49Z</time>
      </trkpt>
      <trkpt lat="59.1854969" lon="17.8946597">
        <ele>75</ele>
        <time>2013-03-10T10:56:53Z</time>
      </trkpt>
      <trkpt lat="59.1853867" lon="17.8943119">
        <ele>76.8</ele>
        <time>2013-03-10T10:56:58Z</time>
      </trkpt>
      <trkpt lat="59.1853712" lon="17.8942434">
        <ele>77.4</ele>
        <time>2013-03-10T10:56:59Z</time>
      </trkpt>
      <trkpt lat="59.1853354" lon="17.8941127">
        <ele>76.6</ele>
        <time>2013-03-10T10:57:01Z</time>
      </trkpt>
      <trkpt lat="59.1852775" lon="17.894007">
        <ele>75.8</ele>
        <time>2013-03-10T10:57:03Z</time>
      </trkpt>
      <trkpt lat="59.1851711" lon="17.8939134">
        <ele>76.4</ele>
        <time>2013-03-10T10:57:05Z</time>
      </trkpt>
      <trkpt lat="59.185114" lon="17.8938803">
        <ele>76.4</ele>
        <time>2013-03-10T10:57:06Z</time>
      </trkpt>
      <trkpt lat="59.1850579" lon="17.8938569">
        <ele>76.4</ele>
        <time>2013-03-10T10:57:07Z</time>
      </trkpt>
      <trkpt lat="59.1848725" lon="17.8938316">
        <ele>74.8</ele>
        <time>2013-03-10T10:57:11Z</time>
      </trkpt>
      <trkpt lat="59.1847051" lon="17.8938079">
        <ele>73.4</ele>
        <time>2013-03-10T10:57:15Z</time>
      </trkpt>
      <trkpt lat="59.1846572" lon="17.8937746">
        <ele>72.6</ele>
        <time>2013-03-10T10:57:16Z</time>
      </trkpt>
      <trkpt lat="59.1846045" lon="17.8937217">
        <ele>72.2</ele>
        <time>2013-03-10T10:57:17Z</time>
      </trkpt>
      <trkpt lat="59.1844524" lon="17.893558">
        <ele>72.2</ele>
        <time>2013-03-10T10:57:20Z</time>
      </trkpt>
      <trkpt lat="59.1844078" lon="17.8934842">
        <ele>71.8</ele>
        <time>2013-03-10T10:57:21Z</time>
      </trkpt>
      <trkpt lat="59.1842714" lon="17.8932865">
        <ele>71.2</ele>
        <time>2013-03-10T10:57:24Z</time>
      </trkpt>
      <trkpt lat="59.1841239" lon="17.8931027">
        <ele>72.2</ele>
        <time>2013-03-10T10:57:28Z</time>
      </trkpt>
      <trkpt lat="59.1840959" lon="17.8930712">
        <ele>71.6</ele>
        <time>2013-03-10T10:57:29Z</time>
      </trkpt>
      <trkpt lat="59.1839903" lon="17.8929846">
        <ele>71.4</ele>
        <time>2013-03-10T10:57:32Z</time>
      </trkpt>
      <trkpt lat="59.1839435" lon="17.8929356">
        <ele>71.8</ele>
        <time>2013-03-10T10:57:33Z</time>
      </trkpt>
      <trkpt lat="59.1839099" lon="17.8928684">
        <ele>71.4</ele>
        <time>2013-03-10T10:57:34Z</time>
      </trkpt>
      <trkpt lat="59.1838576" lon="17.8924729">
        <ele>73.6</ele>
        <time>2013-03-10T10:57:38Z</time>
      </trkpt>
      <trkpt lat="59.1838525" lon="17.8923727">
        <ele>74.2</ele>
        <time>2013-03-10T10:57:39Z</time>
      </trkpt>
      <trkpt lat="59.183842" lon="17.8920976">
        <ele>76</ele>
        <time>2013-03-10T10:57:42Z</time>
      </trkpt>
      <trkpt lat="59.1838458" lon="17.8920081">
        <ele>76.2</ele>
        <time>2013-03-10T10:57:43Z</time>
      </trkpt>
      <trkpt lat="59.1838545" lon="17.8917252">
        <ele>77</ele>
        <time>2013-03-10T10:57:46Z</time>
      </trkpt>
      <trkpt lat="59.1838648" lon="17.8915363">
        <ele>77.2</ele>
        <time>2013-03-10T10:57:48Z</time>
      </trkpt>
      <trkpt lat="59.1838757" lon="17.8913672">
        <ele>78.2</ele>
        <time>2013-03-10T10:57:50Z</time>
      </trkpt>
      <trkpt lat="59.1838636" lon="17.8910194">
        <ele>79.2</ele>
        <time>2013-03-10T10:57:54Z</time>
      </trkpt>
      <trkpt lat="59.1838513" lon="17.8908519">
        <ele>78.2</ele>
        <time>2013-03-10T10:57:56Z</time>
      </trkpt>
      <trkpt lat="59.1838234" lon="17.8907074">
        <ele>77.4</ele>
        <time>2013-03-10T10:57:58Z</time>
      </trkpt>
      <trkpt lat="59.1838135" lon="17.8906407">
        <ele>77.8</ele>
        <time>2013-03-10T10:57:59Z</time>
      </trkpt>
      <trkpt lat="59.183798" lon="17.8902362">
        <ele>80.8</ele>
        <time>2013-03-10T10:58:05Z</time>
      </trkpt>
      <trkpt lat="59.1838019" lon="17.8898366">
        <ele>87</ele>
        <time>2013-03-10T10:58:12Z</time>
      </trkpt>
      <trkpt lat="59.1837536" lon="17.8894849">
        <ele>88.4</ele>
        <time>2013-03-10T10:58:19Z</time>
      </trkpt>
      <trkpt lat="59.1836816" lon="17.8891436">
        <ele>89.2</ele>
        <time>2013-03-10T10:58:25Z</time>
      </trkpt>
      <trkpt lat="59.1835809" lon="17.8888054">
        <ele>89.2</ele>
        <time>2013-03-10T10:58:30Z</time>
      </trkpt>
      <trkpt lat="59.1835105" lon="17.8884156">
        <ele>88</ele>
        <time>2013-03-10T10:58:35Z</time>
      </trkpt>
      <trkpt lat="59.1835072" lon="17.888161">
        <ele>91.6</ele>
        <time>2013-03-10T10:58:38Z</time>
      </trkpt>
      <trkpt lat="59.183515" lon="17.888063">
        <ele>92.8</ele>
        <time>2013-03-10T10:58:39Z</time>
      </trkpt>
      <trkpt lat="59.1835027" lon="17.8876793">
        <ele>93.8</ele>
        <time>2013-03-10T10:58:43Z</time>
      </trkpt>
      <trkpt lat="59.1834489" lon="17.8874674">
        <ele>92.4</ele>
        <time>2013-03-10T10:58:45Z</time>
      </trkpt>
      <trkpt lat="59.1834261" lon="17.8873521">
        <ele>92.2</ele>
        <time>2013-03-10T10:58:46Z</time>
      </trkpt>
      <trkpt lat="59.1833469" lon="17.8868722">
        <ele>89.8</ele>
        <time>2013-03-10T10:58:49Z</time>
      </trkpt>
      <trkpt lat="59.1832783" lon="17.8865199">
        <ele>88.6</ele>
        <time>2013-03-10T10:58:51Z</time>
      </trkpt>
      <trkpt lat="59.1832137" lon="17.8861874">
        <ele>87.2</ele>
        <time>2013-03-10T10:58:53Z</time>
      </trkpt>
      <trkpt lat="59.1831188" lon="17.8857124">
        <ele>84.4</ele>
        <time>2013-03-10T10:58:56Z</time>
      </trkpt>
      <trkpt lat="59.1830377" lon="17.8852761">
        <ele>84.6</ele>
        <time>2013-03-10T10:58:59Z</time>
      </trkpt>
      <trkpt lat="59.1830574" lon="17.8848825">
        <ele>86.6</ele>
        <time>2013-03-10T10:59:02Z</time>
      </trkpt>
      <trkpt lat="59.1830645" lon="17.884654">
        <ele>86.4</ele>
        <time>2013-03-10T10:59:04Z</time>
      </trkpt>
      <trkpt lat="59.1830841" lon="17.8844556">
        <ele>84.6</ele>
        <time>2013-03-10T10:59:06Z</time>
      </trkpt>
      <trkpt lat="59.1831224" lon="17.8842971">
        <ele>83.6</ele>
        <time>2013-03-10T10:59:08Z</time>
      </trkpt>
      <trkpt lat="59.1831669" lon="17.8841136">
        <ele>84.4</ele>
        <time>2013-03-10T10:59:10Z</time>
      </trkpt>
      <trkpt lat="59.1832985" lon="17.8838613">
        <ele>84</ele>
        <time>2013-03-10T10:59:14Z</time>
      </trkpt>
      <trkpt lat="59.1834287" lon="17.8836147">
        <ele>85</ele>
        <time>2013-03-10T10:59:18Z</time>
      </trkpt>
      <trkpt lat="59.1835556" lon="17.8833886">
        <ele>85.8</ele>
        <time>2013-03-10T10:59:22Z</time>
      </trkpt>
      <trkpt lat="59.1835877" lon="17.8833238">
        <ele>86</ele>
        <time>2013-03-10T10:59:23Z</time>
      </trkpt>
      <trkpt lat="59.1837151" lon="17.8830608">
        <ele>86.6</ele>
        <time>2013-03-10T10:59:27Z</time>
      </trkpt>
      <trkpt lat="59.1838209" lon="17.8828685">
        <ele>86.4</ele>
        <time>2013-03-10T10:59:30Z</time>
      </trkpt>
      <trkpt lat="59.1838587" lon="17.8828077">
        <ele>86.4</ele>
        <time>2013-03-10T10:59:31Z</time>
      </trkpt>
      <trkpt lat="59.1840079" lon="17.8825349">
        <ele>87</ele>
        <time>2013-03-10T10:59:36Z</time>
      </trkpt>
      <trkpt lat="59.1840591" lon="17.8823339">
        <ele>87.2</ele>
        <time>2013-03-10T10:59:39Z</time>
      </trkpt>
      <trkpt lat="59.1840609" lon="17.8821914">
        <ele>87.2</ele>
        <time>2013-03-10T10:59:41Z</time>
      </trkpt>
      <trkpt lat="59.1839954" lon="17.881841">
        <ele>84.2</ele>
        <time>2013-03-10T10:59:47Z</time>
      </trkpt>
      <trkpt lat="59.1838612" lon="17.8815626">
        <ele>82.8</ele>
        <time>2013-03-10T10:59:52Z</time>
      </trkpt>
      <trkpt lat="59.1837422" lon="17.8812863">
        <ele>82.4</ele>
        <time>2013-03-10T10:59:55Z</time>
      </trkpt>
      <trkpt lat="59.183627" lon="17.8809803">
        <ele>83</ele>
        <time>2013-03-10T10:59:58Z</time>
      </trkpt>
      <trkpt lat="59.1835618" lon="17.8807793">
        <ele>83.4</ele>
        <time>2013-03-10T11:00:00Z</time>
      </trkpt>
      <trkpt lat="59.1835339" lon="17.8806742">
        <ele>83.6</ele>
        <time>2013-03-10T11:00:01Z</time>
      </trkpt>
      <trkpt lat="59.1834162" lon="17.880302">
        <ele>84.2</ele>
        <time>2013-03-10T11:00:05Z</time>
      </trkpt>
      <trkpt lat="59.1833044" lon="17.8801485">
        <ele>85.4</ele>
        <time>2013-03-10T11:00:09Z</time>
      </trkpt>
      <trkpt lat="59.1832701" lon="17.8801238">
        <ele>84.8</ele>
        <time>2013-03-10T11:00:10Z</time>
      </trkpt>
      <trkpt lat="59.1832436" lon="17.8801093">
        <ele>84.8</ele>
        <time>2013-03-10T11:00:11Z</time>
      </trkpt>
      <trkpt lat="59.1830382" lon="17.8799234">
        <ele>82.2</ele>
        <time>2013-03-10T11:00:16Z</time>
      </trkpt>
      <trkpt lat="59.1828744" lon="17.8797754">
        <ele>81.2</ele>
        <time>2013-03-10T11:00:19Z</time>
      </trkpt>
      <trkpt lat="59.1827683" lon="17.8796406">
        <ele>79.4</ele>
        <time>2013-03-10T11:00:21Z</time>
      </trkpt>
      <trkpt lat="59.1827188" lon="17.8795396">
        <ele>78</ele>
        <time>2013-03-10T11:00:22Z</time>
      </trkpt>
      <trkpt lat="59.1826033" lon="17.8792223">
        <ele>78.4</ele>
        <time>2013-03-10T11:00:25Z</time>
      </trkpt>
      <trkpt lat="59.1824831" lon="17.8788467">
        <ele>75.8</ele>
        <time>2013-03-10T11:00:28Z</time>
      </trkpt>
      <trkpt lat="59.1823713" lon="17.8784453">
        <ele>74.6</ele>
        <time>2013-03-10T11:00:31Z</time>
      </trkpt>
      <trkpt lat="59.1823121" lon="17.8782006">
        <ele>73.6</ele>
        <time>2013-03-10T11:00:33Z</time>
      </trkpt>
      <trkpt lat="59.1822896" lon="17.8780732">
        <ele>72.8</ele>
        <time>2013-03-10T11:00:34Z</time>
      </trkpt>
      <trkpt lat="59.1822666" lon="17.8777882">
        <ele>69.8</ele>
        <time>2013-03-10T11:00:37Z</time>
      </trkpt>
      <trkpt lat="59.1822569" lon="17.8776885">
        <ele>69.4</ele>
        <time>2013-03-10T11:00:38Z</time>
      </trkpt>
      <trkpt lat="59.1822448" lon="17.8775908">
        <ele>69.2</ele>
        <time>2013-03-10T11:00:39Z</time>
      </trkpt>
      <trkpt lat="59.1822182" lon="17.8774055">
        <ele>68</ele>
        <time>2013-03-10T11:00:41Z</time>
      </trkpt>
      <trkpt lat="59.1822087" lon="17.8772984">
        <ele>67.8</ele>
        <time>2013-03-10T11:00:42Z</time>
      </trkpt>
      <trkpt lat="59.1822071" lon="17.8769286">
        <ele>67</ele>
        <time>2013-03-10T11:00:46Z</time>
      </trkpt>
      <trkpt lat="59.1821771" lon="17.8765357">
        <ele>70.6</ele>
        <time>2013-03-10T11:00:51Z</time>
      </trkpt>
      <trkpt lat="59.1821438" lon="17.8763089">
        <ele>72.6</ele>
        <time>2013-03-10T11:00:54Z</time>
      </trkpt>
      <trkpt lat="59.1821322" lon="17.8761673">
        <ele>73.6</ele>
        <time>2013-03-10T11:00:56Z</time>
      </trkpt>
      <trkpt lat="59.1821242" lon="17.8761005">
        <ele>73.2</ele>
        <time>2013-03-10T11:00:57Z</time>
      </trkpt>
      <trkpt lat="59.1821047" lon="17.8758448">
        <ele>74.2</ele>
        <time>2013-03-10T11:01:00Z</time>
      </trkpt>
      <trkpt lat="59.182105" lon="17.8757562">
        <ele>73.4</ele>
        <time>2013-03-10T11:01:01Z</time>
      </trkpt>
      <trkpt lat="59.1821347" lon="17.8755102">
        <ele>74.2</ele>
        <time>2013-03-10T11:01:04Z</time>
      </trkpt>
      <trkpt lat="59.1821527" lon="17.8753322">
        <ele>74.2</ele>
        <time>2013-03-10T11:01:06Z</time>
      </trkpt>
      <trkpt lat="59.182206" lon="17.8749916">
        <ele>72</ele>
        <time>2013-03-10T11:01:10Z</time>
      </trkpt>
      <trkpt lat="59.1822559" lon="17.8748055">
        <ele>70</ele>
        <time>2013-03-10T11:01:12Z</time>
      </trkpt>
      <trkpt lat="59.1822984" lon="17.8745899">
        <ele>68.4</ele>
        <time>2013-03-10T11:01:14Z</time>
      </trkpt>
      <trkpt lat="59.1823108" lon="17.8744771">
        <ele>67.8</ele>
        <time>2013-03-10T11:01:15Z</time>
      </trkpt>
      <trkpt lat="59.1823101" lon="17.8742258">
        <ele>68.2</ele>
        <time>2013-03-10T11:01:17Z</time>
      </trkpt>
      <trkpt lat="59.1822776" lon="17.8737809">
        <ele>66.6</ele>
        <time>2013-03-10T11:01:20Z</time>
      </trkpt>
      <trkpt lat="59.1822353" lon="17.8732682">
        <ele>65</ele>
        <time>2013-03-10T11:01:23Z</time>
      </trkpt>
      <trkpt lat="59.1822005" lon="17.8729214">
        <ele>64.4</ele>
        <time>2013-03-10T11:01:25Z</time>
      </trkpt>
      <trkpt lat="59.1821459" lon="17.8724249">
        <ele>63.8</ele>
        <time>2013-03-10T11:01:28Z</time>
      </trkpt>
      <trkpt lat="59.1820212" lon="17.8720306">
        <ele>63.6</ele>
        <time>2013-03-10T11:01:31Z</time>
      </trkpt>
      <trkpt lat="59.1819097" lon="17.871682">
        <ele>62.4</ele>
        <time>2013-03-10T11:01:34Z</time>
      </trkpt>
      <trkpt lat="59.181813" lon="17.8713506">
        <ele>61.2</ele>
        <time>2013-03-10T11:01:37Z</time>
      </trkpt>
      <trkpt lat="59.181714" lon="17.8710338">
        <ele>60.8</ele>
        <time>2013-03-10T11:01:40Z</time>
      </trkpt>
      <trkpt lat="59.1816178" lon="17.8707249">
        <ele>60.8</ele>
        <time>2013-03-10T11:01:43Z</time>
      </trkpt>
      <trkpt lat="59.1815011" lon="17.870348">
        <ele>61.6</ele>
        <time>2013-03-10T11:01:47Z</time>
      </trkpt>
      <trkpt lat="59.1813913" lon="17.8700083">
        <ele>61.6</ele>
        <time>2013-03-10T11:01:51Z</time>
      </trkpt>
      <trkpt lat="59.1812922" lon="17.8696909">
        <ele>59.8</ele>
        <time>2013-03-10T11:01:55Z</time>
      </trkpt>
      <trkpt lat="59.1812466" lon="17.8695191">
        <ele>59</ele>
        <time>2013-03-10T11:01:57Z</time>
      </trkpt>
      <trkpt lat="59.1811951" lon="17.8693318">
        <ele>58.6</ele>
        <time>2013-03-10T11:01:59Z</time>
      </trkpt>
      <trkpt lat="59.1811547" lon="17.8691859">
        <ele>57.4</ele>
        <time>2013-03-10T11:02:01Z</time>
      </trkpt>
      <trkpt lat="59.1810624" lon="17.8692265">
        <ele>54.8</ele>
        <time>2013-03-10T11:02:05Z</time>
      </trkpt>
      <trkpt lat="59.1810316" lon="17.8692485">
        <ele>54.2</ele>
        <time>2013-03-10T11:02:06Z</time>
      </trkpt>
      <trkpt lat="59.1808796" lon="17.8693323">
        <ele>52.4</ele>
        <time>2013-03-10T11:02:11Z</time>
      </trkpt>
      <trkpt lat="59.1806785" lon="17.8694487">
        <ele>48.2</ele>
        <time>2013-03-10T11:02:17Z</time>
      </trkpt>
      <trkpt lat="59.1804738" lon="17.8695671">
        <ele>43.8</ele>
        <time>2013-03-10T11:02:22Z</time>
      </trkpt>
      <trkpt lat="59.1802853" lon="17.8697173">
        <ele>39</ele>
        <time>2013-03-10T11:02:27Z</time>
      </trkpt>
      <trkpt lat="59.1801223" lon="17.8698269">
        <ele>36.8</ele>
        <time>2013-03-10T11:02:31Z</time>
      </trkpt>
      <trkpt lat="59.1800808" lon="17.8698394">
        <ele>36.8</ele>
        <time>2013-03-10T11:02:32Z</time>
      </trkpt>
      <trkpt lat="59.1798849" lon="17.8697939">
        <ele>36.8</ele>
        <time>2013-03-10T11:02:37Z</time>
      </trkpt>
      <trkpt lat="59.1798129" lon="17.8697275">
        <ele>36.6</ele>
        <time>2013-03-10T11:02:39Z</time>
      </trkpt>
      <trkpt lat="59.1797827" lon="17.8696722">
        <ele>37.6</ele>
        <time>2013-03-10T11:02:40Z</time>
      </trkpt>
      <trkpt lat="59.1797157" lon="17.8695825">
        <ele>37.2</ele>
        <time>2013-03-10T11:02:42Z</time>
      </trkpt>
      <trkpt lat="59.1796635" lon="17.8695202">
        <ele>37.6</ele>
        <time>2013-03-10T11:02:44Z</time>
      </trkpt>
      <trkpt lat="59.1795193" lon="17.8693923">
        <ele>37.2</ele>
        <time>2013-03-10T11:02:48Z</time>
      </trkpt>
      <trkpt lat="59.1793426" lon="17.8692955">
        <ele>37.4</ele>
        <time>2013-03-10T11:02:52Z</time>
      </trkpt>
      <trkpt lat="59.1792541" lon="17.8692337">
        <ele>38</ele>
        <time>2013-03-10T11:02:54Z</time>
      </trkpt>
      <trkpt lat="59.1791696" lon="17.8691706">
        <ele>38</ele>
        <time>2013-03-10T11:02:56Z</time>
      </trkpt>
      <trkpt lat="59.1791277" lon="17.8691376">
        <ele>38.2</ele>
        <time>2013-03-10T11:02:57Z</time>
      </trkpt>
      <trkpt lat="59.1789676" lon="17.8689932">
        <ele>37.8</ele>
        <time>2013-03-10T11:03:01Z</time>
      </trkpt>
      <trkpt lat="59.1789256" lon="17.8689621">
        <ele>37.8</ele>
        <time>2013-03-10T11:03:02Z</time>
      </trkpt>
      <trkpt lat="59.1788173" lon="17.8688608">
        <ele>38.6</ele>
        <time>2013-03-10T11:03:05Z</time>
      </trkpt>
      <trkpt lat="59.1787878" lon="17.8688133">
        <ele>38.8</ele>
        <time>2013-03-10T11:03:06Z</time>
      </trkpt>
      <trkpt lat="59.1786828" lon="17.8686973">
        <ele>40</ele>
        <time>2013-03-10T11:03:09Z</time>
      </trkpt>
      <trkpt lat="59.1786537" lon="17.8686764">
        <ele>40</ele>
        <time>2013-03-10T11:03:10Z</time>
      </trkpt>
      <trkpt lat="59.1786205" lon="17.8686526">
        <ele>40.2</ele>
        <time>2013-03-10T11:03:11Z</time>
      </trkpt>
      <trkpt lat="59.178504" lon="17.8685565">
        <ele>41.2</ele>
        <time>2013-03-10T11:03:15Z</time>
      </trkpt>
      <trkpt lat="59.1784283" lon="17.8684973">
        <ele>42.4</ele>
        <time>2013-03-10T11:03:17Z</time>
      </trkpt>
      <trkpt lat="59.1782589" lon="17.8683143">
        <ele>47.8</ele>
        <time>2013-03-10T11:03:23Z</time>
      </trkpt>
      <trkpt lat="59.17821" lon="17.8682715">
        <ele>48.8</ele>
        <time>2013-03-10T11:03:25Z</time>
      </trkpt>
      <trkpt lat="59.1780817" lon="17.868177">
        <ele>50.2</ele>
        <time>2013-03-10T11:03:30Z</time>
      </trkpt>
      <trkpt lat="59.1780384" lon="17.8681236">
        <ele>50.8</ele>
        <time>2013-03-10T11:03:32Z</time>
      </trkpt>
      <trkpt lat="59.1779094" lon="17.8680451">
        <ele>52.2</ele>
        <time>2013-03-10T11:03:36Z</time>
      </trkpt>
      <trkpt lat="59.1778518" lon="17.8680544">
        <ele>52.4</ele>
        <time>2013-03-10T11:03:38Z</time>
      </trkpt>
      <trkpt lat="59.1777306" lon="17.8681441">
        <ele>52.8</ele>
        <time>2013-03-10T11:03:43Z</time>
      </trkpt>
      <trkpt lat="59.1775442" lon="17.8682715">
        <ele>51.6</ele>
        <time>2013-03-10T11:03:50Z</time>
      </trkpt>
      <trkpt lat="59.1773849" lon="17.8684643">
        <ele>50.2</ele>
        <time>2013-03-10T11:03:56Z</time>
      </trkpt>
      <trkpt lat="59.1772263" lon="17.8686309">
        <ele>48.2</ele>
        <time>2013-03-10T11:04:00Z</time>
      </trkpt>
      <trkpt lat="59.1770719" lon="17.8687719">
        <ele>46</ele>
        <time>2013-03-10T11:04:04Z</time>
      </trkpt>
      <trkpt lat="59.1770355" lon="17.8688071">
        <ele>45.2</ele>
        <time>2013-03-10T11:04:05Z</time>
      </trkpt>
      <trkpt lat="59.1769388" lon="17.8689346">
        <ele>43.6</ele>
        <time>2013-03-10T11:04:08Z</time>
      </trkpt>
      <trkpt lat="59.1769114" lon="17.8689754">
        <ele>43.4</ele>
        <time>2013-03-10T11:04:09Z</time>
      </trkpt>
      <trkpt lat="59.1768841" lon="17.8690138">
        <ele>43.4</ele>
        <time>2013-03-10T11:04:10Z</time>
      </trkpt>
      <trkpt lat="59.1767765" lon="17.8691687">
        <ele>43</ele>
        <time>2013-03-10T11:04:14Z</time>
      </trkpt>
      <trkpt lat="59.1767365" lon="17.8692149">
        <ele>43.4</ele>
        <time>2013-03-10T11:04:16Z</time>
      </trkpt>
      <trkpt lat="59.1765692" lon="17.869358">
        <ele>43.6</ele>
        <time>2013-03-10T11:04:23Z</time>
      </trkpt>
      <trkpt lat="59.176382" lon="17.8693858">
        <ele>42</ele>
        <time>2013-03-10T11:04:29Z</time>
      </trkpt>
      <trkpt lat="59.1761865" lon="17.8693679">
        <ele>41.6</ele>
        <time>2013-03-10T11:04:35Z</time>
      </trkpt>
      <trkpt lat="59.1759994" lon="17.8693216">
        <ele>41.6</ele>
        <time>2013-03-10T11:04:40Z</time>
      </trkpt>
      <trkpt lat="59.1758222" lon="17.869163">
        <ele>43.6</ele>
        <time>2013-03-10T11:04:45Z</time>
      </trkpt>
      <trkpt lat="59.1756435" lon="17.8689677">
        <ele>46</ele>
        <time>2013-03-10T11:04:50Z</time>
      </trkpt>
      <trkpt lat="59.1755709" lon="17.8688775">
        <ele>46.6</ele>
        <time>2013-03-10T11:04:52Z</time>
      </trkpt>
      <trkpt lat="59.1754685" lon="17.8687724">
        <ele>47.6</ele>
        <time>2013-03-10T11:04:55Z</time>
      </trkpt>
      <trkpt lat="59.175299" lon="17.8686474">
        <ele>48.8</ele>
        <time>2013-03-10T11:04:59Z</time>
      </trkpt>
      <trkpt lat="59.1750994" lon="17.8686717">
        <ele>49.4</ele>
        <time>2013-03-10T11:05:03Z</time>
      </trkpt>
      <trkpt lat="59.1750474" lon="17.8686857">
        <ele>49.8</ele>
        <time>2013-03-10T11:05:04Z</time>
      </trkpt>
      <trkpt lat="59.1749955" lon="17.8686874">
        <ele>50.8</ele>
        <time>2013-03-10T11:05:05Z</time>
      </trkpt>
      <trkpt lat="59.1748882" lon="17.868682">
        <ele>50.2</ele>
        <time>2013-03-10T11:05:07Z</time>
      </trkpt>
      <trkpt lat="59.1747582" lon="17.8686634">
        <ele>50.8</ele>
        <time>2013-03-10T11:05:10Z</time>
      </trkpt>
      <trkpt lat="59.1747008" lon="17.8686639">
        <ele>51.8</ele>
        <time>2013-03-10T11:05:12Z</time>
      </trkpt>
      <trkpt lat="59.1745961" lon="17.8687328">
        <ele>52</ele>
        <time>2013-03-10T11:05:15Z</time>
      </trkpt>
      <trkpt lat="59.174506" lon="17.8687776">
        <ele>51.4</ele>
        <time>2013-03-10T11:05:17Z</time>
      </trkpt>
      <trkpt lat="59.1744615" lon="17.8687986">
        <ele>51.4</ele>
        <time>2013-03-10T11:05:18Z</time>
      </trkpt>
      <trkpt lat="59.1743287" lon="17.8688739">
        <ele>51.6</ele>
        <time>2013-03-10T11:05:21Z</time>
      </trkpt>
      <trkpt lat="59.1742832" lon="17.8688913">
        <ele>51.8</ele>
        <time>2013-03-10T11:05:22Z</time>
      </trkpt>
      <trkpt lat="59.174108" lon="17.8689618">
        <ele>53</ele>
        <time>2013-03-10T11:05:26Z</time>
      </trkpt>
      <trkpt lat="59.1740115" lon="17.8689942">
        <ele>53.4</ele>
        <time>2013-03-10T11:05:28Z</time>
      </trkpt>
      <trkpt lat="59.1738989" lon="17.8690666">
        <ele>53.4</ele>
        <time>2013-03-10T11:05:31Z</time>
      </trkpt>
      <trkpt lat="59.1737674" lon="17.8692242">
        <ele>53.2</ele>
        <time>2013-03-10T11:05:35Z</time>
      </trkpt>
      <trkpt lat="59.17373" lon="17.8692505">
        <ele>52.8</ele>
        <time>2013-03-10T11:05:36Z</time>
      </trkpt>
      <trkpt lat="59.1735346" lon="17.8693527">
        <ele>53</ele>
        <time>2013-03-10T11:05:41Z</time>
      </trkpt>
      <trkpt lat="59.1734813" lon="17.8693748">
        <ele>52.6</ele>
        <time>2013-03-10T11:05:42Z</time>
      </trkpt>
      <trkpt lat="59.1733247" lon="17.8693987">
        <ele>51.2</ele>
        <time>2013-03-10T11:05:45Z</time>
      </trkpt>
      <trkpt lat="59.1732744" lon="17.8694055">
        <ele>50.6</ele>
        <time>2013-03-10T11:05:46Z</time>
      </trkpt>
      <trkpt lat="59.1731446" lon="17.8695422">
        <ele>49</ele>
        <time>2013-03-10T11:05:50Z</time>
      </trkpt>
      <trkpt lat="59.1731074" lon="17.8696254">
        <ele>49.6</ele>
        <time>2013-03-10T11:05:52Z</time>
      </trkpt>
      <trkpt lat="59.1730933" lon="17.8696659">
        <ele>49.4</ele>
        <time>2013-03-10T11:05:53Z</time>
      </trkpt>
      <trkpt lat="59.1730168" lon="17.8698294">
        <ele>50.8</ele>
        <time>2013-03-10T11:05:57Z</time>
      </trkpt>
      <trkpt lat="59.1728903" lon="17.8700924">
        <ele>50.2</ele>
        <time>2013-03-10T11:06:03Z</time>
      </trkpt>
      <trkpt lat="59.1727272" lon="17.8703443">
        <ele>52.2</ele>
        <time>2013-03-10T11:06:10Z</time>
      </trkpt>
      <trkpt lat="59.1725834" lon="17.8705761">
        <ele>56.6</ele>
        <time>2013-03-10T11:06:17Z</time>
      </trkpt>
      <trkpt lat="59.172384" lon="17.8707927">
        <ele>57.6</ele>
        <time>2013-03-10T11:06:23Z</time>
      </trkpt>
      <trkpt lat="59.1722153" lon="17.871025">
        <ele>56.6</ele>
        <time>2013-03-10T11:06:26Z</time>
      </trkpt>
      <trkpt lat="59.1720827" lon="17.8712987">
        <ele>54.8</ele>
        <time>2013-03-10T11:06:29Z</time>
      </trkpt>
      <trkpt lat="59.1720043" lon="17.8714516">
        <ele>52.6</ele>
        <time>2013-03-10T11:06:31Z</time>
      </trkpt>
      <trkpt lat="59.171935" lon="17.8716282">
        <ele>53.2</ele>
        <time>2013-03-10T11:06:33Z</time>
      </trkpt>
      <trkpt lat="59.1719055" lon="17.8717043">
        <ele>52.6</ele>
        <time>2013-03-10T11:06:34Z</time>
      </trkpt>
      <trkpt lat="59.1718005" lon="17.8718735">
        <ele>50.6</ele>
        <time>2013-03-10T11:06:37Z</time>
      </trkpt>
      <trkpt lat="59.1716408" lon="17.8722009">
        <ele>48.6</ele>
        <time>2013-03-10T11:06:41Z</time>
      </trkpt>
      <trkpt lat="59.1715894" lon="17.872261">
        <ele>47.8</ele>
        <time>2013-03-10T11:06:42Z</time>
      </trkpt>
      <trkpt lat="59.1714968" lon="17.8723855">
        <ele>47.6</ele>
        <time>2013-03-10T11:06:44Z</time>
      </trkpt>
      <trkpt lat="59.1714585" lon="17.8724498">
        <ele>48</ele>
        <time>2013-03-10T11:06:45Z</time>
      </trkpt>
      <trkpt lat="59.171314" lon="17.8726695">
        <ele>47.4</ele>
        <time>2013-03-10T11:06:49Z</time>
      </trkpt>
      <trkpt lat="59.1711834" lon="17.8728515">
        <ele>47.8</ele>
        <time>2013-03-10T11:06:53Z</time>
      </trkpt>
      <trkpt lat="59.1711487" lon="17.8728952">
        <ele>47.6</ele>
        <time>2013-03-10T11:06:54Z</time>
      </trkpt>
      <trkpt lat="59.1710361" lon="17.8730929">
        <ele>48.8</ele>
        <time>2013-03-10T11:06:58Z</time>
      </trkpt>
      <trkpt lat="59.1710011" lon="17.8731295">
        <ele>49.2</ele>
        <time>2013-03-10T11:06:59Z</time>
      </trkpt>
      <trkpt lat="59.1708342" lon="17.8733412">
        <ele>49.6</ele>
        <time>2013-03-10T11:07:06Z</time>
      </trkpt>
      <trkpt lat="59.1707101" lon="17.8736225">
        <ele>50</ele>
        <time>2013-03-10T11:07:12Z</time>
      </trkpt>
      <trkpt lat="59.1705265" lon="17.8735256">
        <ele>50.2</ele>
        <time>2013-03-10T11:07:18Z</time>
      </trkpt>
      <trkpt lat="59.1704944" lon="17.8734837">
        <ele>51.2</ele>
        <time>2013-03-10T11:07:20Z</time>
      </trkpt>
      <trkpt lat="59.1703681" lon="17.8733526">
        <ele>53.6</ele>
        <time>2013-03-10T11:07:26Z</time>
      </trkpt>
      <trkpt lat="59.1701862" lon="17.8732255">
        <ele>55.8</ele>
        <time>2013-03-10T11:07:31Z</time>
      </trkpt>
      <trkpt lat="59.1699977" lon="17.873045">
        <ele>59.6</ele>
        <time>2013-03-10T11:07:38Z</time>
      </trkpt>
      <trkpt lat="59.1698095" lon="17.8729076">
        <ele>65.6</ele>
        <time>2013-03-10T11:07:44Z</time>
      </trkpt>
      <trkpt lat="59.1696563" lon="17.8727247">
        <ele>69</ele>
        <time>2013-03-10T11:07:49Z</time>
      </trkpt>
      <trkpt lat="59.16949" lon="17.8725397">
        <ele>71.6</ele>
        <time>2013-03-10T11:07:55Z</time>
      </trkpt>
      <trkpt lat="59.1693634" lon="17.8725208">
        <ele>75.2</ele>
        <time>2013-03-10T11:08:01Z</time>
      </trkpt>
      <trkpt lat="59.1692915" lon="17.87256">
        <ele>77</ele>
        <time>2013-03-10T11:08:05Z</time>
      </trkpt>
      <trkpt lat="59.1691056" lon="17.8726598">
        <ele>78.8</ele>
        <time>2013-03-10T11:08:14Z</time>
      </trkpt>
      <trkpt lat="59.1689129" lon="17.8725372">
        <ele>79.4</ele>
        <time>2013-03-10T11:08:22Z</time>
      </trkpt>
      <trkpt lat="59.1687555" lon="17.8723265">
        <ele>79</ele>
        <time>2013-03-10T11:08:28Z</time>
      </trkpt>
      <trkpt lat="59.1685748" lon="17.8722577">
        <ele>78.6</ele>
        <time>2013-03-10T11:08:33Z</time>
      </trkpt>
      <trkpt lat="59.1683986" lon="17.8721271">
        <ele>79.6</ele>
        <time>2013-03-10T11:08:38Z</time>
      </trkpt>
      <trkpt lat="59.1682727" lon="17.8718657">
        <ele>80.4</ele>
        <time>2013-03-10T11:08:43Z</time>
      </trkpt>
      <trkpt lat="59.168124" lon="17.8716518">
        <ele>81.8</ele>
        <time>2013-03-10T11:08:48Z</time>
      </trkpt>
      <trkpt lat="59.1679339" lon="17.8716053">
        <ele>83</ele>
        <time>2013-03-10T11:08:54Z</time>
      </trkpt>
      <trkpt lat="59.167727" lon="17.8716453">
        <ele>84.2</ele>
        <time>2013-03-10T11:09:01Z</time>
      </trkpt>
      <trkpt lat="59.167563" lon="17.8718241">
        <ele>86.2</ele>
        <time>2013-03-10T11:09:08Z</time>
      </trkpt>
      <trkpt lat="59.1674009" lon="17.871952">
        <ele>88.4</ele>
        <time>2013-03-10T11:09:14Z</time>
      </trkpt>
      <trkpt lat="59.1673684" lon="17.8719493">
        <ele>89</ele>
        <time>2013-03-10T11:09:15Z</time>
      </trkpt>
      <trkpt lat="59.1672688" lon="17.8718944">
        <ele>92.2</ele>
        <time>2013-03-10T11:09:18Z</time>
      </trkpt>
      <trkpt lat="59.167173" lon="17.8718426">
        <ele>93.8</ele>
        <time>2013-03-10T11:09:21Z</time>
      </trkpt>
      <trkpt lat="59.1669674" lon="17.8717499">
        <ele>97.8</ele>
        <time>2013-03-10T11:09:27Z</time>
      </trkpt>
      <trkpt lat="59.166775" lon="17.8718434">
        <ele>99</ele>
        <time>2013-03-10T11:09:33Z</time>
      </trkpt>
      <trkpt lat="59.1666138" lon="17.8720597">
        <ele>98.2</ele>
        <time>2013-03-10T11:09:38Z</time>
      </trkpt>
      <trkpt lat="59.1664206" lon="17.8721995">
        <ele>95.6</ele>
        <time>2013-03-10T11:09:43Z</time>
      </trkpt>
      <trkpt lat="59.1663374" lon="17.872214">
        <ele>94.2</ele>
        <time>2013-03-10T11:09:45Z</time>
      </trkpt>
      <trkpt lat="59.1662189" lon="17.8722406">
        <ele>93.6</ele>
        <time>2013-03-10T11:09:48Z</time>
      </trkpt>
      <trkpt lat="59.166183" lon="17.8722506">
        <ele>93.2</ele>
        <time>2013-03-10T11:09:49Z</time>
      </trkpt>
      <trkpt lat="59.1660345" lon="17.8722974">
        <ele>93</ele>
        <time>2013-03-10T11:09:53Z</time>
      </trkpt>
      <trkpt lat="59.1659883" lon="17.872314">
        <ele>92.6</ele>
        <time>2013-03-10T11:09:54Z</time>
      </trkpt>
      <trkpt lat="59.1658343" lon="17.8724367">
        <ele>91.8</ele>
        <time>2013-03-10T11:09:58Z</time>
      </trkpt>
      <trkpt lat="59.1656299" lon="17.8725522">
        <ele>91.8</ele>
        <time>2013-03-10T11:10:04Z</time>
      </trkpt>
      <trkpt lat="59.1654423" lon="17.8725643">
        <ele>93</ele>
        <time>2013-03-10T11:10:09Z</time>
      </trkpt>
      <trkpt lat="59.1652309" lon="17.8725636">
        <ele>95.2</ele>
        <time>2013-03-10T11:10:14Z</time>
      </trkpt>
      <trkpt lat="59.1651899" lon="17.8725521">
        <ele>94.8</ele>
        <time>2013-03-10T11:10:15Z</time>
      </trkpt>
      <trkpt lat="59.1650496" lon="17.8725027">
        <ele>95</ele>
        <time>2013-03-10T11:10:18Z</time>
      </trkpt>
      <trkpt lat="59.16493" lon="17.8724726">
        <ele>95.2</ele>
        <time>2013-03-10T11:10:20Z</time>
      </trkpt>
      <trkpt lat="59.1648678" lon="17.8724627">
        <ele>94.8</ele>
        <time>2013-03-10T11:10:21Z</time>
      </trkpt>
      <trkpt lat="59.1648114" lon="17.8724635">
        <ele>94</ele>
        <time>2013-03-10T11:10:22Z</time>
      </trkpt>
      <trkpt lat="59.1646586" lon="17.8725102">
        <ele>93.6</ele>
        <time>2013-03-10T11:10:25Z</time>
      </trkpt>
      <trkpt lat="59.1645032" lon="17.8726896">
        <ele>95</ele>
        <time>2013-03-10T11:10:29Z</time>
      </trkpt>
      <trkpt lat="59.1643726" lon="17.8729662">
        <ele>96.8</ele>
        <time>2013-03-10T11:10:34Z</time>
      </trkpt>
      <trkpt lat="59.1643212" lon="17.8730748">
        <ele>96.8</ele>
        <time>2013-03-10T11:10:36Z</time>
      </trkpt>
      <trkpt lat="59.1642412" lon="17.8732474">
        <ele>96</ele>
        <time>2013-03-10T11:10:39Z</time>
      </trkpt>
      <trkpt lat="59.1641088" lon="17.8736003">
        <ele>94.4</ele>
        <time>2013-03-10T11:10:44Z</time>
      </trkpt>
      <trkpt lat="59.1640544" lon="17.873796">
        <ele>94.4</ele>
        <time>2013-03-10T11:10:46Z</time>
      </trkpt>
      <trkpt lat="59.1640007" lon="17.8740039">
        <ele>93</ele>
        <time>2013-03-10T11:10:48Z</time>
      </trkpt>
      <trkpt lat="59.1638909" lon="17.8743729">
        <ele>90.6</ele>
        <time>2013-03-10T11:10:51Z</time>
      </trkpt>
      <trkpt lat="59.1638391" lon="17.8745105">
        <ele>89.4</ele>
        <time>2013-03-10T11:10:52Z</time>
      </trkpt>
      <trkpt lat="59.1637816" lon="17.8746524">
        <ele>88.4</ele>
        <time>2013-03-10T11:10:53Z</time>
      </trkpt>
      <trkpt lat="59.1636762" lon="17.874936">
        <ele>86.6</ele>
        <time>2013-03-10T11:10:55Z</time>
      </trkpt>
      <trkpt lat="59.163603" lon="17.8753728">
        <ele>86</ele>
        <time>2013-03-10T11:10:58Z</time>
      </trkpt>
      <trkpt lat="59.1635996" lon="17.8757681">
        <ele>84</ele>
        <time>2013-03-10T11:11:01Z</time>
      </trkpt>
      <trkpt lat="59.1635975" lon="17.8759841">
        <ele>83.8</ele>
        <time>2013-03-10T11:11:03Z</time>
      </trkpt>
      <trkpt lat="59.1636073" lon="17.8761721">
        <ele>83.4</ele>
        <time>2013-03-10T11:11:05Z</time>
      </trkpt>
      <trkpt lat="59.1635911" lon="17.8765379">
        <ele>81.2</ele>
        <time>2013-03-10T11:11:09Z</time>
      </trkpt>
      <trkpt lat="59.1635039" lon="17.876872">
        <ele>80</ele>
        <time>2013-03-10T11:11:13Z</time>
      </trkpt>
      <trkpt lat="59.1633225" lon="17.8767824">
        <ele>79.6</ele>
        <time>2013-03-10T11:11:17Z</time>
      </trkpt>
      <trkpt lat="59.1632661" lon="17.8766875">
        <ele>80.4</ele>
        <time>2013-03-10T11:11:19Z</time>
      </trkpt>
      <trkpt lat="59.1632118" lon="17.8765939">
        <ele>81</ele>
        <time>2013-03-10T11:11:21Z</time>
      </trkpt>
      <trkpt lat="59.1631748" lon="17.8765503">
        <ele>82.8</ele>
        <time>2013-03-10T11:11:23Z</time>
      </trkpt>
      <trkpt lat="59.1632615" lon="17.8760913">
        <ele>97.2</ele>
        <time>2013-03-10T11:11:58Z</time>
      </trkpt>
      <trkpt lat="59.1632691" lon="17.8760261">
        <ele>97.8</ele>
        <time>2013-03-10T11:11:59Z</time>
      </trkpt>
      <trkpt lat="59.1632915" lon="17.8756058">
        <ele>99.8</ele>
        <time>2013-03-10T11:12:04Z</time>
      </trkpt>
      <trkpt lat="59.1632465" lon="17.8752271">
        <ele>97.6</ele>
        <time>2013-03-10T11:12:08Z</time>
      </trkpt>
      <trkpt lat="59.1632264" lon="17.8748258">
        <ele>96.8</ele>
        <time>2013-03-10T11:12:13Z</time>
      </trkpt>
      <trkpt lat="59.1632459" lon="17.8746496">
        <ele>97</ele>
        <time>2013-03-10T11:12:15Z</time>
      </trkpt>
      <trkpt lat="59.1632649" lon="17.8744373">
        <ele>96.2</ele>
        <time>2013-03-10T11:12:17Z</time>
      </trkpt>
      <trkpt lat="59.1632775" lon="17.8741444">
        <ele>94.2</ele>
        <time>2013-03-10T11:12:20Z</time>
      </trkpt>
      <trkpt lat="59.1632729" lon="17.8740607">
        <ele>93.6</ele>
        <time>2013-03-10T11:12:21Z</time>
      </trkpt>
      <trkpt lat="59.1632096" lon="17.873824">
        <ele>91</ele>
        <time>2013-03-10T11:12:24Z</time>
      </trkpt>
      <trkpt lat="59.1631844" lon="17.8737489">
        <ele>90</ele>
        <time>2013-03-10T11:12:25Z</time>
      </trkpt>
      <trkpt lat="59.1631014" lon="17.8733526">
        <ele>88.6</ele>
        <time>2013-03-10T11:12:30Z</time>
      </trkpt>
      <trkpt lat="59.1630976" lon="17.8732791">
        <ele>88.8</ele>
        <time>2013-03-10T11:12:31Z</time>
      </trkpt>
      <trkpt lat="59.1631422" lon="17.8729615">
        <ele>89.8</ele>
        <time>2013-03-10T11:12:35Z</time>
      </trkpt>
      <trkpt lat="59.1631606" lon="17.8725993">
        <ele>89.4</ele>
        <time>2013-03-10T11:12:39Z</time>
      </trkpt>
      <trkpt lat="59.1631748" lon="17.8723231">
        <ele>88.8</ele>
        <time>2013-03-10T11:12:42Z</time>
      </trkpt>
      <trkpt lat="59.1631754" lon="17.8722294">
        <ele>88.4</ele>
        <time>2013-03-10T11:12:43Z</time>
      </trkpt>
      <trkpt lat="59.1631879" lon="17.8721336">
        <ele>88</ele>
        <time>2013-03-10T11:12:44Z</time>
      </trkpt>
      <trkpt lat="59.1632402" lon="17.8718486">
        <ele>88.2</ele>
        <time>2013-03-10T11:12:47Z</time>
      </trkpt>
      <trkpt lat="59.1632899" lon="17.871678">
        <ele>87.6</ele>
        <time>2013-03-10T11:12:49Z</time>
      </trkpt>
      <trkpt lat="59.1633133" lon="17.8715919">
        <ele>87.4</ele>
        <time>2013-03-10T11:12:50Z</time>
      </trkpt>
      <trkpt lat="59.163338" lon="17.8715131">
        <ele>89.4</ele>
        <time>2013-03-10T11:12:51Z</time>
      </trkpt>
      <trkpt lat="59.1633827" lon="17.8711794">
        <ele>89.6</ele>
        <time>2013-03-10T11:12:55Z</time>
      </trkpt>
      <trkpt lat="59.1633838" lon="17.8711081">
        <ele>89</ele>
        <time>2013-03-10T11:12:56Z</time>
      </trkpt>
      <trkpt lat="59.1633972" lon="17.8709615">
        <ele>88.6</ele>
        <time>2013-03-10T11:12:58Z</time>
      </trkpt>
      <trkpt lat="59.1634474" lon="17.8707646">
        <ele>88</ele>
        <time>2013-03-10T11:13:01Z</time>
      </trkpt>
      <trkpt lat="59.1634785" lon="17.8706972">
        <ele>88.4</ele>
        <time>2013-03-10T11:13:02Z</time>
      </trkpt>
      <trkpt lat="59.163512" lon="17.8706444">
        <ele>88.8</ele>
        <time>2013-03-10T11:13:03Z</time>
      </trkpt>
      <trkpt lat="59.1636112" lon="17.8705067">
        <ele>88.6</ele>
        <time>2013-03-10T11:13:06Z</time>
      </trkpt>
      <trkpt lat="59.1637018" lon="17.8702114">
        <ele>90</ele>
        <time>2013-03-10T11:13:11Z</time>
      </trkpt>
      <trkpt lat="59.1636152" lon="17.8697857">
        <ele>89.2</ele>
        <time>2013-03-10T11:13:17Z</time>
      </trkpt>
      <trkpt lat="59.1635897" lon="17.8695586">
        <ele>89.2</ele>
        <time>2013-03-10T11:13:19Z</time>
      </trkpt>
      <trkpt lat="59.1635824" lon="17.8693459">
        <ele>91.2</ele>
        <time>2013-03-10T11:13:21Z</time>
      </trkpt>
      <trkpt lat="59.1635877" lon="17.8690524">
        <ele>91</ele>
        <time>2013-03-10T11:13:24Z</time>
      </trkpt>
      <trkpt lat="59.1635883" lon="17.8689598">
        <ele>90.6</ele>
        <time>2013-03-10T11:13:25Z</time>
      </trkpt>
      <trkpt lat="59.1636013" lon="17.8687054">
        <ele>89.8</ele>
        <time>2013-03-10T11:13:28Z</time>
      </trkpt>
      <trkpt lat="59.1636285" lon="17.868567">
        <ele>90.2</ele>
        <time>2013-03-10T11:13:30Z</time>
      </trkpt>
      <trkpt lat="59.1636749" lon="17.8683244">
        <ele>90.6</ele>
        <time>2013-03-10T11:13:33Z</time>
      </trkpt>
      <trkpt lat="59.1636852" lon="17.8682393">
        <ele>90.2</ele>
        <time>2013-03-10T11:13:34Z</time>
      </trkpt>
      <trkpt lat="59.1637053" lon="17.8678234">
        <ele>89.4</ele>
        <time>2013-03-10T11:13:39Z</time>
      </trkpt>
      <trkpt lat="59.1637091" lon="17.8676794">
        <ele>90.6</ele>
        <time>2013-03-10T11:13:41Z</time>
      </trkpt>
      <trkpt lat="59.163705" lon="17.8674253">
        <ele>96</ele>
        <time>2013-03-10T11:13:45Z</time>
      </trkpt>
      <trkpt lat="59.1637287" lon="17.8672318">
        <ele>99.2</ele>
        <time>2013-03-10T11:13:48Z</time>
      </trkpt>
      <trkpt lat="59.1637593" lon="17.8670769">
        <ele>100.6</ele>
        <time>2013-03-10T11:13:51Z</time>
      </trkpt>
      <trkpt lat="59.1638587" lon="17.8667714">
        <ele>103.2</ele>
        <time>2013-03-10T11:13:58Z</time>
      </trkpt>
      <trkpt lat="59.1640239" lon="17.8665589">
        <ele>107.2</ele>
        <time>2013-03-10T11:14:06Z</time>
      </trkpt>
      <trkpt lat="59.1642083" lon="17.8663036">
        <ele>106.2</ele>
        <time>2013-03-10T11:14:12Z</time>
      </trkpt>
      <trkpt lat="59.1643861" lon="17.8660481">
        <ele>104</ele>
        <time>2013-03-10T11:14:17Z</time>
      </trkpt>
      <trkpt lat="59.1644151" lon="17.8659952">
        <ele>104</ele>
        <time>2013-03-10T11:14:18Z</time>
      </trkpt>
      <trkpt lat="59.164502" lon="17.8658285">
        <ele>102.2</ele>
        <time>2013-03-10T11:14:21Z</time>
      </trkpt>
      <trkpt lat="59.1645379" lon="17.8657758">
        <ele>102.2</ele>
        <time>2013-03-10T11:14:22Z</time>
      </trkpt>
      <trkpt lat="59.1645797" lon="17.8657213">
        <ele>102</ele>
        <time>2013-03-10T11:14:23Z</time>
      </trkpt>
      <trkpt lat="59.1646999" lon="17.8655538">
        <ele>100</ele>
        <time>2013-03-10T11:14:26Z</time>
      </trkpt>
      <trkpt lat="59.1648544" lon="17.8652846">
        <ele>98.6</ele>
        <time>2013-03-10T11:14:30Z</time>
      </trkpt>
      <trkpt lat="59.1649273" lon="17.8651415">
        <ele>96.8</ele>
        <time>2013-03-10T11:14:32Z</time>
      </trkpt>
      <trkpt lat="59.1650018" lon="17.865">
        <ele>95.6</ele>
        <time>2013-03-10T11:14:34Z</time>
      </trkpt>
      <trkpt lat="59.1651175" lon="17.8647852">
        <ele>94</ele>
        <time>2013-03-10T11:14:37Z</time>
      </trkpt>
      <trkpt lat="59.1651611" lon="17.8647074">
        <ele>93.8</ele>
        <time>2013-03-10T11:14:38Z</time>
      </trkpt>
      <trkpt lat="59.1653222" lon="17.8644154">
        <ele>91.6</ele>
        <time>2013-03-10T11:14:42Z</time>
      </trkpt>
      <trkpt lat="59.1654261" lon="17.8642852">
        <ele>91.2</ele>
        <time>2013-03-10T11:14:44Z</time>
      </trkpt>
      <trkpt lat="59.1654758" lon="17.8642268">
        <ele>91</ele>
        <time>2013-03-10T11:14:45Z</time>
      </trkpt>
      <trkpt lat="59.1655874" lon="17.8640348">
        <ele>88.6</ele>
        <time>2013-03-10T11:14:48Z</time>
      </trkpt>
      <trkpt lat="59.1656179" lon="17.863961">
        <ele>88.2</ele>
        <time>2013-03-10T11:14:49Z</time>
      </trkpt>
      <trkpt lat="59.1656457" lon="17.8638832">
        <ele>87.8</ele>
        <time>2013-03-10T11:14:50Z</time>
      </trkpt>
      <trkpt lat="59.165733" lon="17.8636772">
        <ele>86.4</ele>
        <time>2013-03-10T11:14:53Z</time>
      </trkpt>
      <trkpt lat="59.1657625" lon="17.8636197">
        <ele>85.8</ele>
        <time>2013-03-10T11:14:54Z</time>
      </trkpt>
      <trkpt lat="59.1658548" lon="17.8634194">
        <ele>83.6</ele>
        <time>2013-03-10T11:14:57Z</time>
      </trkpt>
      <trkpt lat="59.1658796" lon="17.863354">
        <ele>82.8</ele>
        <time>2013-03-10T11:14:58Z</time>
      </trkpt>
      <trkpt lat="59.1659146" lon="17.863287">
        <ele>83.2</ele>
        <time>2013-03-10T11:14:59Z</time>
      </trkpt>
      <trkpt lat="59.1659872" lon="17.8631597">
        <ele>83.6</ele>
        <time>2013-03-10T11:15:01Z</time>
      </trkpt>
      <trkpt lat="59.1660577" lon="17.8630103">
        <ele>83.8</ele>
        <time>2013-03-10T11:15:03Z</time>
      </trkpt>
      <trkpt lat="59.1661181" lon="17.8628386">
        <ele>83.8</ele>
        <time>2013-03-10T11:15:05Z</time>
      </trkpt>
      <trkpt lat="59.1662861" lon="17.8626051">
        <ele>84.2</ele>
        <time>2013-03-10T11:15:09Z</time>
      </trkpt>
      <trkpt lat="59.1663217" lon="17.862562">
        <ele>83.4</ele>
        <time>2013-03-10T11:15:10Z</time>
      </trkpt>
      <trkpt lat="59.1664434" lon="17.8624103">
        <ele>83</ele>
        <time>2013-03-10T11:15:13Z</time>
      </trkpt>
      <trkpt lat="59.1664782" lon="17.8623538">
        <ele>82.6</ele>
        <time>2013-03-10T11:15:14Z</time>
      </trkpt>
      <trkpt lat="59.1665748" lon="17.8621459">
        <ele>82.8</ele>
        <time>2013-03-10T11:15:17Z</time>
      </trkpt>
      <trkpt lat="59.1666918" lon="17.8619335">
        <ele>81.6</ele>
        <time>2013-03-10T11:15:21Z</time>
      </trkpt>
      <trkpt lat="59.166731" lon="17.8619093">
        <ele>81.4</ele>
        <time>2013-03-10T11:15:22Z</time>
      </trkpt>
      <trkpt lat="59.1667725" lon="17.8618891">
        <ele>82</ele>
        <time>2013-03-10T11:15:23Z</time>
      </trkpt>
      <trkpt lat="59.166872" lon="17.861768">
        <ele>82.2</ele>
        <time>2013-03-10T11:15:26Z</time>
      </trkpt>
      <trkpt lat="59.1668906" lon="17.8616933">
        <ele>82</ele>
        <time>2013-03-10T11:15:27Z</time>
      </trkpt>
      <trkpt lat="59.1669382" lon="17.861302">
        <ele>84.4</ele>
        <time>2013-03-10T11:15:32Z</time>
      </trkpt>
      <trkpt lat="59.166934" lon="17.8608643">
        <ele>84.4</ele>
        <time>2013-03-10T11:15:37Z</time>
      </trkpt>
      <trkpt lat="59.1668926" lon="17.8604534">
        <ele>83</ele>
        <time>2013-03-10T11:15:41Z</time>
      </trkpt>
      <trkpt lat="59.166876" lon="17.8600561">
        <ele>82.4</ele>
        <time>2013-03-10T11:15:44Z</time>
      </trkpt>
      <trkpt lat="59.1668728" lon="17.8596905">
        <ele>82.6</ele>
        <time>2013-03-10T11:15:47Z</time>
      </trkpt>
      <trkpt lat="59.1668851" lon="17.8594797">
        <ele>82.6</ele>
        <time>2013-03-10T11:15:49Z</time>
      </trkpt>
      <trkpt lat="59.1669005" lon="17.8593012">
        <ele>82.6</ele>
        <time>2013-03-10T11:15:51Z</time>
      </trkpt>
      <trkpt lat="59.166914" lon="17.8588649">
        <ele>85.2</ele>
        <time>2013-03-10T11:15:55Z</time>
      </trkpt>
      <trkpt lat="59.1669155" lon="17.8587138">
        <ele>84.8</ele>
        <time>2013-03-10T11:15:56Z</time>
      </trkpt>
      <trkpt lat="59.1669238" lon="17.8585615">
        <ele>84.2</ele>
        <time>2013-03-10T11:15:57Z</time>
      </trkpt>
      <trkpt lat="59.1669409" lon="17.8584117">
        <ele>83.2</ele>
        <time>2013-03-10T11:15:58Z</time>
      </trkpt>
      <trkpt lat="59.1670021" lon="17.858105">
        <ele>82.2</ele>
        <time>2013-03-10T11:16:00Z</time>
      </trkpt>
      <trkpt lat="59.167045" lon="17.8579641">
        <ele>82</ele>
        <time>2013-03-10T11:16:01Z</time>
      </trkpt>
      <trkpt lat="59.1671653" lon="17.8575708">
        <ele>81.6</ele>
        <time>2013-03-10T11:16:04Z</time>
      </trkpt>
      <trkpt lat="59.1671937" lon="17.8574388">
        <ele>81.4</ele>
        <time>2013-03-10T11:16:05Z</time>
      </trkpt>
      <trkpt lat="59.1672197" lon="17.857166">
        <ele>82.4</ele>
        <time>2013-03-10T11:16:07Z</time>
      </trkpt>
      <trkpt lat="59.1672153" lon="17.8568928">
        <ele>83</ele>
        <time>2013-03-10T11:16:09Z</time>
      </trkpt>
      <trkpt lat="59.1672155" lon="17.8567592">
        <ele>83.2</ele>
        <time>2013-03-10T11:16:10Z</time>
      </trkpt>
      <trkpt lat="59.1672596" lon="17.856398">
        <ele>83.2</ele>
        <time>2013-03-10T11:16:13Z</time>
      </trkpt>
      <trkpt lat="59.1673124" lon="17.8560779">
        <ele>82.6</ele>
        <time>2013-03-10T11:16:16Z</time>
      </trkpt>
      <trkpt lat="59.1673196" lon="17.855961">
        <ele>81.6</ele>
        <time>2013-03-10T11:16:17Z</time>
      </trkpt>
      <trkpt lat="59.1673434" lon="17.8557335">
        <ele>79.8</ele>
        <time>2013-03-10T11:16:19Z</time>
      </trkpt>
      <trkpt lat="59.1673777" lon="17.855534">
        <ele>79.4</ele>
        <time>2013-03-10T11:16:21Z</time>
      </trkpt>
      <trkpt lat="59.1675583" lon="17.8553336">
        <ele>77.6</ele>
        <time>2013-03-10T11:16:25Z</time>
      </trkpt>
      <trkpt lat="59.1676734" lon="17.8550543">
        <ele>72.2</ele>
        <time>2013-03-10T11:16:31Z</time>
      </trkpt>
      <trkpt lat="59.1675588" lon="17.8548416">
        <ele>70</ele>
        <time>2013-03-10T11:16:34Z</time>
      </trkpt>
      <trkpt lat="59.1675277" lon="17.8547778">
        <ele>70</ele>
        <time>2013-03-10T11:16:35Z</time>
      </trkpt>
      <trkpt lat="59.1674511" lon="17.8544466">
        <ele>73</ele>
        <time>2013-03-10T11:16:40Z</time>
      </trkpt>
      <trkpt lat="59.167434" lon="17.8543635">
        <ele>73</ele>
        <time>2013-03-10T11:16:41Z</time>
      </trkpt>
      <trkpt lat="59.1673929" lon="17.854069">
        <ele>73.8</ele>
        <time>2013-03-10T11:16:44Z</time>
      </trkpt>
      <trkpt lat="59.1673865" lon="17.8539737">
        <ele>74</ele>
        <time>2013-03-10T11:16:45Z</time>
      </trkpt>
      <trkpt lat="59.1673689" lon="17.8536755">
        <ele>73.4</ele>
        <time>2013-03-10T11:16:48Z</time>
      </trkpt>
      <trkpt lat="59.16736" lon="17.8535838">
        <ele>74.2</ele>
        <time>2013-03-10T11:16:49Z</time>
      </trkpt>
      <trkpt lat="59.1673039" lon="17.8533249">
        <ele>74.6</ele>
        <time>2013-03-10T11:16:52Z</time>
      </trkpt>
      <trkpt lat="59.1672802" lon="17.8532378">
        <ele>75.4</ele>
        <time>2013-03-10T11:16:53Z</time>
      </trkpt>
      <trkpt lat="59.1672283" lon="17.852975">
        <ele>75.6</ele>
        <time>2013-03-10T11:16:56Z</time>
      </trkpt>
      <trkpt lat="59.1672031" lon="17.8527995">
        <ele>76.6</ele>
        <time>2013-03-10T11:16:59Z</time>
      </trkpt>
      <trkpt lat="59.1671983" lon="17.852687">
        <ele>76.4</ele>
        <time>2013-03-10T11:17:01Z</time>
      </trkpt>
      <trkpt lat="59.1672067" lon="17.8526201">
        <ele>76.8</ele>
        <time>2013-03-10T11:17:02Z</time>
      </trkpt>
      <trkpt lat="59.1672512" lon="17.8522415">
        <ele>78.4</ele>
        <time>2013-03-10T11:17:07Z</time>
      </trkpt>
      <trkpt lat="59.1672814" lon="17.8518516">
        <ele>80</ele>
        <time>2013-03-10T11:17:14Z</time>
      </trkpt>
      <trkpt lat="59.1673306" lon="17.8514972">
        <ele>81.4</ele>
        <time>2013-03-10T11:17:21Z</time>
      </trkpt>
      <trkpt lat="59.1674133" lon="17.8511353">
        <ele>81.2</ele>
        <time>2013-03-10T11:17:26Z</time>
      </trkpt>
      <trkpt lat="59.1675457" lon="17.8509203">
        <ele>81.2</ele>
        <time>2013-03-10T11:17:29Z</time>
      </trkpt>
      <trkpt lat="59.1677904" lon="17.8508271">
        <ele>79.8</ele>
        <time>2013-03-10T11:17:33Z</time>
      </trkpt>
      <trkpt lat="59.1678648" lon="17.8508197">
        <ele>79.4</ele>
        <time>2013-03-10T11:17:34Z</time>
      </trkpt>
      <trkpt lat="59.16801" lon="17.8508953">
        <ele>80</ele>
        <time>2013-03-10T11:17:36Z</time>
      </trkpt>
      <trkpt lat="59.1681872" lon="17.8511821">
        <ele>82.6</ele>
        <time>2013-03-10T11:17:40Z</time>
      </trkpt>
      <trkpt lat="59.1682214" lon="17.8512394">
        <ele>83</ele>
        <time>2013-03-10T11:17:41Z</time>
      </trkpt>
      <trkpt lat="59.1682516" lon="17.8512858">
        <ele>83.6</ele>
        <time>2013-03-10T11:17:42Z</time>
      </trkpt>
      <trkpt lat="59.1683411" lon="17.8513698">
        <ele>83.4</ele>
        <time>2013-03-10T11:17:45Z</time>
      </trkpt>
      <trkpt lat="59.1683757" lon="17.8514095">
        <ele>82.4</ele>
        <time>2013-03-10T11:17:46Z</time>
      </trkpt>
      <trkpt lat="59.1684995" lon="17.8516568">
        <ele>78.8</ele>
        <time>2013-03-10T11:17:50Z</time>
      </trkpt>
      <trkpt lat="59.1685332" lon="17.85172">
        <ele>78</ele>
        <time>2013-03-10T11:17:51Z</time>
      </trkpt>
      <trkpt lat="59.1686017" lon="17.8520143">
        <ele>74.4</ele>
        <time>2013-03-10T11:17:55Z</time>
      </trkpt>
      <trkpt lat="59.1687349" lon="17.852287">
        <ele>72.6</ele>
        <time>2013-03-10T11:17:59Z</time>
      </trkpt>
      <trkpt lat="59.1688853" lon="17.8525876">
        <ele>73.2</ele>
        <time>2013-03-10T11:18:04Z</time>
      </trkpt>
      <trkpt lat="59.1689135" lon="17.8526311">
        <ele>73</ele>
        <time>2013-03-10T11:18:05Z</time>
      </trkpt>
      <trkpt lat="59.1690223" lon="17.8527503">
        <ele>72.2</ele>
        <time>2013-03-10T11:18:08Z</time>
      </trkpt>
      <trkpt lat="59.1690517" lon="17.852811">
        <ele>72</ele>
        <time>2013-03-10T11:18:09Z</time>
      </trkpt>
      <trkpt lat="59.1690901" lon="17.8530626">
        <ele>71.4</ele>
        <time>2013-03-10T11:18:12Z</time>
      </trkpt>
      <trkpt lat="59.1691124" lon="17.8531449">
        <ele>71.4</ele>
        <time>2013-03-10T11:18:13Z</time>
      </trkpt>
      <trkpt lat="59.1692648" lon="17.8534367">
        <ele>68.8</ele>
        <time>2013-03-10T11:18:18Z</time>
      </trkpt>
      <trkpt lat="59.1693497" lon="17.853633">
        <ele>68.4</ele>
        <time>2013-03-10T11:18:21Z</time>
      </trkpt>
      <trkpt lat="59.1693947" lon="17.8537522">
        <ele>68.8</ele>
        <time>2013-03-10T11:18:23Z</time>
      </trkpt>
      <trkpt lat="59.1694673" lon="17.8539429">
        <ele>67.4</ele>
        <time>2013-03-10T11:18:26Z</time>
      </trkpt>
      <trkpt lat="59.1695313" lon="17.8540672">
        <ele>67</ele>
        <time>2013-03-10T11:18:28Z</time>
      </trkpt>
      <trkpt lat="59.169565" lon="17.8541273">
        <ele>67.6</ele>
        <time>2013-03-10T11:18:29Z</time>
      </trkpt>
      <trkpt lat="59.1696217" lon="17.8542143">
        <ele>66.4</ele>
        <time>2013-03-10T11:18:31Z</time>
      </trkpt>
      <trkpt lat="59.1696755" lon="17.8542977">
        <ele>67.2</ele>
        <time>2013-03-10T11:18:34Z</time>
      </trkpt>
      <trkpt lat="59.1698201" lon="17.8545307">
        <ele>72.8</ele>
        <time>2013-03-10T11:18:42Z</time>
      </trkpt>
      <trkpt lat="59.1699159" lon="17.8549027">
        <ele>73</ele>
        <time>2013-03-10T11:18:49Z</time>
      </trkpt>
      <trkpt lat="59.1700273" lon="17.8552478">
        <ele>71.8</ele>
        <time>2013-03-10T11:18:54Z</time>
      </trkpt>
      <trkpt lat="59.1701343" lon="17.855563">
        <ele>70</ele>
        <time>2013-03-10T11:18:58Z</time>
      </trkpt>
      <trkpt lat="59.1701654" lon="17.8556449">
        <ele>70.6</ele>
        <time>2013-03-10T11:18:59Z</time>
      </trkpt>
      <trkpt lat="59.170236" lon="17.8559103">
        <ele>72</ele>
        <time>2013-03-10T11:19:02Z</time>
      </trkpt>
      <trkpt lat="59.1703578" lon="17.8562453">
        <ele>76.8</ele>
        <time>2013-03-10T11:19:06Z</time>
      </trkpt>
      <trkpt lat="59.1704441" lon="17.8564691">
        <ele>78.8</ele>
        <time>2013-03-10T11:19:09Z</time>
      </trkpt>
      <trkpt lat="59.1704685" lon="17.8565453">
        <ele>80</ele>
        <time>2013-03-10T11:19:10Z</time>
      </trkpt>
      <trkpt lat="59.1705134" lon="17.8567002">
        <ele>82.6</ele>
        <time>2013-03-10T11:19:12Z</time>
      </trkpt>
      <trkpt lat="59.1705658" lon="17.8568493">
        <ele>84</ele>
        <time>2013-03-10T11:19:14Z</time>
      </trkpt>
      <trkpt lat="59.1706799" lon="17.8571102">
        <ele>81.6</ele>
        <time>2013-03-10T11:19:18Z</time>
      </trkpt>
      <trkpt lat="59.1707139" lon="17.8571799">
        <ele>81.6</ele>
        <time>2013-03-10T11:19:19Z</time>
      </trkpt>
      <trkpt lat="59.1707984" lon="17.8574772">
        <ele>79</ele>
        <time>2013-03-10T11:19:23Z</time>
      </trkpt>
      <trkpt lat="59.1708087" lon="17.8575559">
        <ele>78</ele>
        <time>2013-03-10T11:19:24Z</time>
      </trkpt>
      <trkpt lat="59.1708378" lon="17.8578323">
        <ele>74.4</ele>
        <time>2013-03-10T11:19:28Z</time>
      </trkpt>
      <trkpt lat="59.1708424" lon="17.8579206">
        <ele>74.8</ele>
        <time>2013-03-10T11:19:29Z</time>
      </trkpt>
      <trkpt lat="59.1708779" lon="17.8582304">
        <ele>73.2</ele>
        <time>2013-03-10T11:19:33Z</time>
      </trkpt>
      <trkpt lat="59.1709" lon="17.8583355">
        <ele>74.2</ele>
        <time>2013-03-10T11:19:34Z</time>
      </trkpt>
      <trkpt lat="59.1709375" lon="17.8584526">
        <ele>76.6</ele>
        <time>2013-03-10T11:19:35Z</time>
      </trkpt>
      <trkpt lat="59.1710156" lon="17.8586556">
        <ele>78</ele>
        <time>2013-03-10T11:19:37Z</time>
      </trkpt>
      <trkpt lat="59.1711803" lon="17.8588586">
        <ele>78.8</ele>
        <time>2013-03-10T11:19:40Z</time>
      </trkpt>
      <trkpt lat="59.1713352" lon="17.859053">
        <ele>80.2</ele>
        <time>2013-03-10T11:19:43Z</time>
      </trkpt>
      <trkpt lat="59.1714775" lon="17.8592732">
        <ele>78.6</ele>
        <time>2013-03-10T11:19:46Z</time>
      </trkpt>
      <trkpt lat="59.1715201" lon="17.859357">
        <ele>78.8</ele>
        <time>2013-03-10T11:19:47Z</time>
      </trkpt>
      <trkpt lat="59.1716564" lon="17.8595329">
        <ele>78.4</ele>
        <time>2013-03-10T11:19:50Z</time>
      </trkpt>
      <trkpt lat="59.171703" lon="17.8595756">
        <ele>78.2</ele>
        <time>2013-03-10T11:19:51Z</time>
      </trkpt>
      <trkpt lat="59.171748" lon="17.8596274">
        <ele>77.4</ele>
        <time>2013-03-10T11:19:52Z</time>
      </trkpt>
      <trkpt lat="59.1718416" lon="17.8597767">
        <ele>77.2</ele>
        <time>2013-03-10T11:19:54Z</time>
      </trkpt>
      <trkpt lat="59.1719359" lon="17.8599227">
        <ele>78.2</ele>
        <time>2013-03-10T11:19:56Z</time>
      </trkpt>
      <trkpt lat="59.172051" lon="17.8600139">
        <ele>76.8</ele>
        <time>2013-03-10T11:19:58Z</time>
      </trkpt>
      <trkpt lat="59.1722334" lon="17.8601409">
        <ele>75.6</ele>
        <time>2013-03-10T11:20:01Z</time>
      </trkpt>
      <trkpt lat="59.1724349" lon="17.8603168">
        <ele>74.8</ele>
        <time>2013-03-10T11:20:05Z</time>
      </trkpt>
      <trkpt lat="59.1725508" lon="17.8604521">
        <ele>73.8</ele>
        <time>2013-03-10T11:20:08Z</time>
      </trkpt>
      <trkpt lat="59.1726229" lon="17.8605478">
        <ele>73</ele>
        <time>2013-03-10T11:20:10Z</time>
      </trkpt>
      <trkpt lat="59.1727001" lon="17.8606111">
        <ele>71.8</ele>
        <time>2013-03-10T11:20:12Z</time>
      </trkpt>
      <trkpt lat="59.1727474" lon="17.8606338">
        <ele>71.2</ele>
        <time>2013-03-10T11:20:13Z</time>
      </trkpt>
      <trkpt lat="59.1728046" lon="17.8606568">
        <ele>71.4</ele>
        <time>2013-03-10T11:20:14Z</time>
      </trkpt>
      <trkpt lat="59.1729115" lon="17.8606971">
        <ele>71</ele>
        <time>2013-03-10T11:20:16Z</time>
      </trkpt>
      <trkpt lat="59.1730157" lon="17.860725">
        <ele>71</ele>
        <time>2013-03-10T11:20:18Z</time>
      </trkpt>
      <trkpt lat="59.1730616" lon="17.8607483">
        <ele>71</ele>
        <time>2013-03-10T11:20:19Z</time>
      </trkpt>
      <trkpt lat="59.1731719" lon="17.8608611">
        <ele>72.6</ele>
        <time>2013-03-10T11:20:23Z</time>
      </trkpt>
      <trkpt lat="59.1732016" lon="17.8608933">
        <ele>72.4</ele>
        <time>2013-03-10T11:20:24Z</time>
      </trkpt>
      <trkpt lat="59.1733858" lon="17.8609886">
        <ele>72.6</ele>
        <time>2013-03-10T11:20:28Z</time>
      </trkpt>
      <trkpt lat="59.1734993" lon="17.8610049">
        <ele>71.8</ele>
        <time>2013-03-10T11:20:30Z</time>
      </trkpt>
      <trkpt lat="59.1736054" lon="17.8609656">
        <ele>70.8</ele>
        <time>2013-03-10T11:20:32Z</time>
      </trkpt>
      <trkpt lat="59.1737905" lon="17.8606976">
        <ele>69.4</ele>
        <time>2013-03-10T11:20:36Z</time>
      </trkpt>
      <trkpt lat="59.1738318" lon="17.8606114">
        <ele>68.8</ele>
        <time>2013-03-10T11:20:37Z</time>
      </trkpt>
      <trkpt lat="59.1739429" lon="17.8604009">
        <ele>68.2</ele>
        <time>2013-03-10T11:20:40Z</time>
      </trkpt>
      <trkpt lat="59.1741163" lon="17.8602121">
        <ele>67.8</ele>
        <time>2013-03-10T11:20:44Z</time>
      </trkpt>
      <trkpt lat="59.1742976" lon="17.8600101">
        <ele>69.4</ele>
        <time>2013-03-10T11:20:48Z</time>
      </trkpt>
      <trkpt lat="59.1744495" lon="17.8598324">
        <ele>67.6</ele>
        <time>2013-03-10T11:20:52Z</time>
      </trkpt>
      <trkpt lat="59.1744881" lon="17.8598014">
        <ele>68</ele>
        <time>2013-03-10T11:20:53Z</time>
      </trkpt>
      <trkpt lat="59.1746234" lon="17.8596394">
        <ele>65.8</ele>
        <time>2013-03-10T11:20:57Z</time>
      </trkpt>
      <trkpt lat="59.1746509" lon="17.8595904">
        <ele>65.6</ele>
        <time>2013-03-10T11:20:58Z</time>
      </trkpt>
      <trkpt lat="59.1747043" lon="17.8594602">
        <ele>65</ele>
        <time>2013-03-10T11:21:00Z</time>
      </trkpt>
      <trkpt lat="59.1747778" lon="17.8592612">
        <ele>64.2</ele>
        <time>2013-03-10T11:21:03Z</time>
      </trkpt>
      <trkpt lat="59.1748899" lon="17.8590431">
        <ele>64.8</ele>
        <time>2013-03-10T11:21:07Z</time>
      </trkpt>
      <trkpt lat="59.1749234" lon="17.8589973">
        <ele>64.8</ele>
        <time>2013-03-10T11:21:08Z</time>
      </trkpt>
      <trkpt lat="59.1749595" lon="17.8589642">
        <ele>65.2</ele>
        <time>2013-03-10T11:21:09Z</time>
      </trkpt>
      <trkpt lat="59.1751232" lon="17.8588679">
        <ele>64</ele>
        <time>2013-03-10T11:21:13Z</time>
      </trkpt>
      <trkpt lat="59.1751974" lon="17.8588376">
        <ele>63.4</ele>
        <time>2013-03-10T11:21:15Z</time>
      </trkpt>
      <trkpt lat="59.1752331" lon="17.8588116">
        <ele>64.6</ele>
        <time>2013-03-10T11:21:16Z</time>
      </trkpt>
      <trkpt lat="59.1753024" lon="17.8587572">
        <ele>65.8</ele>
        <time>2013-03-10T11:21:18Z</time>
      </trkpt>
      <trkpt lat="59.1754611" lon="17.8585265">
        <ele>69.4</ele>
        <time>2013-03-10T11:21:25Z</time>
      </trkpt>
      <trkpt lat="59.1755098" lon="17.8581308">
        <ele>72.8</ele>
        <time>2013-03-10T11:21:32Z</time>
      </trkpt>
      <trkpt lat="59.1756068" lon="17.8578153">
        <ele>73.4</ele>
        <time>2013-03-10T11:21:38Z</time>
      </trkpt>
      <trkpt lat="59.1755708" lon="17.8574382">
        <ele>74</ele>
        <time>2013-03-10T11:21:43Z</time>
      </trkpt>
      <trkpt lat="59.1755474" lon="17.8570307">
        <ele>73.4</ele>
        <time>2013-03-10T11:21:48Z</time>
      </trkpt>
      <trkpt lat="59.1755262" lon="17.8568581">
        <ele>73.4</ele>
        <time>2013-03-10T11:21:50Z</time>
      </trkpt>
      <trkpt lat="59.1755295" lon="17.8566695">
        <ele>73</ele>
        <time>2013-03-10T11:21:53Z</time>
      </trkpt>
      <trkpt lat="59.1756428" lon="17.856386">
        <ele>74</ele>
        <time>2013-03-10T11:21:59Z</time>
      </trkpt>
      <trkpt lat="59.1758122" lon="17.8562262">
        <ele>73.6</ele>
        <time>2013-03-10T11:22:05Z</time>
      </trkpt>
      <trkpt lat="59.1759205" lon="17.8560944">
        <ele>70.8</ele>
        <time>2013-03-10T11:22:10Z</time>
      </trkpt>
      <trkpt lat="59.1759838" lon="17.8560469">
        <ele>70.6</ele>
        <time>2013-03-10T11:22:12Z</time>
      </trkpt>
      <trkpt lat="59.1761719" lon="17.8559087">
        <ele>71.8</ele>
        <time>2013-03-10T11:22:18Z</time>
      </trkpt>
      <trkpt lat="59.1763495" lon="17.8559553">
        <ele>70.4</ele>
        <time>2013-03-10T11:22:23Z</time>
      </trkpt>
      <trkpt lat="59.176481" lon="17.8560967">
        <ele>71.6</ele>
        <time>2013-03-10T11:22:28Z</time>
      </trkpt>
      <trkpt lat="59.1765195" lon="17.8561721">
        <ele>71.4</ele>
        <time>2013-03-10T11:22:30Z</time>
      </trkpt>
      <trkpt lat="59.1767102" lon="17.8562079">
        <ele>72.2</ele>
        <time>2013-03-10T11:22:38Z</time>
      </trkpt>
      <trkpt lat="59.1769095" lon="17.856136">
        <ele>70.6</ele>
        <time>2013-03-10T11:22:42Z</time>
      </trkpt>
      <trkpt lat="59.1770777" lon="17.8559892">
        <ele>68.4</ele>
        <time>2013-03-10T11:22:45Z</time>
      </trkpt>
      <trkpt lat="59.1771814" lon="17.8558665">
        <ele>67.6</ele>
        <time>2013-03-10T11:22:47Z</time>
      </trkpt>
      <trkpt lat="59.1772255" lon="17.8557914">
        <ele>67</ele>
        <time>2013-03-10T11:22:48Z</time>
      </trkpt>
      <trkpt lat="59.1773477" lon="17.8555772">
        <ele>68.2</ele>
        <time>2013-03-10T11:22:51Z</time>
      </trkpt>
      <trkpt lat="59.1773765" lon="17.8555301">
        <ele>68.6</ele>
        <time>2013-03-10T11:22:52Z</time>
      </trkpt>
      <trkpt lat="59.1774266" lon="17.8554532">
        <ele>69.2</ele>
        <time>2013-03-10T11:22:54Z</time>
      </trkpt>
      <trkpt lat="59.177484" lon="17.8553941">
        <ele>68.6</ele>
        <time>2013-03-10T11:22:56Z</time>
      </trkpt>
      <trkpt lat="59.1775457" lon="17.8553331">
        <ele>68.6</ele>
        <time>2013-03-10T11:22:58Z</time>
      </trkpt>
      <trkpt lat="59.177648" lon="17.8551135">
        <ele>70.8</ele>
        <time>2013-03-10T11:23:02Z</time>
      </trkpt>
      <trkpt lat="59.1776856" lon="17.8550617">
        <ele>70.6</ele>
        <time>2013-03-10T11:23:03Z</time>
      </trkpt>
      <trkpt lat="59.1778729" lon="17.8549478">
        <ele>70.4</ele>
        <time>2013-03-10T11:23:07Z</time>
      </trkpt>
      <trkpt lat="59.1780129" lon="17.8549368">
        <ele>70.2</ele>
        <time>2013-03-10T11:23:10Z</time>
      </trkpt>
      <trkpt lat="59.1780603" lon="17.8549654">
        <ele>71.2</ele>
        <time>2013-03-10T11:23:11Z</time>
      </trkpt>
      <trkpt lat="59.1781774" lon="17.8550488">
        <ele>73</ele>
        <time>2013-03-10T11:23:15Z</time>
      </trkpt>
      <trkpt lat="59.1782652" lon="17.8550519">
        <ele>74.8</ele>
        <time>2013-03-10T11:23:17Z</time>
      </trkpt>
      <trkpt lat="59.1784875" lon="17.8550238">
        <ele>75.6</ele>
        <time>2013-03-10T11:23:21Z</time>
      </trkpt>
      <trkpt lat="59.1786851" lon="17.8550112">
        <ele>75.2</ele>
        <time>2013-03-10T11:23:24Z</time>
      </trkpt>
      <trkpt lat="59.1788935" lon="17.8549757">
        <ele>74.8</ele>
        <time>2013-03-10T11:23:27Z</time>
      </trkpt>
      <trkpt lat="59.1789541" lon="17.8549489">
        <ele>75.4</ele>
        <time>2013-03-10T11:23:28Z</time>
      </trkpt>
      <trkpt lat="59.1790949" lon="17.8547654">
        <ele>75.6</ele>
        <time>2013-03-10T11:23:31Z</time>
      </trkpt>
      <trkpt lat="59.1792425" lon="17.8544174">
        <ele>74.6</ele>
        <time>2013-03-10T11:23:35Z</time>
      </trkpt>
      <trkpt lat="59.1792664" lon="17.8543203">
        <ele>74.4</ele>
        <time>2013-03-10T11:23:36Z</time>
      </trkpt>
      <trkpt lat="59.1793073" lon="17.8541308">
        <ele>74.8</ele>
        <time>2013-03-10T11:23:38Z</time>
      </trkpt>
      <trkpt lat="59.1793197" lon="17.8540283">
        <ele>75</ele>
        <time>2013-03-10T11:23:39Z</time>
      </trkpt>
      <trkpt lat="59.1793307" lon="17.8536497">
        <ele>75.6</ele>
        <time>2013-03-10T11:23:43Z</time>
      </trkpt>
      <trkpt lat="59.1793181" lon="17.8535662">
        <ele>74.8</ele>
        <time>2013-03-10T11:23:44Z</time>
      </trkpt>
      <trkpt lat="59.1793013" lon="17.853327">
        <ele>74.8</ele>
        <time>2013-03-10T11:23:47Z</time>
      </trkpt>
      <trkpt lat="59.1793025" lon="17.8532543">
        <ele>74.8</ele>
        <time>2013-03-10T11:23:48Z</time>
      </trkpt>
      <trkpt lat="59.1793173" lon="17.8528744">
        <ele>74.8</ele>
        <time>2013-03-10T11:23:53Z</time>
      </trkpt>
      <trkpt lat="59.1793455" lon="17.8525907">
        <ele>73.8</ele>
        <time>2013-03-10T11:23:56Z</time>
      </trkpt>
      <trkpt lat="59.1793649" lon="17.8525101">
        <ele>73.8</ele>
        <time>2013-03-10T11:23:57Z</time>
      </trkpt>
      <trkpt lat="59.1794743" lon="17.8522879">
        <ele>72.8</ele>
        <time>2013-03-10T11:24:01Z</time>
      </trkpt>
      <trkpt lat="59.1795054" lon="17.8522447">
        <ele>72.4</ele>
        <time>2013-03-10T11:24:02Z</time>
      </trkpt>
      <trkpt lat="59.179541" lon="17.8522036">
        <ele>73</ele>
        <time>2013-03-10T11:24:03Z</time>
      </trkpt>
      <trkpt lat="59.1796292" lon="17.8520653">
        <ele>72.4</ele>
        <time>2013-03-10T11:24:06Z</time>
      </trkpt>
      <trkpt lat="59.1796642" lon="17.8520174">
        <ele>72.4</ele>
        <time>2013-03-10T11:24:07Z</time>
      </trkpt>
      <trkpt lat="59.1797493" lon="17.8519237">
        <ele>72.6</ele>
        <time>2013-03-10T11:24:10Z</time>
      </trkpt>
      <trkpt lat="59.1798284" lon="17.8518151">
        <ele>72.8</ele>
        <time>2013-03-10T11:24:13Z</time>
      </trkpt>
      <trkpt lat="59.1800337" lon="17.8516462">
        <ele>69.4</ele>
        <time>2013-03-10T11:24:18Z</time>
      </trkpt>
      <trkpt lat="59.1802097" lon="17.8515611">
        <ele>66.2</ele>
        <time>2013-03-10T11:24:21Z</time>
      </trkpt>
      <trkpt lat="59.1802693" lon="17.8515139">
        <ele>65.4</ele>
        <time>2013-03-10T11:24:22Z</time>
      </trkpt>
      <trkpt lat="59.1803864" lon="17.851432">
        <ele>63.2</ele>
        <time>2013-03-10T11:24:24Z</time>
      </trkpt>
      <trkpt lat="59.1805066" lon="17.8514029">
        <ele>61.8</ele>
        <time>2013-03-10T11:24:26Z</time>
      </trkpt>
      <trkpt lat="59.1805703" lon="17.8514093">
        <ele>62</ele>
        <time>2013-03-10T11:24:27Z</time>
      </trkpt>
      <trkpt lat="59.1807515" lon="17.851645">
        <ele>59.4</ele>
        <time>2013-03-10T11:24:31Z</time>
      </trkpt>
      <trkpt lat="59.1807598" lon="17.8520214">
        <ele>62</ele>
        <time>2013-03-10T11:24:35Z</time>
      </trkpt>
      <trkpt lat="59.1807565" lon="17.8521002">
        <ele>62.8</ele>
        <time>2013-03-10T11:24:36Z</time>
      </trkpt>
      <trkpt lat="59.18074" lon="17.8521691">
        <ele>63</ele>
        <time>2013-03-10T11:24:37Z</time>
      </trkpt>
      <trkpt lat="59.1807589" lon="17.8525395">
        <ele>74</ele>
        <time>2013-03-10T11:25:21Z</time>
      </trkpt>
      <trkpt lat="59.1807764" lon="17.8525975">
        <ele>74</ele>
        <time>2013-03-10T11:25:22Z</time>
      </trkpt>
      <trkpt lat="59.1808257" lon="17.8529281">
        <ele>70.2</ele>
        <time>2013-03-10T11:25:26Z</time>
      </trkpt>
      <trkpt lat="59.1808705" lon="17.8533327">
        <ele>67.6</ele>
        <time>2013-03-10T11:25:31Z</time>
      </trkpt>
      <trkpt lat="59.1808732" lon="17.8534159">
        <ele>67.2</ele>
        <time>2013-03-10T11:25:32Z</time>
      </trkpt>
      <trkpt lat="59.1808987" lon="17.8536796">
        <ele>64.6</ele>
        <time>2013-03-10T11:25:35Z</time>
      </trkpt>
      <trkpt lat="59.180922" lon="17.8538359">
        <ele>64</ele>
        <time>2013-03-10T11:25:37Z</time>
      </trkpt>
      <trkpt lat="59.1809427" lon="17.8539112">
        <ele>64.4</ele>
        <time>2013-03-10T11:25:38Z</time>
      </trkpt>
      <trkpt lat="59.1809842" lon="17.8540598">
        <ele>64</ele>
        <time>2013-03-10T11:25:40Z</time>
      </trkpt>
      <trkpt lat="59.1810406" lon="17.8542955">
        <ele>62.8</ele>
        <time>2013-03-10T11:25:43Z</time>
      </trkpt>
      <trkpt lat="59.1810779" lon="17.8544136">
        <ele>62.2</ele>
        <time>2013-03-10T11:25:45Z</time>
      </trkpt>
      <trkpt lat="59.1811132" lon="17.8545375">
        <ele>61.6</ele>
        <time>2013-03-10T11:25:47Z</time>
      </trkpt>
      <trkpt lat="59.181167" lon="17.854727">
        <ele>60.6</ele>
        <time>2013-03-10T11:25:50Z</time>
      </trkpt>
      <trkpt lat="59.1813369" lon="17.8548693">
        <ele>61.4</ele>
        <time>2013-03-10T11:25:55Z</time>
      </trkpt>
      <trkpt lat="59.181365" lon="17.8548689">
        <ele>62</ele>
        <time>2013-03-10T11:25:56Z</time>
      </trkpt>
      <trkpt lat="59.181539" lon="17.8548352">
        <ele>63.4</ele>
        <time>2013-03-10T11:26:01Z</time>
      </trkpt>
      <trkpt lat="59.1817444" lon="17.8547416">
        <ele>64.8</ele>
        <time>2013-03-10T11:26:07Z</time>
      </trkpt>
      <trkpt lat="59.1819145" lon="17.8546219">
        <ele>64.4</ele>
        <time>2013-03-10T11:26:12Z</time>
      </trkpt>
      <trkpt lat="59.1821133" lon="17.8545284">
        <ele>65.6</ele>
        <time>2013-03-10T11:26:18Z</time>
      </trkpt>
      <trkpt lat="59.182274" lon="17.8543721">
        <ele>66</ele>
        <time>2013-03-10T11:26:25Z</time>
      </trkpt>
      <trkpt lat="59.1823212" lon="17.8543042">
        <ele>65.8</ele>
        <time>2013-03-10T11:26:27Z</time>
      </trkpt>
      <trkpt lat="59.1824561" lon="17.8543226">
        <ele>66.8</ele>
        <time>2013-03-10T11:26:32Z</time>
      </trkpt>
      <trkpt lat="59.1826449" lon="17.8544007">
        <ele>67.2</ele>
        <time>2013-03-10T11:26:39Z</time>
      </trkpt>
      <trkpt lat="59.1828266" lon="17.8544977">
        <ele>67.8</ele>
        <time>2013-03-10T11:26:45Z</time>
      </trkpt>
      <trkpt lat="59.182978" lon="17.8547753">
        <ele>67</ele>
        <time>2013-03-10T11:26:51Z</time>
      </trkpt>
      <trkpt lat="59.1831516" lon="17.8549255">
        <ele>68</ele>
        <time>2013-03-10T11:26:57Z</time>
      </trkpt>
      <trkpt lat="59.1833297" lon="17.8550543">
        <ele>69.6</ele>
        <time>2013-03-10T11:27:04Z</time>
      </trkpt>
      <trkpt lat="59.1835204" lon="17.8551653">
        <ele>73.2</ele>
        <time>2013-03-10T11:27:12Z</time>
      </trkpt>
      <trkpt lat="59.1836843" lon="17.8553699">
        <ele>75.6</ele>
        <time>2013-03-10T11:27:20Z</time>
      </trkpt>
      <trkpt lat="59.1838384" lon="17.8556516">
        <ele>78</ele>
        <time>2013-03-10T11:27:28Z</time>
      </trkpt>
      <trkpt lat="59.1839121" lon="17.8557864">
        <ele>78.2</ele>
        <time>2013-03-10T11:27:31Z</time>
      </trkpt>
      <trkpt lat="59.1839663" lon="17.8559066">
        <ele>79.8</ele>
        <time>2013-03-10T11:27:34Z</time>
      </trkpt>
      <trkpt lat="59.1840661" lon="17.8562406">
        <ele>80.2</ele>
        <time>2013-03-10T11:27:41Z</time>
      </trkpt>
      <trkpt lat="59.1841487" lon="17.8566005">
        <ele>78.6</ele>
        <time>2013-03-10T11:27:47Z</time>
      </trkpt>
      <trkpt lat="59.1841725" lon="17.8569787">
        <ele>78</ele>
        <time>2013-03-10T11:27:51Z</time>
      </trkpt>
      <trkpt lat="59.1841851" lon="17.857341">
        <ele>75.8</ele>
        <time>2013-03-10T11:27:55Z</time>
      </trkpt>
      <trkpt lat="59.1842254" lon="17.8577588">
        <ele>73</ele>
        <time>2013-03-10T11:28:00Z</time>
      </trkpt>
      <trkpt lat="59.1842506" lon="17.8581361">
        <ele>73</ele>
        <time>2013-03-10T11:28:03Z</time>
      </trkpt>
      <trkpt lat="59.1842694" lon="17.8582897">
        <ele>73.2</ele>
        <time>2013-03-10T11:28:04Z</time>
      </trkpt>
      <trkpt lat="59.184335" lon="17.8585995">
        <ele>73.4</ele>
        <time>2013-03-10T11:28:06Z</time>
      </trkpt>
      <trkpt lat="59.1844496" lon="17.8588712">
        <ele>71.8</ele>
        <time>2013-03-10T11:28:08Z</time>
      </trkpt>
      <trkpt lat="59.1846786" lon="17.8591322">
        <ele>69.6</ele>
        <time>2013-03-10T11:28:11Z</time>
      </trkpt>
      <trkpt lat="59.184806" lon="17.8592991">
        <ele>68.6</ele>
        <time>2013-03-10T11:28:13Z</time>
      </trkpt>
      <trkpt lat="59.1848573" lon="17.8594011">
        <ele>68.6</ele>
        <time>2013-03-10T11:28:14Z</time>
      </trkpt>
      <trkpt lat="59.1849475" lon="17.8597275">
        <ele>69</ele>
        <time>2013-03-10T11:28:17Z</time>
      </trkpt>
      <trkpt lat="59.1849242" lon="17.8601226">
        <ele>66</ele>
        <time>2013-03-10T11:28:22Z</time>
      </trkpt>
      <trkpt lat="59.1849402" lon="17.8603657">
        <ele>63.6</ele>
        <time>2013-03-10T11:28:25Z</time>
      </trkpt>
      <trkpt lat="59.184964" lon="17.8605459">
        <ele>62.2</ele>
        <time>2013-03-10T11:28:27Z</time>
      </trkpt>
      <trkpt lat="59.1850122" lon="17.8608603">
        <ele>60.6</ele>
        <time>2013-03-10T11:28:30Z</time>
      </trkpt>
      <trkpt lat="59.1850208" lon="17.8609889">
        <ele>59.6</ele>
        <time>2013-03-10T11:28:31Z</time>
      </trkpt>
      <trkpt lat="59.1850019" lon="17.861398">
        <ele>57</ele>
        <time>2013-03-10T11:28:34Z</time>
      </trkpt>
      <trkpt lat="59.1849908" lon="17.8615311">
        <ele>56.8</ele>
        <time>2013-03-10T11:28:35Z</time>
      </trkpt>
      <trkpt lat="59.1849599" lon="17.8617833">
        <ele>56</ele>
        <time>2013-03-10T11:28:37Z</time>
      </trkpt>
      <trkpt lat="59.1849397" lon="17.8619015">
        <ele>55.2</ele>
        <time>2013-03-10T11:28:38Z</time>
      </trkpt>
      <trkpt lat="59.1848348" lon="17.8621604">
        <ele>53</ele>
        <time>2013-03-10T11:28:41Z</time>
      </trkpt>
      <trkpt lat="59.1847879" lon="17.8622173">
        <ele>52</ele>
        <time>2013-03-10T11:28:42Z</time>
      </trkpt>
      <trkpt lat="59.1846521" lon="17.8624186">
        <ele>49.6</ele>
        <time>2013-03-10T11:28:45Z</time>
      </trkpt>
      <trkpt lat="59.1844814" lon="17.8627302">
        <ele>46.6</ele>
        <time>2013-03-10T11:28:49Z</time>
      </trkpt>
      <trkpt lat="59.1844298" lon="17.8628028">
        <ele>46.6</ele>
        <time>2013-03-10T11:28:50Z</time>
      </trkpt>
      <trkpt lat="59.1842988" lon="17.8629701">
        <ele>46.2</ele>
        <time>2013-03-10T11:28:53Z</time>
      </trkpt>
      <trkpt lat="59.1842153" lon="17.8630789">
        <ele>45.2</ele>
        <time>2013-03-10T11:28:55Z</time>
      </trkpt>
      <trkpt lat="59.1841474" lon="17.8631986">
        <ele>44.8</ele>
        <time>2013-03-10T11:28:57Z</time>
      </trkpt>
      <trkpt lat="59.1841155" lon="17.8635959">
        <ele>45.2</ele>
        <time>2013-03-10T11:29:02Z</time>
      </trkpt>
      <trkpt lat="59.1841511" lon="17.8639848">
        <ele>45.8</ele>
        <time>2013-03-10T11:29:06Z</time>
      </trkpt>
      <trkpt lat="59.184115" lon="17.8643491">
        <ele>47.2</ele>
        <time>2013-03-10T11:29:10Z</time>
      </trkpt>
      <trkpt lat="59.1840855" lon="17.8645093">
        <ele>47.8</ele>
        <time>2013-03-10T11:29:12Z</time>
      </trkpt>
      <trkpt lat="59.1840622" lon="17.8645841">
        <ele>47.6</ele>
        <time>2013-03-10T11:29:13Z</time>
      </trkpt>
      <trkpt lat="59.1840358" lon="17.8646603">
        <ele>47.4</ele>
        <time>2013-03-10T11:29:14Z</time>
      </trkpt>
      <trkpt lat="59.1839876" lon="17.8648138">
        <ele>47</ele>
        <time>2013-03-10T11:29:16Z</time>
      </trkpt>
      <trkpt lat="59.1839889" lon="17.8650365">
        <ele>47.4</ele>
        <time>2013-03-10T11:29:18Z</time>
      </trkpt>
      <trkpt lat="59.1840404" lon="17.8652533">
        <ele>48.4</ele>
        <time>2013-03-10T11:29:21Z</time>
      </trkpt>
      <trkpt lat="59.1840715" lon="17.8653255">
        <ele>48.6</ele>
        <time>2013-03-10T11:29:22Z</time>
      </trkpt>
      <trkpt lat="59.1840972" lon="17.8654084">
        <ele>49.6</ele>
        <time>2013-03-10T11:29:23Z</time>
      </trkpt>
      <trkpt lat="59.1841516" lon="17.8657478">
        <ele>51.4</ele>
        <time>2013-03-10T11:29:27Z</time>
      </trkpt>
      <trkpt lat="59.1842414" lon="17.8660673">
        <ele>52.2</ele>
        <time>2013-03-10T11:29:34Z</time>
      </trkpt>
      <trkpt lat="59.1842797" lon="17.8661346">
        <ele>51.6</ele>
        <time>2013-03-10T11:29:35Z</time>
      </trkpt>
      <trkpt lat="59.1844073" lon="17.8663382">
        <ele>50.4</ele>
        <time>2013-03-10T11:29:38Z</time>
      </trkpt>
      <trkpt lat="59.1844559" lon="17.8663973">
        <ele>51.2</ele>
        <time>2013-03-10T11:29:39Z</time>
      </trkpt>
      <trkpt lat="59.1845766" lon="17.8665999">
        <ele>52.2</ele>
        <time>2013-03-10T11:29:42Z</time>
      </trkpt>
      <trkpt lat="59.1846682" lon="17.8667734">
        <ele>54.2</ele>
        <time>2013-03-10T11:29:45Z</time>
      </trkpt>
      <trkpt lat="59.1847226" lon="17.8668655">
        <ele>53.6</ele>
        <time>2013-03-10T11:29:47Z</time>
      </trkpt>
      <trkpt lat="59.184762" lon="17.8669675">
        <ele>53</ele>
        <time>2013-03-10T11:29:49Z</time>
      </trkpt>
      <trkpt lat="59.1848128" lon="17.8671988">
        <ele>54.4</ele>
        <time>2013-03-10T11:29:55Z</time>
      </trkpt>
      <trkpt lat="59.1848167" lon="17.8672178">
        <ele>54.6</ele>
        <time>2013-03-10T11:29:56Z</time>
      </trkpt>
      <trkpt lat="59.184966" lon="17.8674119">
        <ele>58.6</ele>
        <time>2013-03-10T11:30:10Z</time>
      </trkpt>
      <trkpt lat="59.1850707" lon="17.8676871">
        <ele>62.4</ele>
        <time>2013-03-10T11:30:23Z</time>
      </trkpt>
      <trkpt lat="59.1850747" lon="17.8677077">
        <ele>63</ele>
        <time>2013-03-10T11:30:24Z</time>
      </trkpt>
      <trkpt lat="59.1850757" lon="17.8677244">
        <ele>63.8</ele>
        <time>2013-03-10T11:30:25Z</time>
      </trkpt>
      <trkpt lat="59.1851189" lon="17.8678509">
        <ele>67.2</ele>
        <time>2013-03-10T11:30:32Z</time>
      </trkpt>
      <trkpt lat="59.1851925" lon="17.8679503">
        <ele>68.8</ele>
        <time>2013-03-10T11:30:37Z</time>
      </trkpt>
      <trkpt lat="59.1853386" lon="17.8681894">
        <ele>70.8</ele>
        <time>2013-03-10T11:30:44Z</time>
      </trkpt>
      <trkpt lat="59.1854313" lon="17.8683714">
        <ele>69</ele>
        <time>2013-03-10T11:30:50Z</time>
      </trkpt>
      <trkpt lat="59.1854541" lon="17.8684674">
        <ele>67.8</ele>
        <time>2013-03-10T11:30:52Z</time>
      </trkpt>
      <trkpt lat="59.185566" lon="17.868762">
        <ele>66.6</ele>
        <time>2013-03-10T11:30:57Z</time>
      </trkpt>
      <trkpt lat="59.1856295" lon="17.8689194">
        <ele>66.4</ele>
        <time>2013-03-10T11:31:00Z</time>
      </trkpt>
      <trkpt lat="59.1856871" lon="17.8691063">
        <ele>66.6</ele>
        <time>2013-03-10T11:31:03Z</time>
      </trkpt>
      <trkpt lat="59.1857529" lon="17.8693415">
        <ele>66</ele>
        <time>2013-03-10T11:31:06Z</time>
      </trkpt>
      <trkpt lat="59.1857758" lon="17.8694225">
        <ele>65.2</ele>
        <time>2013-03-10T11:31:07Z</time>
      </trkpt>
      <trkpt lat="59.1858239" lon="17.8697078">
        <ele>63</ele>
        <time>2013-03-10T11:31:10Z</time>
      </trkpt>
      <trkpt lat="59.1858348" lon="17.8698116">
        <ele>63.4</ele>
        <time>2013-03-10T11:31:11Z</time>
      </trkpt>
      <trkpt lat="59.1858498" lon="17.8700107">
        <ele>62.2</ele>
        <time>2013-03-10T11:31:13Z</time>
      </trkpt>
      <trkpt lat="59.1858654" lon="17.870183">
        <ele>61.4</ele>
        <time>2013-03-10T11:31:15Z</time>
      </trkpt>
      <trkpt lat="59.1859434" lon="17.8705242">
        <ele>58.8</ele>
        <time>2013-03-10T11:31:19Z</time>
      </trkpt>
      <trkpt lat="59.1860875" lon="17.8707541">
        <ele>59.6</ele>
        <time>2013-03-10T11:31:23Z</time>
      </trkpt>
      <trkpt lat="59.1861269" lon="17.8707867">
        <ele>59.2</ele>
        <time>2013-03-10T11:31:24Z</time>
      </trkpt>
      <trkpt lat="59.1862202" lon="17.8708857">
        <ele>58</ele>
        <time>2013-03-10T11:31:26Z</time>
      </trkpt>
      <trkpt lat="59.1862646" lon="17.8709584">
        <ele>57.6</ele>
        <time>2013-03-10T11:31:27Z</time>
      </trkpt>
      <trkpt lat="59.1863563" lon="17.8713334">
        <ele>57.4</ele>
        <time>2013-03-10T11:31:31Z</time>
      </trkpt>
      <trkpt lat="59.1863772" lon="17.8714757">
        <ele>57.8</ele>
        <time>2013-03-10T11:31:33Z</time>
      </trkpt>
      <trkpt lat="59.1863995" lon="17.8715908">
        <ele>58.8</ele>
        <time>2013-03-10T11:31:35Z</time>
      </trkpt>
      <trkpt lat="59.1864242" lon="17.8717176">
        <ele>60</ele>
        <time>2013-03-10T11:31:37Z</time>
      </trkpt>
      <trkpt lat="59.1864461" lon="17.871942">
        <ele>59.8</ele>
        <time>2013-03-10T11:31:40Z</time>
      </trkpt>
      <trkpt lat="59.1864326" lon="17.8720933">
        <ele>60.8</ele>
        <time>2013-03-10T11:31:42Z</time>
      </trkpt>
      <trkpt lat="59.1864296" lon="17.8722208">
        <ele>61.4</ele>
        <time>2013-03-10T11:31:44Z</time>
      </trkpt>
      <trkpt lat="59.1864959" lon="17.872405">
        <ele>61.6</ele>
        <time>2013-03-10T11:31:48Z</time>
      </trkpt>
      <trkpt lat="59.1865927" lon="17.8727206">
        <ele>65.4</ele>
        <time>2013-03-10T11:31:53Z</time>
      </trkpt>
      <trkpt lat="59.1866578" lon="17.8731055">
        <ele>67.6</ele>
        <time>2013-03-10T11:31:58Z</time>
      </trkpt>
      <trkpt lat="59.1866831" lon="17.8734721">
        <ele>68.8</ele>
        <time>2013-03-10T11:32:03Z</time>
      </trkpt>
      <trkpt lat="59.1867558" lon="17.8738441">
        <ele>67</ele>
        <time>2013-03-10T11:32:08Z</time>
      </trkpt>
      <trkpt lat="59.1868316" lon="17.8741841">
        <ele>66.6</ele>
        <time>2013-03-10T11:32:13Z</time>
      </trkpt>
      <trkpt lat="59.186929" lon="17.874515">
        <ele>64.6</ele>
        <time>2013-03-10T11:32:18Z</time>
      </trkpt>
      <trkpt lat="59.1870116" lon="17.874872">
        <ele>64</ele>
        <time>2013-03-10T11:32:25Z</time>
      </trkpt>
      <trkpt lat="59.1871796" lon="17.8750714">
        <ele>65.4</ele>
        <time>2013-03-10T11:32:33Z</time>
      </trkpt>
      <trkpt lat="59.1872557" lon="17.8751366">
        <ele>66</ele>
        <time>2013-03-10T11:32:36Z</time>
      </trkpt>
      <trkpt lat="59.1873609" lon="17.8750479">
        <ele>64.2</ele>
        <time>2013-03-10T11:32:42Z</time>
      </trkpt>
      <trkpt lat="59.1874225" lon="17.8749626">
        <ele>64.4</ele>
        <time>2013-03-10T11:32:45Z</time>
      </trkpt>
      <trkpt lat="59.1875462" lon="17.8748502">
        <ele>65.2</ele>
        <time>2013-03-10T11:32:49Z</time>
      </trkpt>
      <trkpt lat="59.1877412" lon="17.8747953">
        <ele>66.4</ele>
        <time>2013-03-10T11:32:55Z</time>
      </trkpt>
      <trkpt lat="59.1879607" lon="17.8747414">
        <ele>66.4</ele>
        <time>2013-03-10T11:33:00Z</time>
      </trkpt>
      <trkpt lat="59.1881468" lon="17.8747932">
        <ele>66.8</ele>
        <time>2013-03-10T11:33:04Z</time>
      </trkpt>
      <trkpt lat="59.1881933" lon="17.8748067">
        <ele>66.6</ele>
        <time>2013-03-10T11:33:05Z</time>
      </trkpt>
      <trkpt lat="59.1883179" lon="17.8748309">
        <ele>64.8</ele>
        <time>2013-03-10T11:33:08Z</time>
      </trkpt>
      <trkpt lat="59.1883677" lon="17.8748388">
        <ele>63.8</ele>
        <time>2013-03-10T11:33:09Z</time>
      </trkpt>
      <trkpt lat="59.1884669" lon="17.87487">
        <ele>62.6</ele>
        <time>2013-03-10T11:33:11Z</time>
      </trkpt>
      <trkpt lat="59.1885585" lon="17.8749554">
        <ele>62.8</ele>
        <time>2013-03-10T11:33:13Z</time>
      </trkpt>
      <trkpt lat="59.1886725" lon="17.8750657">
        <ele>61</ele>
        <time>2013-03-10T11:33:16Z</time>
      </trkpt>
      <trkpt lat="59.1887606" lon="17.8751168">
        <ele>60.8</ele>
        <time>2013-03-10T11:33:18Z</time>
      </trkpt>
      <trkpt lat="59.1887994" lon="17.8751347">
        <ele>60</ele>
        <time>2013-03-10T11:33:19Z</time>
      </trkpt>
      <trkpt lat="59.188923" lon="17.8751242">
        <ele>58</ele>
        <time>2013-03-10T11:33:22Z</time>
      </trkpt>
      <trkpt lat="59.1889608" lon="17.8751033">
        <ele>58.4</ele>
        <time>2013-03-10T11:33:23Z</time>
      </trkpt>
      <trkpt lat="59.1891284" lon="17.8749133">
        <ele>57.6</ele>
        <time>2013-03-10T11:33:29Z</time>
      </trkpt>
      <trkpt lat="59.1892931" lon="17.8749014">
        <ele>56</ele>
        <time>2013-03-10T11:33:36Z</time>
      </trkpt>
      <trkpt lat="59.1894796" lon="17.8750684">
        <ele>55</ele>
        <time>2013-03-10T11:33:42Z</time>
      </trkpt>
      <trkpt lat="59.1896426" lon="17.8752126">
        <ele>57.6</ele>
        <time>2013-03-10T11:33:47Z</time>
      </trkpt>
      <trkpt lat="59.1896593" lon="17.8752537">
        <ele>58</ele>
        <time>2013-03-10T11:33:48Z</time>
      </trkpt>
      <trkpt lat="59.1898002" lon="17.8755027">
        <ele>62.6</ele>
        <time>2013-03-10T11:33:55Z</time>
      </trkpt>
      <trkpt lat="59.1899897" lon="17.875655">
        <ele>68.2</ele>
        <time>2013-03-10T11:34:04Z</time>
      </trkpt>
      <trkpt lat="59.1900378" lon="17.8757221">
        <ele>68.6</ele>
        <time>2013-03-10T11:34:07Z</time>
      </trkpt>
      <trkpt lat="59.1901575" lon="17.8758073">
        <ele>70.8</ele>
        <time>2013-03-10T11:34:13Z</time>
      </trkpt>
      <trkpt lat="59.1902406" lon="17.8757731">
        <ele>72.8</ele>
        <time>2013-03-10T11:34:16Z</time>
      </trkpt>
      <trkpt lat="59.190343" lon="17.8757185">
        <ele>75.4</ele>
        <time>2013-03-10T11:34:21Z</time>
      </trkpt>
      <trkpt lat="59.1903757" lon="17.8756602">
        <ele>72.4</ele>
        <time>2013-03-10T11:34:26Z</time>
      </trkpt>
      <trkpt lat="59.1904263" lon="17.8755536">
        <ele>68</ele>
        <time>2013-03-10T11:34:34Z</time>
      </trkpt>
      <trkpt lat="59.1904679" lon="17.875435">
        <ele>71.2</ele>
        <time>2013-03-10T11:34:38Z</time>
      </trkpt>
      <trkpt lat="59.1904896" lon="17.8752708">
        <ele>74.4</ele>
        <time>2013-03-10T11:34:43Z</time>
      </trkpt>
      <trkpt lat="59.1904828" lon="17.8752027">
        <ele>75.2</ele>
        <time>2013-03-10T11:34:45Z</time>
      </trkpt>
      <trkpt lat="59.1904674" lon="17.8750979">
        <ele>76.2</ele>
        <time>2013-03-10T11:34:48Z</time>
      </trkpt>
      <trkpt lat="59.1904281" lon="17.874985">
        <ele>76.8</ele>
        <time>2013-03-10T11:34:52Z</time>
      </trkpt>
      <trkpt lat="59.1903848" lon="17.8747807">
        <ele>77.2</ele>
        <time>2013-03-10T11:34:56Z</time>
      </trkpt>
      <trkpt lat="59.1903678" lon="17.8743875">
        <ele>78.6</ele>
        <time>2013-03-10T11:35:02Z</time>
      </trkpt>
      <trkpt lat="59.1903905" lon="17.8740067">
        <ele>80.2</ele>
        <time>2013-03-10T11:35:07Z</time>
      </trkpt>
      <trkpt lat="59.190439" lon="17.8736666">
        <ele>81</ele>
        <time>2013-03-10T11:35:12Z</time>
      </trkpt>
      <trkpt lat="59.1905429" lon="17.8733268">
        <ele>80.8</ele>
        <time>2013-03-10T11:35:18Z</time>
      </trkpt>
      <trkpt lat="59.1905544" lon="17.8729574">
        <ele>82</ele>
        <time>2013-03-10T11:35:25Z</time>
      </trkpt>
      <trkpt lat="59.1906797" lon="17.8726868">
        <ele>82.2</ele>
        <time>2013-03-10T11:35:32Z</time>
      </trkpt>
      <trkpt lat="59.1907662" lon="17.8725103">
        <ele>84.2</ele>
        <time>2013-03-10T11:35:37Z</time>
      </trkpt>
      <trkpt lat="59.1908253" lon="17.8725567">
        <ele>83.8</ele>
        <time>2013-03-10T11:35:39Z</time>
      </trkpt>
      <trkpt lat="59.1910078" lon="17.8727646">
        <ele>82.6</ele>
        <time>2013-03-10T11:35:45Z</time>
      </trkpt>
      <trkpt lat="59.1911952" lon="17.8727269">
        <ele>83.6</ele>
        <time>2013-03-10T11:35:49Z</time>
      </trkpt>
      <trkpt lat="59.1913809" lon="17.8726124">
        <ele>80.8</ele>
        <time>2013-03-10T11:35:53Z</time>
      </trkpt>
      <trkpt lat="59.1915819" lon="17.8725296">
        <ele>78.6</ele>
        <time>2013-03-10T11:35:57Z</time>
      </trkpt>
      <trkpt lat="59.19178" lon="17.8726469">
        <ele>76.2</ele>
        <time>2013-03-10T11:36:00Z</time>
      </trkpt>
      <trkpt lat="59.1919861" lon="17.8728082">
        <ele>75.2</ele>
        <time>2013-03-10T11:36:04Z</time>
      </trkpt>
      <trkpt lat="59.1921679" lon="17.872908">
        <ele>75</ele>
        <time>2013-03-10T11:36:08Z</time>
      </trkpt>
      <trkpt lat="59.1922272" lon="17.8729097">
        <ele>74.8</ele>
        <time>2013-03-10T11:36:09Z</time>
      </trkpt>
      <trkpt lat="59.1923494" lon="17.8729061">
        <ele>74.4</ele>
        <time>2013-03-10T11:36:11Z</time>
      </trkpt>
      <trkpt lat="59.1924581" lon="17.8729095">
        <ele>73.4</ele>
        <time>2013-03-10T11:36:13Z</time>
      </trkpt>
      <trkpt lat="59.1925665" lon="17.8728609">
        <ele>71.6</ele>
        <time>2013-03-10T11:36:15Z</time>
      </trkpt>
      <trkpt lat="59.1926237" lon="17.872831">
        <ele>70.6</ele>
        <time>2013-03-10T11:36:16Z</time>
      </trkpt>
      <trkpt lat="59.1927933" lon="17.8728424">
        <ele>69.8</ele>
        <time>2013-03-10T11:36:19Z</time>
      </trkpt>
      <trkpt lat="59.1929228" lon="17.8729823">
        <ele>70.2</ele>
        <time>2013-03-10T11:36:22Z</time>
      </trkpt>
      <trkpt lat="59.1929617" lon="17.8730175">
        <ele>70.4</ele>
        <time>2013-03-10T11:36:23Z</time>
      </trkpt>
      <trkpt lat="59.1931671" lon="17.8729916">
        <ele>72</ele>
        <time>2013-03-10T11:36:28Z</time>
      </trkpt>
      <trkpt lat="59.1931955" lon="17.8729713">
        <ele>70.4</ele>
        <time>2013-03-10T11:36:29Z</time>
      </trkpt>
      <trkpt lat="59.1933666" lon="17.8730036">
        <ele>76.4</ele>
        <time>2013-03-10T11:36:36Z</time>
      </trkpt>
      <trkpt lat="59.1933867" lon="17.8730333">
        <ele>77.2</ele>
        <time>2013-03-10T11:36:37Z</time>
      </trkpt>
      <trkpt lat="59.1935221" lon="17.8732671">
        <ele>83</ele>
        <time>2013-03-10T11:36:44Z</time>
      </trkpt>
      <trkpt lat="59.1935356" lon="17.8733099">
        <ele>85.2</ele>
        <time>2013-03-10T11:36:57Z</time>
      </trkpt>
      <trkpt lat="59.1936457" lon="17.873496">
        <ele>85.8</ele>
        <time>2013-03-10T11:37:05Z</time>
      </trkpt>
      <trkpt lat="59.1936861" lon="17.8735065">
        <ele>86.4</ele>
        <time>2013-03-10T11:37:07Z</time>
      </trkpt>
      <trkpt lat="59.1939239" lon="17.8734494">
        <ele>88.2</ele>
        <time>2013-03-10T11:37:48Z</time>
      </trkpt>
      <trkpt lat="59.1941171" lon="17.8733246">
        <ele>83.4</ele>
        <time>2013-03-10T11:37:53Z</time>
      </trkpt>
      <trkpt lat="59.1943057" lon="17.8731683">
        <ele>81.4</ele>
        <time>2013-03-10T11:37:56Z</time>
      </trkpt>
      <trkpt lat="59.194495" lon="17.873047">
        <ele>78.2</ele>
        <time>2013-03-10T11:38:00Z</time>
      </trkpt>
      <trkpt lat="59.1945971" lon="17.8729808">
        <ele>76.8</ele>
        <time>2013-03-10T11:38:03Z</time>
      </trkpt>
      <trkpt lat="59.194666" lon="17.8730894">
        <ele>76.8</ele>
        <time>2013-03-10T11:38:06Z</time>
      </trkpt>
      <trkpt lat="59.1946688" lon="17.8734468">
        <ele>79</ele>
        <time>2013-03-10T11:38:12Z</time>
      </trkpt>
      <trkpt lat="59.1946926" lon="17.8738633">
        <ele>80.4</ele>
        <time>2013-03-10T11:38:17Z</time>
      </trkpt>
      <trkpt lat="59.1947202" lon="17.8742805">
        <ele>79.2</ele>
        <time>2013-03-10T11:38:21Z</time>
      </trkpt>
      <trkpt lat="59.1947151" lon="17.8743787">
        <ele>78.6</ele>
        <time>2013-03-10T11:38:22Z</time>
      </trkpt>
      <trkpt lat="59.1947089" lon="17.8746217">
        <ele>77.6</ele>
        <time>2013-03-10T11:38:25Z</time>
      </trkpt>
      <trkpt lat="59.1947083" lon="17.8746832">
        <ele>77.6</ele>
        <time>2013-03-10T11:38:26Z</time>
      </trkpt>
      <trkpt lat="59.1947099" lon="17.874805">
        <ele>78.6</ele>
        <time>2013-03-10T11:38:28Z</time>
      </trkpt>
      <trkpt lat="59.1947229" lon="17.8750385">
        <ele>79.4</ele>
        <time>2013-03-10T11:38:31Z</time>
      </trkpt>
      <trkpt lat="59.1947191" lon="17.875143">
        <ele>79.6</ele>
        <time>2013-03-10T11:38:32Z</time>
      </trkpt>
      <trkpt lat="59.1947217" lon="17.8752457">
        <ele>79.8</ele>
        <time>2013-03-10T11:38:33Z</time>
      </trkpt>
      <trkpt lat="59.1947351" lon="17.8754681">
        <ele>79.4</ele>
        <time>2013-03-10T11:38:35Z</time>
      </trkpt>
      <trkpt lat="59.1947508" lon="17.8756558">
        <ele>80.2</ele>
        <time>2013-03-10T11:38:37Z</time>
      </trkpt>
      <trkpt lat="59.1947487" lon="17.8758789">
        <ele>80.8</ele>
        <time>2013-03-10T11:38:40Z</time>
      </trkpt>
      <trkpt lat="59.1947565" lon="17.8760411">
        <ele>80.6</ele>
        <time>2013-03-10T11:38:42Z</time>
      </trkpt>
      <trkpt lat="59.1947757" lon="17.8762152">
        <ele>80.8</ele>
        <time>2013-03-10T11:38:44Z</time>
      </trkpt>
      <trkpt lat="59.1947913" lon="17.8762949">
        <ele>80.6</ele>
        <time>2013-03-10T11:38:45Z</time>
      </trkpt>
      <trkpt lat="59.1948239" lon="17.8764591">
        <ele>80.2</ele>
        <time>2013-03-10T11:38:47Z</time>
      </trkpt>
      <trkpt lat="59.1948834" lon="17.8766875">
        <ele>79</ele>
        <time>2013-03-10T11:38:50Z</time>
      </trkpt>
      <trkpt lat="59.1949301" lon="17.876851">
        <ele>78.2</ele>
        <time>2013-03-10T11:38:52Z</time>
      </trkpt>
      <trkpt lat="59.1949816" lon="17.8769995">
        <ele>78.6</ele>
        <time>2013-03-10T11:38:54Z</time>
      </trkpt>
      <trkpt lat="59.1950143" lon="17.8771536">
        <ele>79.2</ele>
        <time>2013-03-10T11:38:57Z</time>
      </trkpt>
      <trkpt lat="59.1950431" lon="17.8773751">
        <ele>79.6</ele>
        <time>2013-03-10T11:39:02Z</time>
      </trkpt>
      <trkpt lat="59.19506" lon="17.877749">
        <ele>80.6</ele>
        <time>2013-03-10T11:39:07Z</time>
      </trkpt>
      <trkpt lat="59.1950653" lon="17.8781416">
        <ele>80.6</ele>
        <time>2013-03-10T11:39:12Z</time>
      </trkpt>
      <trkpt lat="59.1951086" lon="17.8784923">
        <ele>81.6</ele>
        <time>2013-03-10T11:39:17Z</time>
      </trkpt>
      <trkpt lat="59.1951626" lon="17.8789094">
        <ele>81.6</ele>
        <time>2013-03-10T11:39:22Z</time>
      </trkpt>
      <trkpt lat="59.1951895" lon="17.8791378">
        <ele>82</ele>
        <time>2013-03-10T11:39:24Z</time>
      </trkpt>
      <trkpt lat="59.1951902" lon="17.8792614">
        <ele>81.6</ele>
        <time>2013-03-10T11:39:25Z</time>
      </trkpt>
      <trkpt lat="59.1951822" lon="17.8793838">
        <ele>82</ele>
        <time>2013-03-10T11:39:26Z</time>
      </trkpt>
      <trkpt lat="59.1950969" lon="17.8796495">
        <ele>80.6</ele>
        <time>2013-03-10T11:39:29Z</time>
      </trkpt>
      <trkpt lat="59.1950212" lon="17.8798014">
        <ele>80.2</ele>
        <time>2013-03-10T11:39:31Z</time>
      </trkpt>
      <trkpt lat="59.1949852" lon="17.8798644">
        <ele>79.8</ele>
        <time>2013-03-10T11:39:32Z</time>
      </trkpt>
      <trkpt lat="59.1949402" lon="17.879907">
        <ele>79.2</ele>
        <time>2013-03-10T11:39:33Z</time>
      </trkpt>
      <trkpt lat="59.1948014" lon="17.8800365">
        <ele>78.8</ele>
        <time>2013-03-10T11:39:36Z</time>
      </trkpt>
      <trkpt lat="59.194757" lon="17.8800561">
        <ele>78.6</ele>
        <time>2013-03-10T11:39:37Z</time>
      </trkpt>
      <trkpt lat="59.1945772" lon="17.8802739">
        <ele>75.2</ele>
        <time>2013-03-10T11:39:42Z</time>
      </trkpt>
      <trkpt lat="59.194482" lon="17.8805113">
        <ele>73.8</ele>
        <time>2013-03-10T11:39:45Z</time>
      </trkpt>
      <trkpt lat="59.1944564" lon="17.8806087">
        <ele>73.2</ele>
        <time>2013-03-10T11:39:46Z</time>
      </trkpt>
      <trkpt lat="59.1943642" lon="17.8809031">
        <ele>71.4</ele>
        <time>2013-03-10T11:39:49Z</time>
      </trkpt>
      <trkpt lat="59.1943202" lon="17.8809683">
        <ele>71</ele>
        <time>2013-03-10T11:39:50Z</time>
      </trkpt>
      <trkpt lat="59.1941083" lon="17.8809724">
        <ele>70</ele>
        <time>2013-03-10T11:39:54Z</time>
      </trkpt>
      <trkpt lat="59.1939526" lon="17.8809459">
        <ele>69.6</ele>
        <time>2013-03-10T11:39:57Z</time>
      </trkpt>
      <trkpt lat="59.1939133" lon="17.8809182">
        <ele>69.8</ele>
        <time>2013-03-10T11:39:58Z</time>
      </trkpt>
      <trkpt lat="59.1938505" lon="17.880871">
        <ele>70.6</ele>
        <time>2013-03-10T11:40:00Z</time>
      </trkpt>
      <trkpt lat="59.1937169" lon="17.8808289">
        <ele>72</ele>
        <time>2013-03-10T11:40:04Z</time>
      </trkpt>
      <trkpt lat="59.1935168" lon="17.8808565">
        <ele>73.2</ele>
        <time>2013-03-10T11:40:09Z</time>
      </trkpt>
      <trkpt lat="59.1933152" lon="17.8809736">
        <ele>74.2</ele>
        <time>2013-03-10T11:40:15Z</time>
      </trkpt>
      <trkpt lat="59.1931556" lon="17.8811428">
        <ele>74.4</ele>
        <time>2013-03-10T11:40:20Z</time>
      </trkpt>
      <trkpt lat="59.192987" lon="17.8811312">
        <ele>72.2</ele>
        <time>2013-03-10T11:40:24Z</time>
      </trkpt>
      <trkpt lat="59.1929462" lon="17.8810702">
        <ele>71.8</ele>
        <time>2013-03-10T11:40:25Z</time>
      </trkpt>
      <trkpt lat="59.1928704" lon="17.8809575">
        <ele>70.6</ele>
        <time>2013-03-10T11:40:27Z</time>
      </trkpt>
      <trkpt lat="59.1927939" lon="17.8808124">
        <ele>69.6</ele>
        <time>2013-03-10T11:40:29Z</time>
      </trkpt>
      <trkpt lat="59.1927158" lon="17.8806885">
        <ele>69</ele>
        <time>2013-03-10T11:40:31Z</time>
      </trkpt>
      <trkpt lat="59.192654" lon="17.8805611">
        <ele>68.6</ele>
        <time>2013-03-10T11:40:33Z</time>
      </trkpt>
      <trkpt lat="59.1926211" lon="17.8805172">
        <ele>68.6</ele>
        <time>2013-03-10T11:40:34Z</time>
      </trkpt>
      <trkpt lat="59.1924669" lon="17.8804668">
        <ele>68</ele>
        <time>2013-03-10T11:40:38Z</time>
      </trkpt>
      <trkpt lat="59.1924256" lon="17.8804552">
        <ele>68.4</ele>
        <time>2013-03-10T11:40:39Z</time>
      </trkpt>
      <trkpt lat="59.192385" lon="17.8804384">
        <ele>68</ele>
        <time>2013-03-10T11:40:40Z</time>
      </trkpt>
      <trkpt lat="59.1922473" lon="17.8804244">
        <ele>69.2</ele>
        <time>2013-03-10T11:40:43Z</time>
      </trkpt>
      <trkpt lat="59.1922053" lon="17.8804289">
        <ele>69.4</ele>
        <time>2013-03-10T11:40:44Z</time>
      </trkpt>
      <trkpt lat="59.1921665" lon="17.8804289">
        <ele>70.4</ele>
        <time>2013-03-10T11:40:45Z</time>
      </trkpt>
      <trkpt lat="59.1920523" lon="17.880397">
        <ele>70.4</ele>
        <time>2013-03-10T11:40:48Z</time>
      </trkpt>
      <trkpt lat="59.1920046" lon="17.8803815">
        <ele>70.8</ele>
        <time>2013-03-10T11:40:49Z</time>
      </trkpt>
      <trkpt lat="59.1918732" lon="17.880344">
        <ele>71.4</ele>
        <time>2013-03-10T11:40:52Z</time>
      </trkpt>
      <trkpt lat="59.191738" lon="17.8804334">
        <ele>72.4</ele>
        <time>2013-03-10T11:40:56Z</time>
      </trkpt>
      <trkpt lat="59.1916997" lon="17.880467">
        <ele>72</ele>
        <time>2013-03-10T11:40:57Z</time>
      </trkpt>
      <trkpt lat="59.1916079" lon="17.8805313">
        <ele>72.4</ele>
        <time>2013-03-10T11:40:59Z</time>
      </trkpt>
      <trkpt lat="59.1915246" lon="17.8805777">
        <ele>72.8</ele>
        <time>2013-03-10T11:41:01Z</time>
      </trkpt>
      <trkpt lat="59.1914893" lon="17.8805855">
        <ele>72.6</ele>
        <time>2013-03-10T11:41:02Z</time>
      </trkpt>
      <trkpt lat="59.1913309" lon="17.8806302">
        <ele>74.2</ele>
        <time>2013-03-10T11:41:08Z</time>
      </trkpt>
      <trkpt lat="59.1911634" lon="17.8808435">
        <ele>73.4</ele>
        <time>2013-03-10T11:41:13Z</time>
      </trkpt>
      <trkpt lat="59.1909807" lon="17.8809697">
        <ele>69.6</ele>
        <time>2013-03-10T11:41:17Z</time>
      </trkpt>
      <trkpt lat="59.190924" lon="17.8809606">
        <ele>69.6</ele>
        <time>2013-03-10T11:41:18Z</time>
      </trkpt>
      <trkpt lat="59.1907471" lon="17.8808724">
        <ele>71.6</ele>
        <time>2013-03-10T11:41:21Z</time>
      </trkpt>
      <trkpt lat="59.1905882" lon="17.8807639">
        <ele>71</ele>
        <time>2013-03-10T11:41:24Z</time>
      </trkpt>
      <trkpt lat="59.1905373" lon="17.8807458">
        <ele>71</ele>
        <time>2013-03-10T11:41:25Z</time>
      </trkpt>
      <trkpt lat="59.1903875" lon="17.8806509">
        <ele>69.8</ele>
        <time>2013-03-10T11:41:28Z</time>
      </trkpt>
      <trkpt lat="59.1903465" lon="17.8806265">
        <ele>69.8</ele>
        <time>2013-03-10T11:41:29Z</time>
      </trkpt>
      <trkpt lat="59.1901701" lon="17.8805162">
        <ele>69</ele>
        <time>2013-03-10T11:41:33Z</time>
      </trkpt>
      <trkpt lat="59.1900675" lon="17.8804507">
        <ele>67.2</ele>
        <time>2013-03-10T11:41:35Z</time>
      </trkpt>
      <trkpt lat="59.18997" lon="17.8804267">
        <ele>66</ele>
        <time>2013-03-10T11:41:37Z</time>
      </trkpt>
      <trkpt lat="59.1897746" lon="17.8803886">
        <ele>62.4</ele>
        <time>2013-03-10T11:41:41Z</time>
      </trkpt>
      <trkpt lat="59.1895824" lon="17.8803306">
        <ele>59.6</ele>
        <time>2013-03-10T11:41:45Z</time>
      </trkpt>
      <trkpt lat="59.1895309" lon="17.880307">
        <ele>59.4</ele>
        <time>2013-03-10T11:41:46Z</time>
      </trkpt>
      <trkpt lat="59.1893915" lon="17.8802338">
        <ele>58.6</ele>
        <time>2013-03-10T11:41:49Z</time>
      </trkpt>
      <trkpt lat="59.1892226" lon="17.8801531">
        <ele>57.2</ele>
        <time>2013-03-10T11:41:53Z</time>
      </trkpt>
      <trkpt lat="59.1891734" lon="17.8801437">
        <ele>57</ele>
        <time>2013-03-10T11:41:54Z</time>
      </trkpt>
      <trkpt lat="59.1890843" lon="17.8801194">
        <ele>56</ele>
        <time>2013-03-10T11:41:56Z</time>
      </trkpt>
      <trkpt lat="59.1889662" lon="17.8800772">
        <ele>55.6</ele>
        <time>2013-03-10T11:41:59Z</time>
      </trkpt>
      <trkpt lat="59.1889153" lon="17.8800593">
        <ele>55.4</ele>
        <time>2013-03-10T11:42:00Z</time>
      </trkpt>
      <trkpt lat="59.188818" lon="17.880024">
        <ele>55</ele>
        <time>2013-03-10T11:42:02Z</time>
      </trkpt>
      <trkpt lat="59.1887745" lon="17.8800004">
        <ele>54.6</ele>
        <time>2013-03-10T11:42:03Z</time>
      </trkpt>
      <trkpt lat="59.1885943" lon="17.8799524">
        <ele>54.2</ele>
        <time>2013-03-10T11:42:07Z</time>
      </trkpt>
      <trkpt lat="59.1884706" lon="17.8800241">
        <ele>54.4</ele>
        <time>2013-03-10T11:42:10Z</time>
      </trkpt>
      <trkpt lat="59.1884188" lon="17.8801153">
        <ele>56.2</ele>
        <time>2013-03-10T11:42:12Z</time>
      </trkpt>
      <trkpt lat="59.188384" lon="17.8802261">
        <ele>57.4</ele>
        <time>2013-03-10T11:42:14Z</time>
      </trkpt>
      <trkpt lat="59.1883497" lon="17.8804699">
        <ele>58.2</ele>
        <time>2013-03-10T11:42:18Z</time>
      </trkpt>
      <trkpt lat="59.1883351" lon="17.8805878">
        <ele>58.2</ele>
        <time>2013-03-10T11:42:20Z</time>
      </trkpt>
      <trkpt lat="59.1882879" lon="17.8808253">
        <ele>60.2</ele>
        <time>2013-03-10T11:42:24Z</time>
      </trkpt>
      <trkpt lat="59.1881741" lon="17.8811226">
        <ele>63.2</ele>
        <time>2013-03-10T11:42:30Z</time>
      </trkpt>
      <trkpt lat="59.1879989" lon="17.8813161">
        <ele>66</ele>
        <time>2013-03-10T11:42:36Z</time>
      </trkpt>
      <trkpt lat="59.1878007" lon="17.881449">
        <ele>65.8</ele>
        <time>2013-03-10T11:42:40Z</time>
      </trkpt>
      <trkpt lat="59.1876142" lon="17.8815475">
        <ele>64.2</ele>
        <time>2013-03-10T11:42:43Z</time>
      </trkpt>
      <trkpt lat="59.1875563" lon="17.881605">
        <ele>64.4</ele>
        <time>2013-03-10T11:42:44Z</time>
      </trkpt>
      <trkpt lat="59.1874478" lon="17.8817003">
        <ele>63.6</ele>
        <time>2013-03-10T11:42:46Z</time>
      </trkpt>
      <trkpt lat="59.1873508" lon="17.88182">
        <ele>62.8</ele>
        <time>2013-03-10T11:42:48Z</time>
      </trkpt>
      <trkpt lat="59.1872568" lon="17.8819884">
        <ele>63</ele>
        <time>2013-03-10T11:42:50Z</time>
      </trkpt>
      <trkpt lat="59.1871926" lon="17.8824077">
        <ele>66.6</ele>
        <time>2013-03-10T11:42:54Z</time>
      </trkpt>
      <trkpt lat="59.187222" lon="17.8827845">
        <ele>67.8</ele>
        <time>2013-03-10T11:42:59Z</time>
      </trkpt>
      <trkpt lat="59.1872363" lon="17.8828395">
        <ele>67.8</ele>
        <time>2013-03-10T11:43:00Z</time>
      </trkpt>
      <trkpt lat="59.1873003" lon="17.8831228">
        <ele>68.2</ele>
        <time>2013-03-10T11:43:05Z</time>
      </trkpt>
      <trkpt lat="59.1873235" lon="17.8832887">
        <ele>68.4</ele>
        <time>2013-03-10T11:43:08Z</time>
      </trkpt>
      <trkpt lat="59.1873515" lon="17.8835118">
        <ele>69.8</ele>
        <time>2013-03-10T11:43:12Z</time>
      </trkpt>
      <trkpt lat="59.1874132" lon="17.8838905">
        <ele>70.2</ele>
        <time>2013-03-10T11:43:18Z</time>
      </trkpt>
      <trkpt lat="59.1874286" lon="17.8840138">
        <ele>71</ele>
        <time>2013-03-10T11:43:20Z</time>
      </trkpt>
      <trkpt lat="59.187479" lon="17.8842706">
        <ele>73.4</ele>
        <time>2013-03-10T11:43:26Z</time>
      </trkpt>
      <trkpt lat="59.1875091" lon="17.8846243">
        <ele>74.6</ele>
        <time>2013-03-10T11:43:32Z</time>
      </trkpt>
      <trkpt lat="59.187598" lon="17.8849541">
        <ele>74.4</ele>
        <time>2013-03-10T11:43:38Z</time>
      </trkpt>
      <trkpt lat="59.1876436" lon="17.8853015">
        <ele>73</ele>
        <time>2013-03-10T11:43:43Z</time>
      </trkpt>
      <trkpt lat="59.1876985" lon="17.885665">
        <ele>72.8</ele>
        <time>2013-03-10T11:43:50Z</time>
      </trkpt>
      <trkpt lat="59.1878194" lon="17.8859423">
        <ele>73</ele>
        <time>2013-03-10T11:43:56Z</time>
      </trkpt>
      <trkpt lat="59.1879211" lon="17.8862869">
        <ele>72.4</ele>
        <time>2013-03-10T11:44:02Z</time>
      </trkpt>
      <trkpt lat="59.187884" lon="17.8866384">
        <ele>72.4</ele>
        <time>2013-03-10T11:44:08Z</time>
      </trkpt>
      <trkpt lat="59.1878467" lon="17.8870322">
        <ele>73.6</ele>
        <time>2013-03-10T11:44:14Z</time>
      </trkpt>
      <trkpt lat="59.1877271" lon="17.8873147">
        <ele>74.8</ele>
        <time>2013-03-10T11:44:20Z</time>
      </trkpt>
      <trkpt lat="59.1876001" lon="17.8876407">
        <ele>73.2</ele>
        <time>2013-03-10T11:44:26Z</time>
      </trkpt>
      <trkpt lat="59.1875462" lon="17.8879823">
        <ele>71.2</ele>
        <time>2013-03-10T11:44:31Z</time>
      </trkpt>
      <trkpt lat="59.1874998" lon="17.8883195">
        <ele>70</ele>
        <time>2013-03-10T11:44:35Z</time>
      </trkpt>
      <trkpt lat="59.1874876" lon="17.8884076">
        <ele>69.8</ele>
        <time>2013-03-10T11:44:36Z</time>
      </trkpt>
      <trkpt lat="59.1874722" lon="17.8887059">
        <ele>68.4</ele>
        <time>2013-03-10T11:44:40Z</time>
      </trkpt>
      <trkpt lat="59.187508" lon="17.888909">
        <ele>68.2</ele>
        <time>2013-03-10T11:44:43Z</time>
      </trkpt>
      <trkpt lat="59.1875431" lon="17.8890249">
        <ele>68.2</ele>
        <time>2013-03-10T11:44:45Z</time>
      </trkpt>
      <trkpt lat="59.1876013" lon="17.8892079">
        <ele>68</ele>
        <time>2013-03-10T11:44:48Z</time>
      </trkpt>
      <trkpt lat="59.1876375" lon="17.8893363">
        <ele>67.4</ele>
        <time>2013-03-10T11:44:50Z</time>
      </trkpt>
      <trkpt lat="59.1877265" lon="17.8896596">
        <ele>69</ele>
        <time>2013-03-10T11:44:55Z</time>
      </trkpt>
      <trkpt lat="59.1878048" lon="17.8899859">
        <ele>70.4</ele>
        <time>2013-03-10T11:45:00Z</time>
      </trkpt>
      <trkpt lat="59.1878572" lon="17.8903868">
        <ele>72.8</ele>
        <time>2013-03-10T11:45:06Z</time>
      </trkpt>
      <trkpt lat="59.187973" lon="17.8907112">
        <ele>74.8</ele>
        <time>2013-03-10T11:45:13Z</time>
      </trkpt>
      <trkpt lat="59.1879819" lon="17.8910854">
        <ele>75.4</ele>
        <time>2013-03-10T11:45:19Z</time>
      </trkpt>
      <trkpt lat="59.1878675" lon="17.891427">
        <ele>73.4</ele>
        <time>2013-03-10T11:45:25Z</time>
      </trkpt>
      <trkpt lat="59.1878064" lon="17.8917775">
        <ele>73.2</ele>
        <time>2013-03-10T11:45:30Z</time>
      </trkpt>
      <trkpt lat="59.1878253" lon="17.8921394">
        <ele>74.8</ele>
        <time>2013-03-10T11:45:37Z</time>
      </trkpt>
      <trkpt lat="59.1878555" lon="17.8925111">
        <ele>76.6</ele>
        <time>2013-03-10T11:45:43Z</time>
      </trkpt>
      <trkpt lat="59.1879079" lon="17.8928966">
        <ele>77</ele>
        <time>2013-03-10T11:45:47Z</time>
      </trkpt>
      <trkpt lat="59.1879346" lon="17.8930815">
        <ele>78</ele>
        <time>2013-03-10T11:45:49Z</time>
      </trkpt>
      <trkpt lat="59.1879763" lon="17.8932246">
        <ele>79.2</ele>
        <time>2013-03-10T11:45:51Z</time>
      </trkpt>
      <trkpt lat="59.1880717" lon="17.8933726">
        <ele>80.8</ele>
        <time>2013-03-10T11:45:54Z</time>
      </trkpt>
      <trkpt lat="59.1881364" lon="17.8934374">
        <ele>81.4</ele>
        <time>2013-03-10T11:45:56Z</time>
      </trkpt>
      <trkpt lat="59.1882824" lon="17.8935814">
        <ele>81.6</ele>
        <time>2013-03-10T11:46:00Z</time>
      </trkpt>
      <trkpt lat="59.188318" lon="17.8936144">
        <ele>81.4</ele>
        <time>2013-03-10T11:46:01Z</time>
      </trkpt>
      <trkpt lat="59.1883974" lon="17.8936944">
        <ele>80.4</ele>
        <time>2013-03-10T11:46:03Z</time>
      </trkpt>
      <trkpt lat="59.1885182" lon="17.8937871">
        <ele>79.6</ele>
        <time>2013-03-10T11:46:06Z</time>
      </trkpt>
      <trkpt lat="59.1887324" lon="17.8939025">
        <ele>78.6</ele>
        <time>2013-03-10T11:46:11Z</time>
      </trkpt>
      <trkpt lat="59.1887803" lon="17.8939223">
        <ele>78.8</ele>
        <time>2013-03-10T11:46:12Z</time>
      </trkpt>
      <trkpt lat="59.1889486" lon="17.8939452">
        <ele>77.2</ele>
        <time>2013-03-10T11:46:16Z</time>
      </trkpt>
      <trkpt lat="59.1889984" lon="17.8939663">
        <ele>77.4</ele>
        <time>2013-03-10T11:46:17Z</time>
      </trkpt>
      <trkpt lat="59.1891576" lon="17.8940526">
        <ele>75.8</ele>
        <time>2013-03-10T11:46:20Z</time>
      </trkpt>
      <trkpt lat="59.1893656" lon="17.8942376">
        <ele>75.2</ele>
        <time>2013-03-10T11:46:24Z</time>
      </trkpt>
      <trkpt lat="59.1895531" lon="17.894472">
        <ele>74.6</ele>
        <time>2013-03-10T11:46:28Z</time>
      </trkpt>
      <trkpt lat="59.1897163" lon="17.894719">
        <ele>71.6</ele>
        <time>2013-03-10T11:46:32Z</time>
      </trkpt>
      <trkpt lat="59.189752" lon="17.894781">
        <ele>71.8</ele>
        <time>2013-03-10T11:46:33Z</time>
      </trkpt>
      <trkpt lat="59.1898466" lon="17.8950026">
        <ele>72.4</ele>
        <time>2013-03-10T11:46:36Z</time>
      </trkpt>
      <trkpt lat="59.1899768" lon="17.8953494">
        <ele>71.2</ele>
        <time>2013-03-10T11:46:41Z</time>
      </trkpt>
      <trkpt lat="59.190007" lon="17.8954181">
        <ele>71.4</ele>
        <time>2013-03-10T11:46:42Z</time>
      </trkpt>
      <trkpt lat="59.1900999" lon="17.895665">
        <ele>70.4</ele>
        <time>2013-03-10T11:46:46Z</time>
      </trkpt>
      <trkpt lat="59.1901706" lon="17.8958327">
        <ele>69.2</ele>
        <time>2013-03-10T11:46:49Z</time>
      </trkpt>
      <trkpt lat="59.1902358" lon="17.8959491">
        <ele>69.2</ele>
        <time>2013-03-10T11:46:51Z</time>
      </trkpt>
      <trkpt lat="59.1903591" lon="17.8962336">
        <ele>70</ele>
        <time>2013-03-10T11:46:55Z</time>
      </trkpt>
      <trkpt lat="59.1904181" lon="17.8963729">
        <ele>70.6</ele>
        <time>2013-03-10T11:46:57Z</time>
      </trkpt>
      <trkpt lat="59.1905166" lon="17.8965311">
        <ele>71</ele>
        <time>2013-03-10T11:47:00Z</time>
      </trkpt>
      <trkpt lat="59.190633" lon="17.8968194">
        <ele>72.4</ele>
        <time>2013-03-10T11:47:04Z</time>
      </trkpt>
      <trkpt lat="59.1906565" lon="17.8969018">
        <ele>72.8</ele>
        <time>2013-03-10T11:47:05Z</time>
      </trkpt>
      <trkpt lat="59.1907293" lon="17.8971488">
        <ele>73.8</ele>
        <time>2013-03-10T11:47:08Z</time>
      </trkpt>
      <trkpt lat="59.1907657" lon="17.897582">
        <ele>73.6</ele>
        <time>2013-03-10T11:47:13Z</time>
      </trkpt>
      <trkpt lat="59.190769" lon="17.8976741">
        <ele>73.6</ele>
        <time>2013-03-10T11:47:14Z</time>
      </trkpt>
      <trkpt lat="59.1907377" lon="17.897969">
        <ele>73.6</ele>
        <time>2013-03-10T11:47:17Z</time>
      </trkpt>
      <trkpt lat="59.1907181" lon="17.8980763">
        <ele>73.4</ele>
        <time>2013-03-10T11:47:18Z</time>
      </trkpt>
      <trkpt lat="59.1907083" lon="17.8981788">
        <ele>72.6</ele>
        <time>2013-03-10T11:47:19Z</time>
      </trkpt>
      <trkpt lat="59.1907128" lon="17.8983761">
        <ele>72.2</ele>
        <time>2013-03-10T11:47:21Z</time>
      </trkpt>
      <trkpt lat="59.1908595" lon="17.898688">
        <ele>72.4</ele>
        <time>2013-03-10T11:47:26Z</time>
      </trkpt>
      <trkpt lat="59.1909506" lon="17.8987862">
        <ele>71.4</ele>
        <time>2013-03-10T11:47:28Z</time>
      </trkpt>
      <trkpt lat="59.1910253" lon="17.8989024">
        <ele>69.8</ele>
        <time>2013-03-10T11:47:30Z</time>
      </trkpt>
      <trkpt lat="59.1910893" lon="17.8991103">
        <ele>66</ele>
        <time>2013-03-10T11:47:33Z</time>
      </trkpt>
      <trkpt lat="59.1911098" lon="17.8992801">
        <ele>65.8</ele>
        <time>2013-03-10T11:47:35Z</time>
      </trkpt>
      <trkpt lat="59.191166" lon="17.8996467">
        <ele>67.8</ele>
        <time>2013-03-10T11:47:39Z</time>
      </trkpt>
      <trkpt lat="59.1911816" lon="17.8997324">
        <ele>67.6</ele>
        <time>2013-03-10T11:47:40Z</time>
      </trkpt>
      <trkpt lat="59.1912164" lon="17.8999398">
        <ele>66.4</ele>
        <time>2013-03-10T11:47:43Z</time>
      </trkpt>
      <trkpt lat="59.1912317" lon="17.9000171">
        <ele>67</ele>
        <time>2013-03-10T11:47:44Z</time>
      </trkpt>
      <trkpt lat="59.1913102" lon="17.9003698">
        <ele>68.2</ele>
        <time>2013-03-10T11:47:48Z</time>
      </trkpt>
      <trkpt lat="59.1913155" lon="17.9004741">
        <ele>68.2</ele>
        <time>2013-03-10T11:47:49Z</time>
      </trkpt>
      <trkpt lat="59.1913407" lon="17.9007653">
        <ele>67.6</ele>
        <time>2013-03-10T11:47:52Z</time>
      </trkpt>
      <trkpt lat="59.1913869" lon="17.9011685">
        <ele>66.2</ele>
        <time>2013-03-10T11:47:57Z</time>
      </trkpt>
      <trkpt lat="59.1913977" lon="17.9012393">
        <ele>66.6</ele>
        <time>2013-03-10T11:47:58Z</time>
      </trkpt>
      <trkpt lat="59.1914034" lon="17.9013117">
        <ele>66</ele>
        <time>2013-03-10T11:47:59Z</time>
      </trkpt>
      <trkpt lat="59.1914182" lon="17.9015333">
        <ele>66.2</ele>
        <time>2013-03-10T11:48:02Z</time>
      </trkpt>
      <trkpt lat="59.1914257" lon="17.9016093">
        <ele>67.2</ele>
        <time>2013-03-10T11:48:03Z</time>
      </trkpt>
      <trkpt lat="59.1914594" lon="17.901928">
        <ele>66.8</ele>
        <time>2013-03-10T11:48:08Z</time>
      </trkpt>
      <trkpt lat="59.1915143" lon="17.9022524">
        <ele>75.6</ele>
        <time>2013-03-10T11:49:16Z</time>
      </trkpt>
      <trkpt lat="59.1916919" lon="17.9020722">
        <ele>65.6</ele>
        <time>2013-03-10T11:49:26Z</time>
      </trkpt>
      <trkpt lat="59.191851" lon="17.9018823">
        <ele>51.8</ele>
        <time>2013-03-10T11:49:34Z</time>
      </trkpt>
      <trkpt lat="59.1920227" lon="17.901695">
        <ele>37.8</ele>
        <time>2013-03-10T11:49:42Z</time>
      </trkpt>
      <trkpt lat="59.1921922" lon="17.9015438">
        <ele>35.8</ele>
        <time>2013-03-10T11:49:50Z</time>
      </trkpt>
      <trkpt lat="59.192382" lon="17.9015443">
        <ele>35.8</ele>
        <time>2013-03-10T11:49:58Z</time>
      </trkpt>
      <trkpt lat="59.1925591" lon="17.9016588">
        <ele>38.6</ele>
        <time>2013-03-10T11:50:05Z</time>
      </trkpt>
      <trkpt lat="59.1927791" lon="17.9017193">
        <ele>48.6</ele>
        <time>2013-03-10T11:50:12Z</time>
      </trkpt>
    </trkseg>
  </trk>
</gpx>